<?xml version="1.0" encoding="UTF-8" standalone="no" ?>
<gpx xmlns="http://www.topografix.com/GPX/1/1" xmlns:xsi="http://www.w3.org/2001/XMLSchema-instance" xsi:schemaLocation="http://www.topografix.com/GPX/1/1 http://www.topografix.com/GPX/1/1/gpx.xsd" version="1.1" creator="VisuGPX - https://www.visugpx.com">
  <metadata>
    <name>Marche nordique</name>
    <desc><![CDATA[Balade du 12/01/2013]]></desc>
  </metadata>
  <trk>
    <name><![CDATA[12/01/13 08:11]]></name>
    <desc><![CDATA[]]></desc>
    <trkseg>
      <trkpt lat="47.32822" lon="4.94206">
        <ele>275</ele>
        <time>2013-01-12T07:30:05Z</time>
      </trkpt>
      <trkpt lat="47.32797" lon="4.94205">
        <ele>343</ele>
        <time>2013-01-12T07:30:06Z</time>
      </trkpt>
      <trkpt lat="47.32808" lon="4.94213">
        <ele>302</ele>
        <time>2013-01-12T07:30:07Z</time>
      </trkpt>
      <trkpt lat="47.328" lon="4.94217">
        <ele>296</ele>
        <time>2013-01-12T07:30:10Z</time>
      </trkpt>
      <trkpt lat="47.328" lon="4.94217">
        <ele>296</ele>
        <time>2013-01-12T07:30:10Z</time>
      </trkpt>
      <trkpt lat="47.328" lon="4.94217">
        <ele>309</ele>
        <time>2013-01-12T07:30:53Z</time>
      </trkpt>
      <trkpt lat="47.32806" lon="4.9424">
        <ele>322</ele>
        <time>2013-01-12T07:31:30Z</time>
      </trkpt>
      <trkpt lat="47.32801" lon="4.9424">
        <ele>321</ele>
        <time>2013-01-12T07:31:32Z</time>
      </trkpt>
      <trkpt lat="47.32805" lon="4.94243">
        <ele>315</ele>
        <time>2013-01-12T07:31:50Z</time>
      </trkpt>
      <trkpt lat="47.32811" lon="4.94245">
        <ele>321</ele>
        <time>2013-01-12T07:32:08Z</time>
      </trkpt>
      <trkpt lat="47.32816" lon="4.94246">
        <ele>316</ele>
        <time>2013-01-12T07:32:12Z</time>
      </trkpt>
      <trkpt lat="47.32816" lon="4.94246">
        <ele>316</ele>
        <time>2013-01-12T07:32:12Z</time>
      </trkpt>
      <trkpt lat="47.32816" lon="4.94246">
        <ele>314</ele>
        <time>2013-01-12T07:32:24Z</time>
      </trkpt>
      <trkpt lat="47.3282" lon="4.94253">
        <ele>315</ele>
        <time>2013-01-12T07:32:59Z</time>
      </trkpt>
      <trkpt lat="47.32815" lon="4.94256">
        <ele>314</ele>
        <time>2013-01-12T07:33:06Z</time>
      </trkpt>
      <trkpt lat="47.3281" lon="4.94259">
        <ele>315</ele>
        <time>2013-01-12T07:33:08Z</time>
      </trkpt>
      <trkpt lat="47.32808" lon="4.94265">
        <ele>313</ele>
        <time>2013-01-12T07:33:10Z</time>
      </trkpt>
      <trkpt lat="47.32804" lon="4.94272">
        <ele>312</ele>
        <time>2013-01-12T07:33:13Z</time>
      </trkpt>
      <trkpt lat="47.32798" lon="4.94276">
        <ele>312</ele>
        <time>2013-01-12T07:33:16Z</time>
      </trkpt>
      <trkpt lat="47.32794" lon="4.94281">
        <ele>312</ele>
        <time>2013-01-12T07:33:20Z</time>
      </trkpt>
      <trkpt lat="47.3279" lon="4.94285">
        <ele>313</ele>
        <time>2013-01-12T07:33:24Z</time>
      </trkpt>
      <trkpt lat="47.32788" lon="4.94291">
        <ele>313</ele>
        <time>2013-01-12T07:33:26Z</time>
      </trkpt>
      <trkpt lat="47.32785" lon="4.94296">
        <ele>314</ele>
        <time>2013-01-12T07:33:28Z</time>
      </trkpt>
      <trkpt lat="47.32779" lon="4.94299">
        <ele>314</ele>
        <time>2013-01-12T07:33:31Z</time>
      </trkpt>
      <trkpt lat="47.32773" lon="4.94302">
        <ele>314</ele>
        <time>2013-01-12T07:33:34Z</time>
      </trkpt>
      <trkpt lat="47.32768" lon="4.94303">
        <ele>316</ele>
        <time>2013-01-12T07:33:36Z</time>
      </trkpt>
      <trkpt lat="47.32768" lon="4.9431">
        <ele>315</ele>
        <time>2013-01-12T07:33:39Z</time>
      </trkpt>
      <trkpt lat="47.32766" lon="4.94315">
        <ele>315</ele>
        <time>2013-01-12T07:33:42Z</time>
      </trkpt>
      <trkpt lat="47.32762" lon="4.9432">
        <ele>315</ele>
        <time>2013-01-12T07:33:46Z</time>
      </trkpt>
      <trkpt lat="47.32757" lon="4.94323">
        <ele>315</ele>
        <time>2013-01-12T07:33:50Z</time>
      </trkpt>
      <trkpt lat="47.32752" lon="4.94328">
        <ele>316</ele>
        <time>2013-01-12T07:33:53Z</time>
      </trkpt>
      <trkpt lat="47.32744" lon="4.94329">
        <ele>318</ele>
        <time>2013-01-12T07:33:55Z</time>
      </trkpt>
      <trkpt lat="47.32739" lon="4.94331">
        <ele>319</ele>
        <time>2013-01-12T07:33:57Z</time>
      </trkpt>
      <trkpt lat="47.32733" lon="4.94335">
        <ele>321</ele>
        <time>2013-01-12T07:34:04Z</time>
      </trkpt>
      <trkpt lat="47.32729" lon="4.94339">
        <ele>321</ele>
        <time>2013-01-12T07:34:07Z</time>
      </trkpt>
      <trkpt lat="47.32724" lon="4.94342">
        <ele>322</ele>
        <time>2013-01-12T07:34:10Z</time>
      </trkpt>
      <trkpt lat="47.3272" lon="4.94344">
        <ele>322</ele>
        <time>2013-01-12T07:34:12Z</time>
      </trkpt>
      <trkpt lat="47.32716" lon="4.94349">
        <ele>324</ele>
        <time>2013-01-12T07:34:18Z</time>
      </trkpt>
      <trkpt lat="47.32712" lon="4.94351">
        <ele>325</ele>
        <time>2013-01-12T07:34:20Z</time>
      </trkpt>
      <trkpt lat="47.32709" lon="4.94357">
        <ele>326</ele>
        <time>2013-01-12T07:34:23Z</time>
      </trkpt>
      <trkpt lat="47.32704" lon="4.94357">
        <ele>327</ele>
        <time>2013-01-12T07:34:25Z</time>
      </trkpt>
      <trkpt lat="47.327" lon="4.9436">
        <ele>328</ele>
        <time>2013-01-12T07:34:27Z</time>
      </trkpt>
      <trkpt lat="47.32693" lon="4.94362">
        <ele>328</ele>
        <time>2013-01-12T07:34:30Z</time>
      </trkpt>
      <trkpt lat="47.32688" lon="4.9436">
        <ele>328</ele>
        <time>2013-01-12T07:34:35Z</time>
      </trkpt>
      <trkpt lat="47.32683" lon="4.9436">
        <ele>329</ele>
        <time>2013-01-12T07:34:37Z</time>
      </trkpt>
      <trkpt lat="47.32678" lon="4.94359">
        <ele>330</ele>
        <time>2013-01-12T07:34:41Z</time>
      </trkpt>
      <trkpt lat="47.32676" lon="4.94365">
        <ele>330</ele>
        <time>2013-01-12T07:34:43Z</time>
      </trkpt>
      <trkpt lat="47.32669" lon="4.94364">
        <ele>330</ele>
        <time>2013-01-12T07:34:46Z</time>
      </trkpt>
      <trkpt lat="47.32666" lon="4.9437">
        <ele>331</ele>
        <time>2013-01-12T07:34:49Z</time>
      </trkpt>
      <trkpt lat="47.3266" lon="4.94372">
        <ele>332</ele>
        <time>2013-01-12T07:34:56Z</time>
      </trkpt>
      <trkpt lat="47.32653" lon="4.94373">
        <ele>333</ele>
        <time>2013-01-12T07:34:58Z</time>
      </trkpt>
      <trkpt lat="47.32647" lon="4.94374">
        <ele>333</ele>
        <time>2013-01-12T07:35:00Z</time>
      </trkpt>
      <trkpt lat="47.32643" lon="4.94378">
        <ele>335</ele>
        <time>2013-01-12T07:35:02Z</time>
      </trkpt>
      <trkpt lat="47.32638" lon="4.9438">
        <ele>337</ele>
        <time>2013-01-12T07:35:05Z</time>
      </trkpt>
      <trkpt lat="47.32632" lon="4.94378">
        <ele>337</ele>
        <time>2013-01-12T07:35:07Z</time>
      </trkpt>
      <trkpt lat="47.32627" lon="4.94374">
        <ele>337</ele>
        <time>2013-01-12T07:35:08Z</time>
      </trkpt>
      <trkpt lat="47.32622" lon="4.94374">
        <ele>337</ele>
        <time>2013-01-12T07:35:09Z</time>
      </trkpt>
      <trkpt lat="47.32617" lon="4.94377">
        <ele>339</ele>
        <time>2013-01-12T07:35:13Z</time>
      </trkpt>
      <trkpt lat="47.32611" lon="4.94375">
        <ele>341</ele>
        <time>2013-01-12T07:35:17Z</time>
      </trkpt>
      <trkpt lat="47.32606" lon="4.94374">
        <ele>341</ele>
        <time>2013-01-12T07:35:20Z</time>
      </trkpt>
      <trkpt lat="47.326" lon="4.94371">
        <ele>347</ele>
        <time>2013-01-12T07:35:25Z</time>
      </trkpt>
      <trkpt lat="47.32597" lon="4.94379">
        <ele>349</ele>
        <time>2013-01-12T07:35:30Z</time>
      </trkpt>
      <trkpt lat="47.32592" lon="4.94381">
        <ele>352</ele>
        <time>2013-01-12T07:35:35Z</time>
      </trkpt>
      <trkpt lat="47.32587" lon="4.94382">
        <ele>351</ele>
        <time>2013-01-12T07:35:38Z</time>
      </trkpt>
      <trkpt lat="47.32581" lon="4.9438">
        <ele>353</ele>
        <time>2013-01-12T07:35:40Z</time>
      </trkpt>
      <trkpt lat="47.32581" lon="4.9438">
        <ele>353</ele>
        <time>2013-01-12T07:35:40Z</time>
      </trkpt>
      <trkpt lat="47.32581" lon="4.9438">
        <ele>356</ele>
        <time>2013-01-12T07:35:45Z</time>
      </trkpt>
      <trkpt lat="47.32577" lon="4.94385">
        <ele>357</ele>
        <time>2013-01-12T07:35:50Z</time>
      </trkpt>
      <trkpt lat="47.32577" lon="4.94385">
        <ele>357</ele>
        <time>2013-01-12T07:35:50Z</time>
      </trkpt>
      <trkpt lat="47.32577" lon="4.94385">
        <ele>357</ele>
        <time>2013-01-12T07:35:51Z</time>
      </trkpt>
      <trkpt lat="47.32574" lon="4.94391">
        <ele>358</ele>
        <time>2013-01-12T07:35:53Z</time>
      </trkpt>
      <trkpt lat="47.3257" lon="4.94393">
        <ele>359</ele>
        <time>2013-01-12T07:35:55Z</time>
      </trkpt>
      <trkpt lat="47.32564" lon="4.94393">
        <ele>360</ele>
        <time>2013-01-12T07:35:58Z</time>
      </trkpt>
      <trkpt lat="47.32558" lon="4.94396">
        <ele>360</ele>
        <time>2013-01-12T07:36:01Z</time>
      </trkpt>
      <trkpt lat="47.32554" lon="4.944">
        <ele>359</ele>
        <time>2013-01-12T07:36:03Z</time>
      </trkpt>
      <trkpt lat="47.3255" lon="4.94401">
        <ele>359</ele>
        <time>2013-01-12T07:36:07Z</time>
      </trkpt>
      <trkpt lat="47.32544" lon="4.94399">
        <ele>359</ele>
        <time>2013-01-12T07:36:08Z</time>
      </trkpt>
      <trkpt lat="47.32537" lon="4.94396">
        <ele>360</ele>
        <time>2013-01-12T07:36:10Z</time>
      </trkpt>
      <trkpt lat="47.32532" lon="4.94399">
        <ele>363</ele>
        <time>2013-01-12T07:36:13Z</time>
      </trkpt>
      <trkpt lat="47.32527" lon="4.94398">
        <ele>364</ele>
        <time>2013-01-12T07:36:16Z</time>
      </trkpt>
      <trkpt lat="47.32522" lon="4.94396">
        <ele>366</ele>
        <time>2013-01-12T07:36:18Z</time>
      </trkpt>
      <trkpt lat="47.32518" lon="4.94404">
        <ele>368</ele>
        <time>2013-01-12T07:36:28Z</time>
      </trkpt>
      <trkpt lat="47.32514" lon="4.94406">
        <ele>368</ele>
        <time>2013-01-12T07:36:30Z</time>
      </trkpt>
      <trkpt lat="47.32514" lon="4.94406">
        <ele>368</ele>
        <time>2013-01-12T07:36:30Z</time>
      </trkpt>
      <trkpt lat="47.32514" lon="4.94406">
        <ele>368</ele>
        <time>2013-01-12T07:36:31Z</time>
      </trkpt>
      <trkpt lat="47.3251" lon="4.94409">
        <ele>370</ele>
        <time>2013-01-12T07:36:36Z</time>
      </trkpt>
      <trkpt lat="47.3251" lon="4.94409">
        <ele>370</ele>
        <time>2013-01-12T07:36:36Z</time>
      </trkpt>
      <trkpt lat="47.3251" lon="4.94409">
        <ele>370</ele>
        <time>2013-01-12T07:36:37Z</time>
      </trkpt>
      <trkpt lat="47.32501" lon="4.94409">
        <ele>370</ele>
        <time>2013-01-12T07:36:40Z</time>
      </trkpt>
      <trkpt lat="47.32495" lon="4.94407">
        <ele>370</ele>
        <time>2013-01-12T07:36:41Z</time>
      </trkpt>
      <trkpt lat="47.3249" lon="4.94407">
        <ele>370</ele>
        <time>2013-01-12T07:36:43Z</time>
      </trkpt>
      <trkpt lat="47.32484" lon="4.94407">
        <ele>369</ele>
        <time>2013-01-12T07:36:45Z</time>
      </trkpt>
      <trkpt lat="47.32478" lon="4.94409">
        <ele>370</ele>
        <time>2013-01-12T07:36:48Z</time>
      </trkpt>
      <trkpt lat="47.32473" lon="4.9441">
        <ele>371</ele>
        <time>2013-01-12T07:36:51Z</time>
      </trkpt>
      <trkpt lat="47.32466" lon="4.94408">
        <ele>372</ele>
        <time>2013-01-12T07:37:00Z</time>
      </trkpt>
      <trkpt lat="47.32461" lon="4.94411">
        <ele>372</ele>
        <time>2013-01-12T07:37:03Z</time>
      </trkpt>
      <trkpt lat="47.32455" lon="4.94409">
        <ele>372</ele>
        <time>2013-01-12T07:37:04Z</time>
      </trkpt>
      <trkpt lat="47.32449" lon="4.94412">
        <ele>372</ele>
        <time>2013-01-12T07:37:06Z</time>
      </trkpt>
      <trkpt lat="47.32443" lon="4.94412">
        <ele>373</ele>
        <time>2013-01-12T07:37:09Z</time>
      </trkpt>
      <trkpt lat="47.32437" lon="4.94413">
        <ele>373</ele>
        <time>2013-01-12T07:37:11Z</time>
      </trkpt>
      <trkpt lat="47.32432" lon="4.94415">
        <ele>373</ele>
        <time>2013-01-12T07:37:14Z</time>
      </trkpt>
      <trkpt lat="47.32426" lon="4.94415">
        <ele>372</ele>
        <time>2013-01-12T07:37:16Z</time>
      </trkpt>
      <trkpt lat="47.3242" lon="4.94416">
        <ele>370</ele>
        <time>2013-01-12T07:37:20Z</time>
      </trkpt>
      <trkpt lat="47.32417" lon="4.9442">
        <ele>371</ele>
        <time>2013-01-12T07:37:22Z</time>
      </trkpt>
      <trkpt lat="47.32412" lon="4.94423">
        <ele>371</ele>
        <time>2013-01-12T07:37:26Z</time>
      </trkpt>
      <trkpt lat="47.32406" lon="4.94424">
        <ele>373</ele>
        <time>2013-01-12T07:37:33Z</time>
      </trkpt>
      <trkpt lat="47.32403" lon="4.9443">
        <ele>372</ele>
        <time>2013-01-12T07:37:36Z</time>
      </trkpt>
      <trkpt lat="47.32399" lon="4.94435">
        <ele>373</ele>
        <time>2013-01-12T07:37:39Z</time>
      </trkpt>
      <trkpt lat="47.32395" lon="4.94439">
        <ele>376</ele>
        <time>2013-01-12T07:37:46Z</time>
      </trkpt>
      <trkpt lat="47.32389" lon="4.94442">
        <ele>378</ele>
        <time>2013-01-12T07:37:54Z</time>
      </trkpt>
      <trkpt lat="47.32386" lon="4.94448">
        <ele>379</ele>
        <time>2013-01-12T07:37:59Z</time>
      </trkpt>
      <trkpt lat="47.32382" lon="4.94453">
        <ele>378</ele>
        <time>2013-01-12T07:38:02Z</time>
      </trkpt>
      <trkpt lat="47.32377" lon="4.94453">
        <ele>379</ele>
        <time>2013-01-12T07:38:04Z</time>
      </trkpt>
      <trkpt lat="47.32372" lon="4.94454">
        <ele>381</ele>
        <time>2013-01-12T07:38:07Z</time>
      </trkpt>
      <trkpt lat="47.32365" lon="4.94452">
        <ele>383</ele>
        <time>2013-01-12T07:38:10Z</time>
      </trkpt>
      <trkpt lat="47.32359" lon="4.94451">
        <ele>384</ele>
        <time>2013-01-12T07:38:13Z</time>
      </trkpt>
      <trkpt lat="47.32354" lon="4.9445">
        <ele>383</ele>
        <time>2013-01-12T07:38:16Z</time>
      </trkpt>
      <trkpt lat="47.32348" lon="4.94451">
        <ele>383</ele>
        <time>2013-01-12T07:38:18Z</time>
      </trkpt>
      <trkpt lat="47.32344" lon="4.94449">
        <ele>384</ele>
        <time>2013-01-12T07:38:20Z</time>
      </trkpt>
      <trkpt lat="47.32338" lon="4.94446">
        <ele>386</ele>
        <time>2013-01-12T07:38:25Z</time>
      </trkpt>
      <trkpt lat="47.32333" lon="4.94445">
        <ele>386</ele>
        <time>2013-01-12T07:38:29Z</time>
      </trkpt>
      <trkpt lat="47.32328" lon="4.94451">
        <ele>387</ele>
        <time>2013-01-12T07:38:33Z</time>
      </trkpt>
      <trkpt lat="47.32323" lon="4.9445">
        <ele>389</ele>
        <time>2013-01-12T07:38:36Z</time>
      </trkpt>
      <trkpt lat="47.32317" lon="4.94448">
        <ele>390</ele>
        <time>2013-01-12T07:38:40Z</time>
      </trkpt>
      <trkpt lat="47.32312" lon="4.94448">
        <ele>392</ele>
        <time>2013-01-12T07:38:44Z</time>
      </trkpt>
      <trkpt lat="47.32306" lon="4.94446">
        <ele>392</ele>
        <time>2013-01-12T07:38:47Z</time>
      </trkpt>
      <trkpt lat="47.32301" lon="4.94448">
        <ele>391</ele>
        <time>2013-01-12T07:38:52Z</time>
      </trkpt>
      <trkpt lat="47.32299" lon="4.94454">
        <ele>389</ele>
        <time>2013-01-12T07:38:58Z</time>
      </trkpt>
      <trkpt lat="47.32294" lon="4.9446">
        <ele>387</ele>
        <time>2013-01-12T07:39:01Z</time>
      </trkpt>
      <trkpt lat="47.32289" lon="4.94461">
        <ele>386</ele>
        <time>2013-01-12T07:39:05Z</time>
      </trkpt>
      <trkpt lat="47.32287" lon="4.94467">
        <ele>385</ele>
        <time>2013-01-12T07:39:08Z</time>
      </trkpt>
      <trkpt lat="47.32284" lon="4.94473">
        <ele>383</ele>
        <time>2013-01-12T07:39:16Z</time>
      </trkpt>
      <trkpt lat="47.32279" lon="4.94476">
        <ele>382</ele>
        <time>2013-01-12T07:39:19Z</time>
      </trkpt>
      <trkpt lat="47.32275" lon="4.94481">
        <ele>381</ele>
        <time>2013-01-12T07:39:22Z</time>
      </trkpt>
      <trkpt lat="47.32269" lon="4.94483">
        <ele>382</ele>
        <time>2013-01-12T07:39:25Z</time>
      </trkpt>
      <trkpt lat="47.32265" lon="4.94487">
        <ele>382</ele>
        <time>2013-01-12T07:39:27Z</time>
      </trkpt>
      <trkpt lat="47.32261" lon="4.9449">
        <ele>383</ele>
        <time>2013-01-12T07:39:30Z</time>
      </trkpt>
      <trkpt lat="47.32257" lon="4.94496">
        <ele>384</ele>
        <time>2013-01-12T07:39:33Z</time>
      </trkpt>
      <trkpt lat="47.32254" lon="4.945">
        <ele>383</ele>
        <time>2013-01-12T07:39:36Z</time>
      </trkpt>
      <trkpt lat="47.3225" lon="4.94506">
        <ele>383</ele>
        <time>2013-01-12T07:39:39Z</time>
      </trkpt>
      <trkpt lat="47.32245" lon="4.94507">
        <ele>384</ele>
        <time>2013-01-12T07:39:47Z</time>
      </trkpt>
      <trkpt lat="47.32238" lon="4.94509">
        <ele>384</ele>
        <time>2013-01-12T07:40:22Z</time>
      </trkpt>
      <trkpt lat="47.32238" lon="4.94509">
        <ele>384</ele>
        <time>2013-01-12T07:40:22Z</time>
      </trkpt>
      <trkpt lat="47.32238" lon="4.94509">
        <ele>384</ele>
        <time>2013-01-12T07:40:23Z</time>
      </trkpt>
      <trkpt lat="47.32234" lon="4.94514">
        <ele>384</ele>
        <time>2013-01-12T07:40:38Z</time>
      </trkpt>
      <trkpt lat="47.32233" lon="4.94521">
        <ele>384</ele>
        <time>2013-01-12T07:40:42Z</time>
      </trkpt>
      <trkpt lat="47.3223" lon="4.94527">
        <ele>386</ele>
        <time>2013-01-12T07:40:47Z</time>
      </trkpt>
      <trkpt lat="47.32228" lon="4.94534">
        <ele>385</ele>
        <time>2013-01-12T07:40:49Z</time>
      </trkpt>
      <trkpt lat="47.32225" lon="4.94541">
        <ele>385</ele>
        <time>2013-01-12T07:40:52Z</time>
      </trkpt>
      <trkpt lat="47.32223" lon="4.94549">
        <ele>386</ele>
        <time>2013-01-12T07:40:56Z</time>
      </trkpt>
      <trkpt lat="47.32219" lon="4.94555">
        <ele>387</ele>
        <time>2013-01-12T07:40:59Z</time>
      </trkpt>
      <trkpt lat="47.32217" lon="4.94563">
        <ele>386</ele>
        <time>2013-01-12T07:41:03Z</time>
      </trkpt>
      <trkpt lat="47.32215" lon="4.9457">
        <ele>388</ele>
        <time>2013-01-12T07:41:07Z</time>
      </trkpt>
      <trkpt lat="47.32214" lon="4.94577">
        <ele>390</ele>
        <time>2013-01-12T07:41:10Z</time>
      </trkpt>
      <trkpt lat="47.32211" lon="4.94582">
        <ele>390</ele>
        <time>2013-01-12T07:41:14Z</time>
      </trkpt>
      <trkpt lat="47.32207" lon="4.94587">
        <ele>389</ele>
        <time>2013-01-12T07:41:18Z</time>
      </trkpt>
      <trkpt lat="47.32202" lon="4.94592">
        <ele>392</ele>
        <time>2013-01-12T07:41:22Z</time>
      </trkpt>
      <trkpt lat="47.32197" lon="4.94597">
        <ele>394</ele>
        <time>2013-01-12T07:41:27Z</time>
      </trkpt>
      <trkpt lat="47.32192" lon="4.94594">
        <ele>393</ele>
        <time>2013-01-12T07:41:29Z</time>
      </trkpt>
      <trkpt lat="47.32188" lon="4.94598">
        <ele>395</ele>
        <time>2013-01-12T07:41:33Z</time>
      </trkpt>
      <trkpt lat="47.32186" lon="4.94605">
        <ele>396</ele>
        <time>2013-01-12T07:41:38Z</time>
      </trkpt>
      <trkpt lat="47.3218" lon="4.94606">
        <ele>399</ele>
        <time>2013-01-12T07:41:42Z</time>
      </trkpt>
      <trkpt lat="47.32175" lon="4.94608">
        <ele>401</ele>
        <time>2013-01-12T07:41:46Z</time>
      </trkpt>
      <trkpt lat="47.3217" lon="4.94613">
        <ele>403</ele>
        <time>2013-01-12T07:41:51Z</time>
      </trkpt>
      <trkpt lat="47.3217" lon="4.94621">
        <ele>403</ele>
        <time>2013-01-12T07:41:54Z</time>
      </trkpt>
      <trkpt lat="47.32169" lon="4.94629">
        <ele>404</ele>
        <time>2013-01-12T07:41:58Z</time>
      </trkpt>
      <trkpt lat="47.32164" lon="4.94633">
        <ele>408</ele>
        <time>2013-01-12T07:42:02Z</time>
      </trkpt>
      <trkpt lat="47.32161" lon="4.94641">
        <ele>408</ele>
        <time>2013-01-12T07:42:06Z</time>
      </trkpt>
      <trkpt lat="47.3216" lon="4.94647">
        <ele>410</ele>
        <time>2013-01-12T07:42:09Z</time>
      </trkpt>
      <trkpt lat="47.32161" lon="4.94654">
        <ele>411</ele>
        <time>2013-01-12T07:42:12Z</time>
      </trkpt>
      <trkpt lat="47.32161" lon="4.94662">
        <ele>412</ele>
        <time>2013-01-12T07:42:16Z</time>
      </trkpt>
      <trkpt lat="47.32158" lon="4.94666">
        <ele>413</ele>
        <time>2013-01-12T07:42:19Z</time>
      </trkpt>
      <trkpt lat="47.32154" lon="4.94672">
        <ele>413</ele>
        <time>2013-01-12T07:42:22Z</time>
      </trkpt>
      <trkpt lat="47.32154" lon="4.94672">
        <ele>413</ele>
        <time>2013-01-12T07:42:22Z</time>
      </trkpt>
      <trkpt lat="47.32154" lon="4.94672">
        <ele>415</ele>
        <time>2013-01-12T07:42:23Z</time>
      </trkpt>
      <trkpt lat="47.32151" lon="4.94678">
        <ele>417</ele>
        <time>2013-01-12T07:42:27Z</time>
      </trkpt>
      <trkpt lat="47.32147" lon="4.94681">
        <ele>417</ele>
        <time>2013-01-12T07:42:31Z</time>
      </trkpt>
      <trkpt lat="47.32141" lon="4.94678">
        <ele>420</ele>
        <time>2013-01-12T07:42:33Z</time>
      </trkpt>
      <trkpt lat="47.32137" lon="4.9468">
        <ele>420</ele>
        <time>2013-01-12T07:42:36Z</time>
      </trkpt>
      <trkpt lat="47.3213" lon="4.94684">
        <ele>420</ele>
        <time>2013-01-12T07:42:40Z</time>
      </trkpt>
      <trkpt lat="47.32124" lon="4.94687">
        <ele>420</ele>
        <time>2013-01-12T07:42:43Z</time>
      </trkpt>
      <trkpt lat="47.32118" lon="4.94689">
        <ele>421</ele>
        <time>2013-01-12T07:42:46Z</time>
      </trkpt>
      <trkpt lat="47.32112" lon="4.9469">
        <ele>421</ele>
        <time>2013-01-12T07:42:49Z</time>
      </trkpt>
      <trkpt lat="47.32107" lon="4.94694">
        <ele>422</ele>
        <time>2013-01-12T07:42:51Z</time>
      </trkpt>
      <trkpt lat="47.32101" lon="4.94694">
        <ele>422</ele>
        <time>2013-01-12T07:42:54Z</time>
      </trkpt>
      <trkpt lat="47.32098" lon="4.94699">
        <ele>424</ele>
        <time>2013-01-12T07:42:58Z</time>
      </trkpt>
      <trkpt lat="47.32095" lon="4.94704">
        <ele>425</ele>
        <time>2013-01-12T07:43:01Z</time>
      </trkpt>
      <trkpt lat="47.32091" lon="4.94701">
        <ele>426</ele>
        <time>2013-01-12T07:43:02Z</time>
      </trkpt>
      <trkpt lat="47.32086" lon="4.94702">
        <ele>427</ele>
        <time>2013-01-12T07:43:06Z</time>
      </trkpt>
      <trkpt lat="47.32081" lon="4.94706">
        <ele>427</ele>
        <time>2013-01-12T07:43:09Z</time>
      </trkpt>
      <trkpt lat="47.32075" lon="4.94709">
        <ele>426</ele>
        <time>2013-01-12T07:43:13Z</time>
      </trkpt>
      <trkpt lat="47.3207" lon="4.94711">
        <ele>426</ele>
        <time>2013-01-12T07:43:17Z</time>
      </trkpt>
      <trkpt lat="47.32067" lon="4.94716">
        <ele>426</ele>
        <time>2013-01-12T07:43:20Z</time>
      </trkpt>
      <trkpt lat="47.32061" lon="4.9472">
        <ele>426</ele>
        <time>2013-01-12T07:43:23Z</time>
      </trkpt>
      <trkpt lat="47.32056" lon="4.94723">
        <ele>427</ele>
        <time>2013-01-12T07:43:26Z</time>
      </trkpt>
      <trkpt lat="47.3205" lon="4.94723">
        <ele>425</ele>
        <time>2013-01-12T07:43:29Z</time>
      </trkpt>
      <trkpt lat="47.32046" lon="4.94729">
        <ele>426</ele>
        <time>2013-01-12T07:43:33Z</time>
      </trkpt>
      <trkpt lat="47.32043" lon="4.94734">
        <ele>429</ele>
        <time>2013-01-12T07:43:38Z</time>
      </trkpt>
      <trkpt lat="47.32038" lon="4.94738">
        <ele>430</ele>
        <time>2013-01-12T07:43:42Z</time>
      </trkpt>
      <trkpt lat="47.32032" lon="4.9474">
        <ele>431</ele>
        <time>2013-01-12T07:43:45Z</time>
      </trkpt>
      <trkpt lat="47.32027" lon="4.94742">
        <ele>433</ele>
        <time>2013-01-12T07:43:48Z</time>
      </trkpt>
      <trkpt lat="47.32023" lon="4.94745">
        <ele>434</ele>
        <time>2013-01-12T07:43:52Z</time>
      </trkpt>
      <trkpt lat="47.32018" lon="4.94749">
        <ele>435</ele>
        <time>2013-01-12T07:43:56Z</time>
      </trkpt>
      <trkpt lat="47.32014" lon="4.94754">
        <ele>435</ele>
        <time>2013-01-12T07:43:59Z</time>
      </trkpt>
      <trkpt lat="47.32009" lon="4.94756">
        <ele>434</ele>
        <time>2013-01-12T07:44:01Z</time>
      </trkpt>
      <trkpt lat="47.32003" lon="4.94756">
        <ele>433</ele>
        <time>2013-01-12T07:44:02Z</time>
      </trkpt>
      <trkpt lat="47.32" lon="4.94761">
        <ele>438</ele>
        <time>2013-01-12T07:44:06Z</time>
      </trkpt>
      <trkpt lat="47.32001" lon="4.94771">
        <ele>441</ele>
        <time>2013-01-12T07:44:15Z</time>
      </trkpt>
      <trkpt lat="47.31999" lon="4.94777">
        <ele>441</ele>
        <time>2013-01-12T07:44:18Z</time>
      </trkpt>
      <trkpt lat="47.31999" lon="4.94785">
        <ele>442</ele>
        <time>2013-01-12T07:44:22Z</time>
      </trkpt>
      <trkpt lat="47.32001" lon="4.94791">
        <ele>444</ele>
        <time>2013-01-12T07:44:25Z</time>
      </trkpt>
      <trkpt lat="47.31999" lon="4.94798">
        <ele>443</ele>
        <time>2013-01-12T07:44:28Z</time>
      </trkpt>
      <trkpt lat="47.31998" lon="4.94806">
        <ele>443</ele>
        <time>2013-01-12T07:44:33Z</time>
      </trkpt>
      <trkpt lat="47.31999" lon="4.94815">
        <ele>443</ele>
        <time>2013-01-12T07:44:36Z</time>
      </trkpt>
      <trkpt lat="47.31996" lon="4.9482">
        <ele>441</ele>
        <time>2013-01-12T07:44:39Z</time>
      </trkpt>
      <trkpt lat="47.31996" lon="4.94829">
        <ele>441</ele>
        <time>2013-01-12T07:44:43Z</time>
      </trkpt>
      <trkpt lat="47.31999" lon="4.94836">
        <ele>440</ele>
        <time>2013-01-12T07:44:47Z</time>
      </trkpt>
      <trkpt lat="47.31999" lon="4.94844">
        <ele>440</ele>
        <time>2013-01-12T07:44:52Z</time>
      </trkpt>
      <trkpt lat="47.32001" lon="4.94851">
        <ele>443</ele>
        <time>2013-01-12T07:44:57Z</time>
      </trkpt>
      <trkpt lat="47.32005" lon="4.9486">
        <ele>445</ele>
        <time>2013-01-12T07:45:03Z</time>
      </trkpt>
      <trkpt lat="47.32007" lon="4.94865">
        <ele>445</ele>
        <time>2013-01-12T07:45:05Z</time>
      </trkpt>
      <trkpt lat="47.32008" lon="4.94873">
        <ele>451</ele>
        <time>2013-01-12T07:45:15Z</time>
      </trkpt>
      <trkpt lat="47.32008" lon="4.9488">
        <ele>450</ele>
        <time>2013-01-12T07:45:18Z</time>
      </trkpt>
      <trkpt lat="47.3201" lon="4.94887">
        <ele>449</ele>
        <time>2013-01-12T07:45:22Z</time>
      </trkpt>
      <trkpt lat="47.32013" lon="4.94892">
        <ele>450</ele>
        <time>2013-01-12T07:45:27Z</time>
      </trkpt>
      <trkpt lat="47.32018" lon="4.94896">
        <ele>452</ele>
        <time>2013-01-12T07:45:32Z</time>
      </trkpt>
      <trkpt lat="47.32021" lon="4.94901">
        <ele>454</ele>
        <time>2013-01-12T07:45:37Z</time>
      </trkpt>
      <trkpt lat="47.32023" lon="4.94907">
        <ele>457</ele>
        <time>2013-01-12T07:45:43Z</time>
      </trkpt>
      <trkpt lat="47.32026" lon="4.94914">
        <ele>458</ele>
        <time>2013-01-12T07:45:48Z</time>
      </trkpt>
      <trkpt lat="47.3203" lon="4.94919">
        <ele>458</ele>
        <time>2013-01-12T07:45:51Z</time>
      </trkpt>
      <trkpt lat="47.32033" lon="4.94926">
        <ele>458</ele>
        <time>2013-01-12T07:45:53Z</time>
      </trkpt>
      <trkpt lat="47.3203" lon="4.94932">
        <ele>458</ele>
        <time>2013-01-12T07:45:57Z</time>
      </trkpt>
      <trkpt lat="47.32029" lon="4.94938">
        <ele>457</ele>
        <time>2013-01-12T07:46:01Z</time>
      </trkpt>
      <trkpt lat="47.32028" lon="4.94945">
        <ele>457</ele>
        <time>2013-01-12T07:46:05Z</time>
      </trkpt>
      <trkpt lat="47.32029" lon="4.94952">
        <ele>456</ele>
        <time>2013-01-12T07:46:08Z</time>
      </trkpt>
      <trkpt lat="47.32025" lon="4.94957">
        <ele>452</ele>
        <time>2013-01-12T07:47:03Z</time>
      </trkpt>
      <trkpt lat="47.32019" lon="4.94957">
        <ele>454</ele>
        <time>2013-01-12T07:47:10Z</time>
      </trkpt>
      <trkpt lat="47.32015" lon="4.94959">
        <ele>454</ele>
        <time>2013-01-12T07:47:14Z</time>
      </trkpt>
      <trkpt lat="47.32009" lon="4.94961">
        <ele>454</ele>
        <time>2013-01-12T07:47:18Z</time>
      </trkpt>
      <trkpt lat="47.32002" lon="4.94962">
        <ele>454</ele>
        <time>2013-01-12T07:47:22Z</time>
      </trkpt>
      <trkpt lat="47.31997" lon="4.94962">
        <ele>454</ele>
        <time>2013-01-12T07:47:26Z</time>
      </trkpt>
      <trkpt lat="47.31994" lon="4.94957">
        <ele>457</ele>
        <time>2013-01-12T07:47:29Z</time>
      </trkpt>
      <trkpt lat="47.31988" lon="4.94955">
        <ele>458</ele>
        <time>2013-01-12T07:47:32Z</time>
      </trkpt>
      <trkpt lat="47.31984" lon="4.9495">
        <ele>460</ele>
        <time>2013-01-12T07:47:36Z</time>
      </trkpt>
      <trkpt lat="47.31979" lon="4.94947">
        <ele>461</ele>
        <time>2013-01-12T07:47:40Z</time>
      </trkpt>
      <trkpt lat="47.31976" lon="4.94942">
        <ele>462</ele>
        <time>2013-01-12T07:47:43Z</time>
      </trkpt>
      <trkpt lat="47.3197" lon="4.94939">
        <ele>463</ele>
        <time>2013-01-12T07:47:47Z</time>
      </trkpt>
      <trkpt lat="47.31966" lon="4.94932">
        <ele>463</ele>
        <time>2013-01-12T07:47:50Z</time>
      </trkpt>
      <trkpt lat="47.31964" lon="4.94926">
        <ele>464</ele>
        <time>2013-01-12T07:47:53Z</time>
      </trkpt>
      <trkpt lat="47.31961" lon="4.9492">
        <ele>464</ele>
        <time>2013-01-12T07:47:56Z</time>
      </trkpt>
      <trkpt lat="47.31957" lon="4.94916">
        <ele>464</ele>
        <time>2013-01-12T07:47:58Z</time>
      </trkpt>
      <trkpt lat="47.31954" lon="4.9491">
        <ele>462</ele>
        <time>2013-01-12T07:48:01Z</time>
      </trkpt>
      <trkpt lat="47.31949" lon="4.94906">
        <ele>462</ele>
        <time>2013-01-12T07:48:04Z</time>
      </trkpt>
      <trkpt lat="47.31944" lon="4.94903">
        <ele>463</ele>
        <time>2013-01-12T07:48:08Z</time>
      </trkpt>
      <trkpt lat="47.31941" lon="4.94895">
        <ele>462</ele>
        <time>2013-01-12T07:48:11Z</time>
      </trkpt>
      <trkpt lat="47.31938" lon="4.9489">
        <ele>463</ele>
        <time>2013-01-12T07:48:14Z</time>
      </trkpt>
      <trkpt lat="47.31933" lon="4.94885">
        <ele>464</ele>
        <time>2013-01-12T07:48:18Z</time>
      </trkpt>
      <trkpt lat="47.3193" lon="4.9488">
        <ele>465</ele>
        <time>2013-01-12T07:48:21Z</time>
      </trkpt>
      <trkpt lat="47.31928" lon="4.94874">
        <ele>464</ele>
        <time>2013-01-12T07:48:24Z</time>
      </trkpt>
      <trkpt lat="47.31927" lon="4.94865">
        <ele>462</ele>
        <time>2013-01-12T07:48:27Z</time>
      </trkpt>
      <trkpt lat="47.31925" lon="4.94858">
        <ele>461</ele>
        <time>2013-01-12T07:48:30Z</time>
      </trkpt>
      <trkpt lat="47.31923" lon="4.9485">
        <ele>460</ele>
        <time>2013-01-12T07:48:33Z</time>
      </trkpt>
      <trkpt lat="47.3192" lon="4.94844">
        <ele>460</ele>
        <time>2013-01-12T07:48:36Z</time>
      </trkpt>
      <trkpt lat="47.31916" lon="4.94836">
        <ele>460</ele>
        <time>2013-01-12T07:48:39Z</time>
      </trkpt>
      <trkpt lat="47.31913" lon="4.94828">
        <ele>461</ele>
        <time>2013-01-12T07:48:42Z</time>
      </trkpt>
      <trkpt lat="47.31911" lon="4.9482">
        <ele>461</ele>
        <time>2013-01-12T07:48:45Z</time>
      </trkpt>
      <trkpt lat="47.31909" lon="4.94811">
        <ele>462</ele>
        <time>2013-01-12T07:48:48Z</time>
      </trkpt>
      <trkpt lat="47.31909" lon="4.94804">
        <ele>460</ele>
        <time>2013-01-12T07:48:51Z</time>
      </trkpt>
      <trkpt lat="47.31909" lon="4.94797">
        <ele>459</ele>
        <time>2013-01-12T07:48:53Z</time>
      </trkpt>
      <trkpt lat="47.3191" lon="4.94789">
        <ele>459</ele>
        <time>2013-01-12T07:48:55Z</time>
      </trkpt>
      <trkpt lat="47.31908" lon="4.94782">
        <ele>459</ele>
        <time>2013-01-12T07:48:59Z</time>
      </trkpt>
      <trkpt lat="47.31906" lon="4.94775">
        <ele>461</ele>
        <time>2013-01-12T07:49:02Z</time>
      </trkpt>
      <trkpt lat="47.31906" lon="4.94767">
        <ele>463</ele>
        <time>2013-01-12T07:49:06Z</time>
      </trkpt>
      <trkpt lat="47.31904" lon="4.9476">
        <ele>464</ele>
        <time>2013-01-12T07:49:10Z</time>
      </trkpt>
      <trkpt lat="47.31905" lon="4.94752">
        <ele>463</ele>
        <time>2013-01-12T07:49:13Z</time>
      </trkpt>
      <trkpt lat="47.31902" lon="4.94746">
        <ele>465</ele>
        <time>2013-01-12T07:49:17Z</time>
      </trkpt>
      <trkpt lat="47.31898" lon="4.9474">
        <ele>464</ele>
        <time>2013-01-12T07:49:20Z</time>
      </trkpt>
      <trkpt lat="47.31896" lon="4.94734">
        <ele>466</ele>
        <time>2013-01-12T07:49:24Z</time>
      </trkpt>
      <trkpt lat="47.31898" lon="4.94725">
        <ele>465</ele>
        <time>2013-01-12T07:49:27Z</time>
      </trkpt>
      <trkpt lat="47.31899" lon="4.94718">
        <ele>466</ele>
        <time>2013-01-12T07:49:29Z</time>
      </trkpt>
      <trkpt lat="47.319" lon="4.9471">
        <ele>467</ele>
        <time>2013-01-12T07:49:32Z</time>
      </trkpt>
      <trkpt lat="47.31902" lon="4.94702">
        <ele>466</ele>
        <time>2013-01-12T07:49:35Z</time>
      </trkpt>
      <trkpt lat="47.31903" lon="4.94694">
        <ele>465</ele>
        <time>2013-01-12T07:49:38Z</time>
      </trkpt>
      <trkpt lat="47.31902" lon="4.94685">
        <ele>467</ele>
        <time>2013-01-12T07:49:42Z</time>
      </trkpt>
      <trkpt lat="47.319" lon="4.94678">
        <ele>468</ele>
        <time>2013-01-12T07:49:46Z</time>
      </trkpt>
      <trkpt lat="47.31899" lon="4.94671">
        <ele>468</ele>
        <time>2013-01-12T07:49:49Z</time>
      </trkpt>
      <trkpt lat="47.31898" lon="4.94664">
        <ele>468</ele>
        <time>2013-01-12T07:49:52Z</time>
      </trkpt>
      <trkpt lat="47.31896" lon="4.94657">
        <ele>468</ele>
        <time>2013-01-12T07:49:57Z</time>
      </trkpt>
      <trkpt lat="47.31895" lon="4.94649">
        <ele>468</ele>
        <time>2013-01-12T07:50:01Z</time>
      </trkpt>
      <trkpt lat="47.31892" lon="4.94641">
        <ele>467</ele>
        <time>2013-01-12T07:50:04Z</time>
      </trkpt>
      <trkpt lat="47.3189" lon="4.94635">
        <ele>468</ele>
        <time>2013-01-12T07:50:07Z</time>
      </trkpt>
      <trkpt lat="47.31887" lon="4.94628">
        <ele>470</ele>
        <time>2013-01-12T07:50:10Z</time>
      </trkpt>
      <trkpt lat="47.31882" lon="4.94623">
        <ele>471</ele>
        <time>2013-01-12T07:50:13Z</time>
      </trkpt>
      <trkpt lat="47.31878" lon="4.9462">
        <ele>471</ele>
        <time>2013-01-12T07:50:16Z</time>
      </trkpt>
      <trkpt lat="47.31875" lon="4.94615">
        <ele>472</ele>
        <time>2013-01-12T07:50:19Z</time>
      </trkpt>
      <trkpt lat="47.31872" lon="4.9461">
        <ele>473</ele>
        <time>2013-01-12T07:50:22Z</time>
      </trkpt>
      <trkpt lat="47.31867" lon="4.94604">
        <ele>473</ele>
        <time>2013-01-12T07:50:25Z</time>
      </trkpt>
      <trkpt lat="47.31863" lon="4.94598">
        <ele>472</ele>
        <time>2013-01-12T07:50:28Z</time>
      </trkpt>
      <trkpt lat="47.31859" lon="4.94592">
        <ele>472</ele>
        <time>2013-01-12T07:50:31Z</time>
      </trkpt>
      <trkpt lat="47.31855" lon="4.94586">
        <ele>470</ele>
        <time>2013-01-12T07:50:34Z</time>
      </trkpt>
      <trkpt lat="47.31852" lon="4.94581">
        <ele>469</ele>
        <time>2013-01-12T07:50:36Z</time>
      </trkpt>
      <trkpt lat="47.31848" lon="4.94576">
        <ele>468</ele>
        <time>2013-01-12T07:50:38Z</time>
      </trkpt>
      <trkpt lat="47.31844" lon="4.94571">
        <ele>469</ele>
        <time>2013-01-12T07:50:41Z</time>
      </trkpt>
      <trkpt lat="47.31839" lon="4.94566">
        <ele>468</ele>
        <time>2013-01-12T07:50:44Z</time>
      </trkpt>
      <trkpt lat="47.31836" lon="4.94561">
        <ele>467</ele>
        <time>2013-01-12T07:50:47Z</time>
      </trkpt>
      <trkpt lat="47.3183" lon="4.94557">
        <ele>468</ele>
        <time>2013-01-12T07:50:51Z</time>
      </trkpt>
      <trkpt lat="47.31823" lon="4.94554">
        <ele>469</ele>
        <time>2013-01-12T07:50:54Z</time>
      </trkpt>
      <trkpt lat="47.31819" lon="4.94549">
        <ele>469</ele>
        <time>2013-01-12T07:50:57Z</time>
      </trkpt>
      <trkpt lat="47.31815" lon="4.94542">
        <ele>467</ele>
        <time>2013-01-12T07:51:00Z</time>
      </trkpt>
      <trkpt lat="47.31812" lon="4.94536">
        <ele>466</ele>
        <time>2013-01-12T07:51:04Z</time>
      </trkpt>
      <trkpt lat="47.31807" lon="4.94532">
        <ele>466</ele>
        <time>2013-01-12T07:51:08Z</time>
      </trkpt>
      <trkpt lat="47.31802" lon="4.94526">
        <ele>465</ele>
        <time>2013-01-12T07:51:12Z</time>
      </trkpt>
      <trkpt lat="47.31799" lon="4.94519">
        <ele>463</ele>
        <time>2013-01-12T07:51:15Z</time>
      </trkpt>
      <trkpt lat="47.31797" lon="4.94512">
        <ele>461</ele>
        <time>2013-01-12T07:51:17Z</time>
      </trkpt>
      <trkpt lat="47.31793" lon="4.94506">
        <ele>460</ele>
        <time>2013-01-12T07:51:20Z</time>
      </trkpt>
      <trkpt lat="47.31789" lon="4.94503">
        <ele>461</ele>
        <time>2013-01-12T07:51:24Z</time>
      </trkpt>
      <trkpt lat="47.31783" lon="4.94498">
        <ele>462</ele>
        <time>2013-01-12T07:51:28Z</time>
      </trkpt>
      <trkpt lat="47.31779" lon="4.94495">
        <ele>464</ele>
        <time>2013-01-12T07:51:31Z</time>
      </trkpt>
      <trkpt lat="47.31774" lon="4.94494">
        <ele>466</ele>
        <time>2013-01-12T07:51:34Z</time>
      </trkpt>
      <trkpt lat="47.3177" lon="4.94497">
        <ele>470</ele>
        <time>2013-01-12T07:51:37Z</time>
      </trkpt>
      <trkpt lat="47.31757" lon="4.94476">
        <ele>472</ele>
        <time>2013-01-12T07:51:51Z</time>
      </trkpt>
      <trkpt lat="47.31754" lon="4.94468">
        <ele>470</ele>
        <time>2013-01-12T07:51:55Z</time>
      </trkpt>
      <trkpt lat="47.31751" lon="4.94462">
        <ele>470</ele>
        <time>2013-01-12T07:51:57Z</time>
      </trkpt>
      <trkpt lat="47.31749" lon="4.94456">
        <ele>469</ele>
        <time>2013-01-12T07:52:00Z</time>
      </trkpt>
      <trkpt lat="47.31745" lon="4.94448">
        <ele>469</ele>
        <time>2013-01-12T07:52:04Z</time>
      </trkpt>
      <trkpt lat="47.31742" lon="4.94441">
        <ele>469</ele>
        <time>2013-01-12T07:52:07Z</time>
      </trkpt>
      <trkpt lat="47.31739" lon="4.94435">
        <ele>469</ele>
        <time>2013-01-12T07:52:10Z</time>
      </trkpt>
      <trkpt lat="47.31736" lon="4.94428">
        <ele>468</ele>
        <time>2013-01-12T07:52:14Z</time>
      </trkpt>
      <trkpt lat="47.31733" lon="4.94423">
        <ele>469</ele>
        <time>2013-01-12T07:52:18Z</time>
      </trkpt>
      <trkpt lat="47.3173" lon="4.94417">
        <ele>469</ele>
        <time>2013-01-12T07:52:21Z</time>
      </trkpt>
      <trkpt lat="47.31726" lon="4.94412">
        <ele>471</ele>
        <time>2013-01-12T07:52:25Z</time>
      </trkpt>
      <trkpt lat="47.31721" lon="4.94406">
        <ele>472</ele>
        <time>2013-01-12T07:52:29Z</time>
      </trkpt>
      <trkpt lat="47.31718" lon="4.944">
        <ele>471</ele>
        <time>2013-01-12T07:52:32Z</time>
      </trkpt>
      <trkpt lat="47.31715" lon="4.94393">
        <ele>470</ele>
        <time>2013-01-12T07:52:35Z</time>
      </trkpt>
      <trkpt lat="47.31711" lon="4.94387">
        <ele>471</ele>
        <time>2013-01-12T07:52:39Z</time>
      </trkpt>
      <trkpt lat="47.31707" lon="4.94383">
        <ele>472</ele>
        <time>2013-01-12T07:52:42Z</time>
      </trkpt>
      <trkpt lat="47.31703" lon="4.94378">
        <ele>472</ele>
        <time>2013-01-12T07:52:45Z</time>
      </trkpt>
      <trkpt lat="47.317" lon="4.94372">
        <ele>472</ele>
        <time>2013-01-12T07:52:48Z</time>
      </trkpt>
      <trkpt lat="47.31697" lon="4.94364">
        <ele>471</ele>
        <time>2013-01-12T07:52:52Z</time>
      </trkpt>
      <trkpt lat="47.31694" lon="4.94358">
        <ele>471</ele>
        <time>2013-01-12T07:52:55Z</time>
      </trkpt>
      <trkpt lat="47.31691" lon="4.94352">
        <ele>472</ele>
        <time>2013-01-12T07:52:59Z</time>
      </trkpt>
      <trkpt lat="47.31688" lon="4.94347">
        <ele>472</ele>
        <time>2013-01-12T07:53:02Z</time>
      </trkpt>
      <trkpt lat="47.31684" lon="4.94341">
        <ele>473</ele>
        <time>2013-01-12T07:53:06Z</time>
      </trkpt>
      <trkpt lat="47.31681" lon="4.94336">
        <ele>473</ele>
        <time>2013-01-12T07:53:09Z</time>
      </trkpt>
      <trkpt lat="47.31678" lon="4.94327">
        <ele>472</ele>
        <time>2013-01-12T07:53:12Z</time>
      </trkpt>
      <trkpt lat="47.31675" lon="4.94322">
        <ele>472</ele>
        <time>2013-01-12T07:53:15Z</time>
      </trkpt>
      <trkpt lat="47.31672" lon="4.94315">
        <ele>474</ele>
        <time>2013-01-12T07:53:19Z</time>
      </trkpt>
      <trkpt lat="47.31669" lon="4.94308">
        <ele>474</ele>
        <time>2013-01-12T07:53:22Z</time>
      </trkpt>
      <trkpt lat="47.31665" lon="4.94302">
        <ele>475</ele>
        <time>2013-01-12T07:53:26Z</time>
      </trkpt>
      <trkpt lat="47.31662" lon="4.94295">
        <ele>475</ele>
        <time>2013-01-12T07:53:29Z</time>
      </trkpt>
      <trkpt lat="47.31659" lon="4.94287">
        <ele>475</ele>
        <time>2013-01-12T07:53:32Z</time>
      </trkpt>
      <trkpt lat="47.31657" lon="4.9428">
        <ele>474</ele>
        <time>2013-01-12T07:53:34Z</time>
      </trkpt>
      <trkpt lat="47.31654" lon="4.94274">
        <ele>473</ele>
        <time>2013-01-12T07:53:37Z</time>
      </trkpt>
      <trkpt lat="47.31651" lon="4.94268">
        <ele>475</ele>
        <time>2013-01-12T07:53:41Z</time>
      </trkpt>
      <trkpt lat="47.31648" lon="4.94263">
        <ele>475</ele>
        <time>2013-01-12T07:53:45Z</time>
      </trkpt>
      <trkpt lat="47.31645" lon="4.94256">
        <ele>477</ele>
        <time>2013-01-12T07:53:49Z</time>
      </trkpt>
      <trkpt lat="47.31643" lon="4.94249">
        <ele>476</ele>
        <time>2013-01-12T07:53:52Z</time>
      </trkpt>
      <trkpt lat="47.31639" lon="4.94243">
        <ele>478</ele>
        <time>2013-01-12T07:53:56Z</time>
      </trkpt>
      <trkpt lat="47.31636" lon="4.94237">
        <ele>478</ele>
        <time>2013-01-12T07:54:00Z</time>
      </trkpt>
      <trkpt lat="47.31632" lon="4.94229">
        <ele>477</ele>
        <time>2013-01-12T07:54:03Z</time>
      </trkpt>
      <trkpt lat="47.31628" lon="4.94224">
        <ele>477</ele>
        <time>2013-01-12T07:54:06Z</time>
      </trkpt>
      <trkpt lat="47.31625" lon="4.94217">
        <ele>475</ele>
        <time>2013-01-12T07:54:10Z</time>
      </trkpt>
      <trkpt lat="47.31619" lon="4.94212">
        <ele>475</ele>
        <time>2013-01-12T07:54:14Z</time>
      </trkpt>
      <trkpt lat="47.31614" lon="4.94207">
        <ele>474</ele>
        <time>2013-01-12T07:54:17Z</time>
      </trkpt>
      <trkpt lat="47.31609" lon="4.94202">
        <ele>473</ele>
        <time>2013-01-12T07:54:20Z</time>
      </trkpt>
      <trkpt lat="47.31606" lon="4.94198">
        <ele>473</ele>
        <time>2013-01-12T07:54:23Z</time>
      </trkpt>
      <trkpt lat="47.31601" lon="4.94192">
        <ele>474</ele>
        <time>2013-01-12T07:54:27Z</time>
      </trkpt>
      <trkpt lat="47.31597" lon="4.94185">
        <ele>475</ele>
        <time>2013-01-12T07:54:31Z</time>
      </trkpt>
      <trkpt lat="47.31593" lon="4.94179">
        <ele>476</ele>
        <time>2013-01-12T07:54:35Z</time>
      </trkpt>
      <trkpt lat="47.3159" lon="4.94171">
        <ele>476</ele>
        <time>2013-01-12T07:54:39Z</time>
      </trkpt>
      <trkpt lat="47.31587" lon="4.94164">
        <ele>476</ele>
        <time>2013-01-12T07:54:42Z</time>
      </trkpt>
      <trkpt lat="47.31584" lon="4.94157">
        <ele>476</ele>
        <time>2013-01-12T07:54:46Z</time>
      </trkpt>
      <trkpt lat="47.31581" lon="4.9415">
        <ele>475</ele>
        <time>2013-01-12T07:54:49Z</time>
      </trkpt>
      <trkpt lat="47.3158" lon="4.94143">
        <ele>474</ele>
        <time>2013-01-12T07:54:51Z</time>
      </trkpt>
      <trkpt lat="47.31579" lon="4.94137">
        <ele>473</ele>
        <time>2013-01-12T07:54:53Z</time>
      </trkpt>
      <trkpt lat="47.31574" lon="4.94131">
        <ele>474</ele>
        <time>2013-01-12T07:54:57Z</time>
      </trkpt>
      <trkpt lat="47.31572" lon="4.94125">
        <ele>474</ele>
        <time>2013-01-12T07:55:00Z</time>
      </trkpt>
      <trkpt lat="47.31568" lon="4.9412">
        <ele>475</ele>
        <time>2013-01-12T07:55:03Z</time>
      </trkpt>
      <trkpt lat="47.31566" lon="4.94113">
        <ele>476</ele>
        <time>2013-01-12T07:55:07Z</time>
      </trkpt>
      <trkpt lat="47.31565" lon="4.94105">
        <ele>476</ele>
        <time>2013-01-12T07:55:11Z</time>
      </trkpt>
      <trkpt lat="47.31565" lon="4.94097">
        <ele>475</ele>
        <time>2013-01-12T07:55:14Z</time>
      </trkpt>
      <trkpt lat="47.31566" lon="4.9409">
        <ele>474</ele>
        <time>2013-01-12T07:55:16Z</time>
      </trkpt>
      <trkpt lat="47.31567" lon="4.94083">
        <ele>473</ele>
        <time>2013-01-12T07:55:19Z</time>
      </trkpt>
      <trkpt lat="47.31568" lon="4.94076">
        <ele>472</ele>
        <time>2013-01-12T07:55:22Z</time>
      </trkpt>
      <trkpt lat="47.3157" lon="4.94067">
        <ele>473</ele>
        <time>2013-01-12T07:55:26Z</time>
      </trkpt>
      <trkpt lat="47.31571" lon="4.9406">
        <ele>473</ele>
        <time>2013-01-12T07:55:29Z</time>
      </trkpt>
      <trkpt lat="47.3157" lon="4.9405">
        <ele>472</ele>
        <time>2013-01-12T07:55:33Z</time>
      </trkpt>
      <trkpt lat="47.31568" lon="4.94042">
        <ele>472</ele>
        <time>2013-01-12T07:55:37Z</time>
      </trkpt>
      <trkpt lat="47.31566" lon="4.94036">
        <ele>473</ele>
        <time>2013-01-12T07:55:40Z</time>
      </trkpt>
      <trkpt lat="47.31564" lon="4.94027">
        <ele>473</ele>
        <time>2013-01-12T07:55:44Z</time>
      </trkpt>
      <trkpt lat="47.31562" lon="4.94019">
        <ele>475</ele>
        <time>2013-01-12T07:55:48Z</time>
      </trkpt>
      <trkpt lat="47.31559" lon="4.94012">
        <ele>477</ele>
        <time>2013-01-12T07:55:52Z</time>
      </trkpt>
      <trkpt lat="47.31558" lon="4.94006">
        <ele>476</ele>
        <time>2013-01-12T07:55:55Z</time>
      </trkpt>
      <trkpt lat="47.31556" lon="4.93999">
        <ele>476</ele>
        <time>2013-01-12T07:55:58Z</time>
      </trkpt>
      <trkpt lat="47.31554" lon="4.9399">
        <ele>476</ele>
        <time>2013-01-12T07:56:02Z</time>
      </trkpt>
      <trkpt lat="47.31552" lon="4.93982">
        <ele>474</ele>
        <time>2013-01-12T07:56:05Z</time>
      </trkpt>
      <trkpt lat="47.31551" lon="4.93975">
        <ele>475</ele>
        <time>2013-01-12T07:56:08Z</time>
      </trkpt>
      <trkpt lat="47.31551" lon="4.93967">
        <ele>475</ele>
        <time>2013-01-12T07:56:11Z</time>
      </trkpt>
      <trkpt lat="47.31549" lon="4.9396">
        <ele>475</ele>
        <time>2013-01-12T07:56:14Z</time>
      </trkpt>
      <trkpt lat="47.31548" lon="4.93953">
        <ele>476</ele>
        <time>2013-01-12T07:56:18Z</time>
      </trkpt>
      <trkpt lat="47.31545" lon="4.93945">
        <ele>478</ele>
        <time>2013-01-12T07:56:23Z</time>
      </trkpt>
      <trkpt lat="47.31545" lon="4.93938">
        <ele>478</ele>
        <time>2013-01-12T07:56:26Z</time>
      </trkpt>
      <trkpt lat="47.31543" lon="4.93931">
        <ele>479</ele>
        <time>2013-01-12T07:56:30Z</time>
      </trkpt>
      <trkpt lat="47.31541" lon="4.93923">
        <ele>483</ele>
        <time>2013-01-12T07:56:34Z</time>
      </trkpt>
      <trkpt lat="47.3154" lon="4.93916">
        <ele>482</ele>
        <time>2013-01-12T07:56:36Z</time>
      </trkpt>
      <trkpt lat="47.31539" lon="4.93907">
        <ele>480</ele>
        <time>2013-01-12T07:56:39Z</time>
      </trkpt>
      <trkpt lat="47.31538" lon="4.93899">
        <ele>478</ele>
        <time>2013-01-12T07:56:41Z</time>
      </trkpt>
      <trkpt lat="47.31538" lon="4.93892">
        <ele>478</ele>
        <time>2013-01-12T07:56:44Z</time>
      </trkpt>
      <trkpt lat="47.31538" lon="4.93884">
        <ele>477</ele>
        <time>2013-01-12T07:56:47Z</time>
      </trkpt>
      <trkpt lat="47.3154" lon="4.93877">
        <ele>476</ele>
        <time>2013-01-12T07:56:50Z</time>
      </trkpt>
      <trkpt lat="47.31542" lon="4.9387">
        <ele>475</ele>
        <time>2013-01-12T07:56:53Z</time>
      </trkpt>
      <trkpt lat="47.31544" lon="4.93864">
        <ele>477</ele>
        <time>2013-01-12T07:56:57Z</time>
      </trkpt>
      <trkpt lat="47.31545" lon="4.93857">
        <ele>479</ele>
        <time>2013-01-12T07:57:01Z</time>
      </trkpt>
      <trkpt lat="47.31547" lon="4.93848">
        <ele>477</ele>
        <time>2013-01-12T07:57:03Z</time>
      </trkpt>
      <trkpt lat="47.31548" lon="4.93841">
        <ele>476</ele>
        <time>2013-01-12T07:57:06Z</time>
      </trkpt>
      <trkpt lat="47.31548" lon="4.93833">
        <ele>474</ele>
        <time>2013-01-12T07:57:10Z</time>
      </trkpt>
      <trkpt lat="47.31545" lon="4.93826">
        <ele>474</ele>
        <time>2013-01-12T07:57:14Z</time>
      </trkpt>
      <trkpt lat="47.31542" lon="4.9382">
        <ele>474</ele>
        <time>2013-01-12T07:57:17Z</time>
      </trkpt>
      <trkpt lat="47.31537" lon="4.93817">
        <ele>474</ele>
        <time>2013-01-12T07:57:20Z</time>
      </trkpt>
      <trkpt lat="47.31533" lon="4.93811">
        <ele>474</ele>
        <time>2013-01-12T07:57:24Z</time>
      </trkpt>
      <trkpt lat="47.31529" lon="4.93805">
        <ele>473</ele>
        <time>2013-01-12T07:57:27Z</time>
      </trkpt>
      <trkpt lat="47.31526" lon="4.938">
        <ele>473</ele>
        <time>2013-01-12T07:57:30Z</time>
      </trkpt>
      <trkpt lat="47.31522" lon="4.93794">
        <ele>473</ele>
        <time>2013-01-12T07:57:33Z</time>
      </trkpt>
      <trkpt lat="47.31518" lon="4.93786">
        <ele>473</ele>
        <time>2013-01-12T07:57:36Z</time>
      </trkpt>
      <trkpt lat="47.31515" lon="4.9378">
        <ele>472</ele>
        <time>2013-01-12T07:57:39Z</time>
      </trkpt>
      <trkpt lat="47.3151" lon="4.93775">
        <ele>473</ele>
        <time>2013-01-12T07:57:43Z</time>
      </trkpt>
      <trkpt lat="47.31505" lon="4.93773">
        <ele>475</ele>
        <time>2013-01-12T07:57:47Z</time>
      </trkpt>
      <trkpt lat="47.31502" lon="4.93768">
        <ele>475</ele>
        <time>2013-01-12T07:57:50Z</time>
      </trkpt>
      <trkpt lat="47.31497" lon="4.93764">
        <ele>477</ele>
        <time>2013-01-12T07:57:54Z</time>
      </trkpt>
      <trkpt lat="47.31493" lon="4.93759">
        <ele>477</ele>
        <time>2013-01-12T07:57:57Z</time>
      </trkpt>
      <trkpt lat="47.3149" lon="4.93752">
        <ele>476</ele>
        <time>2013-01-12T07:58:00Z</time>
      </trkpt>
      <trkpt lat="47.31486" lon="4.93746">
        <ele>476</ele>
        <time>2013-01-12T07:58:03Z</time>
      </trkpt>
      <trkpt lat="47.31482" lon="4.93742">
        <ele>476</ele>
        <time>2013-01-12T07:58:06Z</time>
      </trkpt>
      <trkpt lat="47.31478" lon="4.93734">
        <ele>477</ele>
        <time>2013-01-12T07:58:10Z</time>
      </trkpt>
      <trkpt lat="47.31475" lon="4.93729">
        <ele>477</ele>
        <time>2013-01-12T07:58:13Z</time>
      </trkpt>
      <trkpt lat="47.31471" lon="4.93721">
        <ele>477</ele>
        <time>2013-01-12T07:58:16Z</time>
      </trkpt>
      <trkpt lat="47.31468" lon="4.93716">
        <ele>476</ele>
        <time>2013-01-12T07:58:19Z</time>
      </trkpt>
      <trkpt lat="47.31464" lon="4.9371">
        <ele>478</ele>
        <time>2013-01-12T07:58:23Z</time>
      </trkpt>
      <trkpt lat="47.31459" lon="4.93707">
        <ele>479</ele>
        <time>2013-01-12T07:58:27Z</time>
      </trkpt>
      <trkpt lat="47.31455" lon="4.93702">
        <ele>480</ele>
        <time>2013-01-12T07:58:30Z</time>
      </trkpt>
      <trkpt lat="47.31452" lon="4.93695">
        <ele>479</ele>
        <time>2013-01-12T07:58:33Z</time>
      </trkpt>
      <trkpt lat="47.31449" lon="4.9369">
        <ele>479</ele>
        <time>2013-01-12T07:58:36Z</time>
      </trkpt>
      <trkpt lat="47.31445" lon="4.93684">
        <ele>479</ele>
        <time>2013-01-12T07:58:39Z</time>
      </trkpt>
      <trkpt lat="47.31441" lon="4.93677">
        <ele>478</ele>
        <time>2013-01-12T07:58:42Z</time>
      </trkpt>
      <trkpt lat="47.31438" lon="4.93672">
        <ele>477</ele>
        <time>2013-01-12T07:58:45Z</time>
      </trkpt>
      <trkpt lat="47.31436" lon="4.93664">
        <ele>477</ele>
        <time>2013-01-12T07:58:48Z</time>
      </trkpt>
      <trkpt lat="47.31431" lon="4.93659">
        <ele>478</ele>
        <time>2013-01-12T07:58:52Z</time>
      </trkpt>
      <trkpt lat="47.31427" lon="4.93653">
        <ele>478</ele>
        <time>2013-01-12T07:58:55Z</time>
      </trkpt>
      <trkpt lat="47.31424" lon="4.93646">
        <ele>477</ele>
        <time>2013-01-12T07:58:58Z</time>
      </trkpt>
      <trkpt lat="47.3142" lon="4.93639">
        <ele>476</ele>
        <time>2013-01-12T07:59:01Z</time>
      </trkpt>
      <trkpt lat="47.31416" lon="4.93635">
        <ele>479</ele>
        <time>2013-01-12T07:59:05Z</time>
      </trkpt>
      <trkpt lat="47.31412" lon="4.93629">
        <ele>481</ele>
        <time>2013-01-12T07:59:09Z</time>
      </trkpt>
      <trkpt lat="47.31409" lon="4.93624">
        <ele>482</ele>
        <time>2013-01-12T07:59:13Z</time>
      </trkpt>
      <trkpt lat="47.31403" lon="4.93619">
        <ele>483</ele>
        <time>2013-01-12T07:59:17Z</time>
      </trkpt>
      <trkpt lat="47.31398" lon="4.93614">
        <ele>483</ele>
        <time>2013-01-12T07:59:21Z</time>
      </trkpt>
      <trkpt lat="47.31394" lon="4.9361">
        <ele>484</ele>
        <time>2013-01-12T07:59:26Z</time>
      </trkpt>
      <trkpt lat="47.31389" lon="4.93606">
        <ele>487</ele>
        <time>2013-01-12T07:59:29Z</time>
      </trkpt>
      <trkpt lat="47.31385" lon="4.93602">
        <ele>487</ele>
        <time>2013-01-12T07:59:32Z</time>
      </trkpt>
      <trkpt lat="47.31381" lon="4.93597">
        <ele>488</ele>
        <time>2013-01-12T07:59:36Z</time>
      </trkpt>
      <trkpt lat="47.31376" lon="4.93592">
        <ele>488</ele>
        <time>2013-01-12T07:59:40Z</time>
      </trkpt>
      <trkpt lat="47.3137" lon="4.93586">
        <ele>488</ele>
        <time>2013-01-12T07:59:44Z</time>
      </trkpt>
      <trkpt lat="47.31366" lon="4.93582">
        <ele>488</ele>
        <time>2013-01-12T07:59:47Z</time>
      </trkpt>
      <trkpt lat="47.31361" lon="4.93579">
        <ele>488</ele>
        <time>2013-01-12T07:59:50Z</time>
      </trkpt>
      <trkpt lat="47.31357" lon="4.93574">
        <ele>488</ele>
        <time>2013-01-12T07:59:53Z</time>
      </trkpt>
      <trkpt lat="47.31356" lon="4.93567">
        <ele>488</ele>
        <time>2013-01-12T07:59:56Z</time>
      </trkpt>
      <trkpt lat="47.31351" lon="4.9356">
        <ele>487</ele>
        <time>2013-01-12T07:59:59Z</time>
      </trkpt>
      <trkpt lat="47.31348" lon="4.93555">
        <ele>487</ele>
        <time>2013-01-12T08:00:02Z</time>
      </trkpt>
      <trkpt lat="47.31343" lon="4.9355">
        <ele>488</ele>
        <time>2013-01-12T08:00:06Z</time>
      </trkpt>
      <trkpt lat="47.3134" lon="4.93546">
        <ele>488</ele>
        <time>2013-01-12T08:00:09Z</time>
      </trkpt>
      <trkpt lat="47.31334" lon="4.93542">
        <ele>489</ele>
        <time>2013-01-12T08:00:16Z</time>
      </trkpt>
      <trkpt lat="47.31328" lon="4.9354">
        <ele>490</ele>
        <time>2013-01-12T08:00:21Z</time>
      </trkpt>
      <trkpt lat="47.31323" lon="4.93534">
        <ele>490</ele>
        <time>2013-01-12T08:00:24Z</time>
      </trkpt>
      <trkpt lat="47.31319" lon="4.9353">
        <ele>492</ele>
        <time>2013-01-12T08:00:26Z</time>
      </trkpt>
      <trkpt lat="47.31314" lon="4.93526">
        <ele>490</ele>
        <time>2013-01-12T08:00:28Z</time>
      </trkpt>
      <trkpt lat="47.31308" lon="4.93522">
        <ele>489</ele>
        <time>2013-01-12T08:00:31Z</time>
      </trkpt>
      <trkpt lat="47.31303" lon="4.93518">
        <ele>488</ele>
        <time>2013-01-12T08:00:33Z</time>
      </trkpt>
      <trkpt lat="47.31299" lon="4.93515">
        <ele>487</ele>
        <time>2013-01-12T08:00:35Z</time>
      </trkpt>
      <trkpt lat="47.31294" lon="4.93509">
        <ele>487</ele>
        <time>2013-01-12T08:00:39Z</time>
      </trkpt>
      <trkpt lat="47.31288" lon="4.93503">
        <ele>488</ele>
        <time>2013-01-12T08:00:42Z</time>
      </trkpt>
      <trkpt lat="47.31284" lon="4.93497">
        <ele>489</ele>
        <time>2013-01-12T08:00:45Z</time>
      </trkpt>
      <trkpt lat="47.31279" lon="4.93492">
        <ele>490</ele>
        <time>2013-01-12T08:00:48Z</time>
      </trkpt>
      <trkpt lat="47.31275" lon="4.93486">
        <ele>488</ele>
        <time>2013-01-12T08:00:51Z</time>
      </trkpt>
      <trkpt lat="47.31269" lon="4.93481">
        <ele>487</ele>
        <time>2013-01-12T08:00:55Z</time>
      </trkpt>
      <trkpt lat="47.31265" lon="4.93478">
        <ele>487</ele>
        <time>2013-01-12T08:00:58Z</time>
      </trkpt>
      <trkpt lat="47.3126" lon="4.93475">
        <ele>486</ele>
        <time>2013-01-12T08:01:01Z</time>
      </trkpt>
      <trkpt lat="47.31255" lon="4.93472">
        <ele>486</ele>
        <time>2013-01-12T08:01:04Z</time>
      </trkpt>
      <trkpt lat="47.3125" lon="4.93466">
        <ele>486</ele>
        <time>2013-01-12T08:01:08Z</time>
      </trkpt>
      <trkpt lat="47.31246" lon="4.93461">
        <ele>485</ele>
        <time>2013-01-12T08:01:11Z</time>
      </trkpt>
      <trkpt lat="47.31241" lon="4.93456">
        <ele>483</ele>
        <time>2013-01-12T08:01:14Z</time>
      </trkpt>
      <trkpt lat="47.31236" lon="4.93451">
        <ele>482</ele>
        <time>2013-01-12T08:01:17Z</time>
      </trkpt>
      <trkpt lat="47.31231" lon="4.93448">
        <ele>482</ele>
        <time>2013-01-12T08:01:20Z</time>
      </trkpt>
      <trkpt lat="47.31227" lon="4.9344">
        <ele>480</ele>
        <time>2013-01-12T08:01:24Z</time>
      </trkpt>
      <trkpt lat="47.31222" lon="4.93435">
        <ele>478</ele>
        <time>2013-01-12T08:01:27Z</time>
      </trkpt>
      <trkpt lat="47.3122" lon="4.93429">
        <ele>479</ele>
        <time>2013-01-12T08:01:30Z</time>
      </trkpt>
      <trkpt lat="47.31219" lon="4.93421">
        <ele>479</ele>
        <time>2013-01-12T08:01:33Z</time>
      </trkpt>
      <trkpt lat="47.31214" lon="4.93417">
        <ele>480</ele>
        <time>2013-01-12T08:01:37Z</time>
      </trkpt>
      <trkpt lat="47.31212" lon="4.93409">
        <ele>480</ele>
        <time>2013-01-12T08:01:41Z</time>
      </trkpt>
      <trkpt lat="47.31211" lon="4.93402">
        <ele>480</ele>
        <time>2013-01-12T08:01:44Z</time>
      </trkpt>
      <trkpt lat="47.31207" lon="4.93395">
        <ele>478</ele>
        <time>2013-01-12T08:01:46Z</time>
      </trkpt>
      <trkpt lat="47.31205" lon="4.93387">
        <ele>479</ele>
        <time>2013-01-12T08:01:49Z</time>
      </trkpt>
      <trkpt lat="47.31202" lon="4.9338">
        <ele>478</ele>
        <time>2013-01-12T08:01:53Z</time>
      </trkpt>
      <trkpt lat="47.31201" lon="4.93374">
        <ele>479</ele>
        <time>2013-01-12T08:01:56Z</time>
      </trkpt>
      <trkpt lat="47.31196" lon="4.93371">
        <ele>476</ele>
        <time>2013-01-12T08:01:59Z</time>
      </trkpt>
      <trkpt lat="47.31194" lon="4.93363">
        <ele>477</ele>
        <time>2013-01-12T08:02:03Z</time>
      </trkpt>
      <trkpt lat="47.31192" lon="4.93355">
        <ele>479</ele>
        <time>2013-01-12T08:02:06Z</time>
      </trkpt>
      <trkpt lat="47.31192" lon="4.93347">
        <ele>481</ele>
        <time>2013-01-12T08:02:09Z</time>
      </trkpt>
      <trkpt lat="47.3119" lon="4.93339">
        <ele>480</ele>
        <time>2013-01-12T08:02:12Z</time>
      </trkpt>
      <trkpt lat="47.31188" lon="4.9333">
        <ele>480</ele>
        <time>2013-01-12T08:02:16Z</time>
      </trkpt>
      <trkpt lat="47.31188" lon="4.93323">
        <ele>479</ele>
        <time>2013-01-12T08:02:18Z</time>
      </trkpt>
      <trkpt lat="47.31186" lon="4.93314">
        <ele>479</ele>
        <time>2013-01-12T08:02:21Z</time>
      </trkpt>
      <trkpt lat="47.31183" lon="4.93308">
        <ele>478</ele>
        <time>2013-01-12T08:02:25Z</time>
      </trkpt>
      <trkpt lat="47.3118" lon="4.93301">
        <ele>477</ele>
        <time>2013-01-12T08:02:28Z</time>
      </trkpt>
      <trkpt lat="47.31177" lon="4.93294">
        <ele>478</ele>
        <time>2013-01-12T08:02:31Z</time>
      </trkpt>
      <trkpt lat="47.31175" lon="4.93286">
        <ele>478</ele>
        <time>2013-01-12T08:02:34Z</time>
      </trkpt>
      <trkpt lat="47.31172" lon="4.93279">
        <ele>478</ele>
        <time>2013-01-12T08:02:38Z</time>
      </trkpt>
      <trkpt lat="47.3117" lon="4.93272">
        <ele>476</ele>
        <time>2013-01-12T08:02:41Z</time>
      </trkpt>
      <trkpt lat="47.31167" lon="4.93266">
        <ele>477</ele>
        <time>2013-01-12T08:02:44Z</time>
      </trkpt>
      <trkpt lat="47.31167" lon="4.93252">
        <ele>475</ele>
        <time>2013-01-12T08:02:48Z</time>
      </trkpt>
      <trkpt lat="47.31168" lon="4.93243">
        <ele>473</ele>
        <time>2013-01-12T08:02:50Z</time>
      </trkpt>
      <trkpt lat="47.31162" lon="4.93245">
        <ele>475</ele>
        <time>2013-01-12T08:03:02Z</time>
      </trkpt>
      <trkpt lat="47.31158" lon="4.9325">
        <ele>476</ele>
        <time>2013-01-12T08:03:06Z</time>
      </trkpt>
      <trkpt lat="47.31154" lon="4.93253">
        <ele>476</ele>
        <time>2013-01-12T08:03:09Z</time>
      </trkpt>
      <trkpt lat="47.31151" lon="4.9326">
        <ele>479</ele>
        <time>2013-01-12T08:03:14Z</time>
      </trkpt>
      <trkpt lat="47.31145" lon="4.93265">
        <ele>479</ele>
        <time>2013-01-12T08:03:18Z</time>
      </trkpt>
      <trkpt lat="47.3114" lon="4.93269">
        <ele>479</ele>
        <time>2013-01-12T08:03:21Z</time>
      </trkpt>
      <trkpt lat="47.31136" lon="4.93274">
        <ele>480</ele>
        <time>2013-01-12T08:03:26Z</time>
      </trkpt>
      <trkpt lat="47.31131" lon="4.93281">
        <ele>478</ele>
        <time>2013-01-12T08:03:29Z</time>
      </trkpt>
      <trkpt lat="47.31128" lon="4.93285">
        <ele>477</ele>
        <time>2013-01-12T08:03:31Z</time>
      </trkpt>
      <trkpt lat="47.31126" lon="4.93291">
        <ele>478</ele>
        <time>2013-01-12T08:03:34Z</time>
      </trkpt>
      <trkpt lat="47.31123" lon="4.93297">
        <ele>478</ele>
        <time>2013-01-12T08:03:38Z</time>
      </trkpt>
      <trkpt lat="47.3112" lon="4.93302">
        <ele>481</ele>
        <time>2013-01-12T08:03:42Z</time>
      </trkpt>
      <trkpt lat="47.31117" lon="4.93309">
        <ele>483</ele>
        <time>2013-01-12T08:03:46Z</time>
      </trkpt>
      <trkpt lat="47.31112" lon="4.93314">
        <ele>484</ele>
        <time>2013-01-12T08:03:50Z</time>
      </trkpt>
      <trkpt lat="47.31107" lon="4.93317">
        <ele>482</ele>
        <time>2013-01-12T08:03:52Z</time>
      </trkpt>
      <trkpt lat="47.311" lon="4.93318">
        <ele>480</ele>
        <time>2013-01-12T08:03:55Z</time>
      </trkpt>
      <trkpt lat="47.31095" lon="4.93317">
        <ele>479</ele>
        <time>2013-01-12T08:03:58Z</time>
      </trkpt>
      <trkpt lat="47.3109" lon="4.93313">
        <ele>478</ele>
        <time>2013-01-12T08:04:03Z</time>
      </trkpt>
      <trkpt lat="47.31084" lon="4.9331">
        <ele>477</ele>
        <time>2013-01-12T08:04:06Z</time>
      </trkpt>
      <trkpt lat="47.31079" lon="4.93306">
        <ele>477</ele>
        <time>2013-01-12T08:04:10Z</time>
      </trkpt>
      <trkpt lat="47.31075" lon="4.93303">
        <ele>475</ele>
        <time>2013-01-12T08:04:12Z</time>
      </trkpt>
      <trkpt lat="47.31071" lon="4.93297">
        <ele>476</ele>
        <time>2013-01-12T08:04:16Z</time>
      </trkpt>
      <trkpt lat="47.31067" lon="4.93293">
        <ele>479</ele>
        <time>2013-01-12T08:04:23Z</time>
      </trkpt>
      <trkpt lat="47.31062" lon="4.93294">
        <ele>479</ele>
        <time>2013-01-12T08:04:25Z</time>
      </trkpt>
      <trkpt lat="47.31055" lon="4.93292">
        <ele>478</ele>
        <time>2013-01-12T08:04:27Z</time>
      </trkpt>
      <trkpt lat="47.3105" lon="4.93291">
        <ele>478</ele>
        <time>2013-01-12T08:04:30Z</time>
      </trkpt>
      <trkpt lat="47.31047" lon="4.93286">
        <ele>478</ele>
        <time>2013-01-12T08:04:34Z</time>
      </trkpt>
      <trkpt lat="47.31041" lon="4.93284">
        <ele>480</ele>
        <time>2013-01-12T08:04:41Z</time>
      </trkpt>
      <trkpt lat="47.31036" lon="4.93286">
        <ele>481</ele>
        <time>2013-01-12T08:04:44Z</time>
      </trkpt>
      <trkpt lat="47.3103" lon="4.93286">
        <ele>481</ele>
        <time>2013-01-12T08:04:46Z</time>
      </trkpt>
      <trkpt lat="47.31026" lon="4.93284">
        <ele>484</ele>
        <time>2013-01-12T08:04:49Z</time>
      </trkpt>
      <trkpt lat="47.3102" lon="4.93284">
        <ele>485</ele>
        <time>2013-01-12T08:04:52Z</time>
      </trkpt>
      <trkpt lat="47.31015" lon="4.93283">
        <ele>485</ele>
        <time>2013-01-12T08:04:55Z</time>
      </trkpt>
      <trkpt lat="47.31009" lon="4.93282">
        <ele>484</ele>
        <time>2013-01-12T08:04:58Z</time>
      </trkpt>
      <trkpt lat="47.31004" lon="4.93281">
        <ele>483</ele>
        <time>2013-01-12T08:05:02Z</time>
      </trkpt>
      <trkpt lat="47.30997" lon="4.93281">
        <ele>482</ele>
        <time>2013-01-12T08:05:05Z</time>
      </trkpt>
      <trkpt lat="47.30992" lon="4.93281">
        <ele>482</ele>
        <time>2013-01-12T08:05:08Z</time>
      </trkpt>
      <trkpt lat="47.30986" lon="4.93283">
        <ele>482</ele>
        <time>2013-01-12T08:05:10Z</time>
      </trkpt>
      <trkpt lat="47.30981" lon="4.93284">
        <ele>482</ele>
        <time>2013-01-12T08:05:12Z</time>
      </trkpt>
      <trkpt lat="47.30977" lon="4.93279">
        <ele>479</ele>
        <time>2013-01-12T08:05:18Z</time>
      </trkpt>
      <trkpt lat="47.30977" lon="4.93279">
        <ele>479</ele>
        <time>2013-01-12T08:05:18Z</time>
      </trkpt>
      <trkpt lat="47.30977" lon="4.93279">
        <ele>480</ele>
        <time>2013-01-12T08:05:20Z</time>
      </trkpt>
      <trkpt lat="47.30978" lon="4.9327">
        <ele>479</ele>
        <time>2013-01-12T08:05:25Z</time>
      </trkpt>
      <trkpt lat="47.30979" lon="4.93263">
        <ele>479</ele>
        <time>2013-01-12T08:05:29Z</time>
      </trkpt>
      <trkpt lat="47.30982" lon="4.93256">
        <ele>479</ele>
        <time>2013-01-12T08:05:32Z</time>
      </trkpt>
      <trkpt lat="47.30986" lon="4.93248">
        <ele>475</ele>
        <time>2013-01-12T08:05:33Z</time>
      </trkpt>
      <trkpt lat="47.30989" lon="4.93242">
        <ele>474</ele>
        <time>2013-01-12T08:05:35Z</time>
      </trkpt>
      <trkpt lat="47.30991" lon="4.93235">
        <ele>474</ele>
        <time>2013-01-12T08:05:38Z</time>
      </trkpt>
      <trkpt lat="47.30992" lon="4.93226">
        <ele>472</ele>
        <time>2013-01-12T08:05:41Z</time>
      </trkpt>
      <trkpt lat="47.30993" lon="4.9322">
        <ele>471</ele>
        <time>2013-01-12T08:05:43Z</time>
      </trkpt>
      <trkpt lat="47.30991" lon="4.93213">
        <ele>471</ele>
        <time>2013-01-12T08:05:47Z</time>
      </trkpt>
      <trkpt lat="47.30991" lon="4.93206">
        <ele>471</ele>
        <time>2013-01-12T08:05:51Z</time>
      </trkpt>
      <trkpt lat="47.30985" lon="4.93207">
        <ele>470</ele>
        <time>2013-01-12T08:05:54Z</time>
      </trkpt>
      <trkpt lat="47.30981" lon="4.93211">
        <ele>471</ele>
        <time>2013-01-12T08:05:58Z</time>
      </trkpt>
      <trkpt lat="47.30976" lon="4.93213">
        <ele>473</ele>
        <time>2013-01-12T08:06:01Z</time>
      </trkpt>
      <trkpt lat="47.30971" lon="4.93214">
        <ele>474</ele>
        <time>2013-01-12T08:06:04Z</time>
      </trkpt>
      <trkpt lat="47.30966" lon="4.93215">
        <ele>474</ele>
        <time>2013-01-12T08:06:07Z</time>
      </trkpt>
      <trkpt lat="47.30961" lon="4.93215">
        <ele>476</ele>
        <time>2013-01-12T08:06:11Z</time>
      </trkpt>
      <trkpt lat="47.30956" lon="4.93212">
        <ele>476</ele>
        <time>2013-01-12T08:06:14Z</time>
      </trkpt>
      <trkpt lat="47.3095" lon="4.93214">
        <ele>476</ele>
        <time>2013-01-12T08:06:17Z</time>
      </trkpt>
      <trkpt lat="47.30944" lon="4.93215">
        <ele>476</ele>
        <time>2013-01-12T08:06:19Z</time>
      </trkpt>
      <trkpt lat="47.30939" lon="4.93211">
        <ele>475</ele>
        <time>2013-01-12T08:06:22Z</time>
      </trkpt>
      <trkpt lat="47.30934" lon="4.93207">
        <ele>476</ele>
        <time>2013-01-12T08:06:25Z</time>
      </trkpt>
      <trkpt lat="47.30931" lon="4.93198">
        <ele>473</ele>
        <time>2013-01-12T08:06:28Z</time>
      </trkpt>
      <trkpt lat="47.30928" lon="4.93191">
        <ele>472</ele>
        <time>2013-01-12T08:06:31Z</time>
      </trkpt>
      <trkpt lat="47.30928" lon="4.93183">
        <ele>473</ele>
        <time>2013-01-12T08:06:35Z</time>
      </trkpt>
      <trkpt lat="47.30926" lon="4.93175">
        <ele>472</ele>
        <time>2013-01-12T08:06:39Z</time>
      </trkpt>
      <trkpt lat="47.30925" lon="4.93166">
        <ele>472</ele>
        <time>2013-01-12T08:06:42Z</time>
      </trkpt>
      <trkpt lat="47.30923" lon="4.93159">
        <ele>471</ele>
        <time>2013-01-12T08:06:45Z</time>
      </trkpt>
      <trkpt lat="47.30921" lon="4.93152">
        <ele>473</ele>
        <time>2013-01-12T08:06:48Z</time>
      </trkpt>
      <trkpt lat="47.30919" lon="4.93143">
        <ele>472</ele>
        <time>2013-01-12T08:06:51Z</time>
      </trkpt>
      <trkpt lat="47.30917" lon="4.93136">
        <ele>472</ele>
        <time>2013-01-12T08:06:55Z</time>
      </trkpt>
      <trkpt lat="47.30914" lon="4.9313">
        <ele>472</ele>
        <time>2013-01-12T08:06:58Z</time>
      </trkpt>
      <trkpt lat="47.30911" lon="4.93124">
        <ele>471</ele>
        <time>2013-01-12T08:07:01Z</time>
      </trkpt>
      <trkpt lat="47.30908" lon="4.93119">
        <ele>472</ele>
        <time>2013-01-12T08:07:05Z</time>
      </trkpt>
      <trkpt lat="47.30904" lon="4.93114">
        <ele>473</ele>
        <time>2013-01-12T08:07:08Z</time>
      </trkpt>
      <trkpt lat="47.309" lon="4.93111">
        <ele>475</ele>
        <time>2013-01-12T08:07:12Z</time>
      </trkpt>
      <trkpt lat="47.30895" lon="4.93106">
        <ele>474</ele>
        <time>2013-01-12T08:07:15Z</time>
      </trkpt>
      <trkpt lat="47.3089" lon="4.93104">
        <ele>475</ele>
        <time>2013-01-12T08:07:18Z</time>
      </trkpt>
      <trkpt lat="47.30886" lon="4.93101">
        <ele>475</ele>
        <time>2013-01-12T08:07:21Z</time>
      </trkpt>
      <trkpt lat="47.30882" lon="4.93097">
        <ele>476</ele>
        <time>2013-01-12T08:07:24Z</time>
      </trkpt>
      <trkpt lat="47.30878" lon="4.93092">
        <ele>476</ele>
        <time>2013-01-12T08:07:27Z</time>
      </trkpt>
      <trkpt lat="47.30874" lon="4.93087">
        <ele>476</ele>
        <time>2013-01-12T08:07:30Z</time>
      </trkpt>
      <trkpt lat="47.30872" lon="4.9308">
        <ele>476</ele>
        <time>2013-01-12T08:07:32Z</time>
      </trkpt>
      <trkpt lat="47.3087" lon="4.93071">
        <ele>475</ele>
        <time>2013-01-12T08:07:35Z</time>
      </trkpt>
      <trkpt lat="47.30868" lon="4.93065">
        <ele>474</ele>
        <time>2013-01-12T08:07:37Z</time>
      </trkpt>
      <trkpt lat="47.30866" lon="4.93057">
        <ele>474</ele>
        <time>2013-01-12T08:07:40Z</time>
      </trkpt>
      <trkpt lat="47.30863" lon="4.93048">
        <ele>474</ele>
        <time>2013-01-12T08:07:44Z</time>
      </trkpt>
      <trkpt lat="47.30861" lon="4.93039">
        <ele>474</ele>
        <time>2013-01-12T08:07:47Z</time>
      </trkpt>
      <trkpt lat="47.30858" lon="4.93033">
        <ele>475</ele>
        <time>2013-01-12T08:07:51Z</time>
      </trkpt>
      <trkpt lat="47.30854" lon="4.93026">
        <ele>476</ele>
        <time>2013-01-12T08:07:55Z</time>
      </trkpt>
      <trkpt lat="47.3085" lon="4.9302">
        <ele>478</ele>
        <time>2013-01-12T08:07:59Z</time>
      </trkpt>
      <trkpt lat="47.30848" lon="4.93013">
        <ele>478</ele>
        <time>2013-01-12T08:08:02Z</time>
      </trkpt>
      <trkpt lat="47.30845" lon="4.93007">
        <ele>477</ele>
        <time>2013-01-12T08:08:05Z</time>
      </trkpt>
      <trkpt lat="47.30842" lon="4.92999">
        <ele>477</ele>
        <time>2013-01-12T08:08:08Z</time>
      </trkpt>
      <trkpt lat="47.30839" lon="4.92992">
        <ele>476</ele>
        <time>2013-01-12T08:08:11Z</time>
      </trkpt>
      <trkpt lat="47.30838" lon="4.92983">
        <ele>475</ele>
        <time>2013-01-12T08:08:14Z</time>
      </trkpt>
      <trkpt lat="47.30835" lon="4.92973">
        <ele>473</ele>
        <time>2013-01-12T08:08:17Z</time>
      </trkpt>
      <trkpt lat="47.30834" lon="4.92964">
        <ele>471</ele>
        <time>2013-01-12T08:08:19Z</time>
      </trkpt>
      <trkpt lat="47.30833" lon="4.92957">
        <ele>470</ele>
        <time>2013-01-12T08:08:21Z</time>
      </trkpt>
      <trkpt lat="47.30832" lon="4.92948">
        <ele>469</ele>
        <time>2013-01-12T08:08:23Z</time>
      </trkpt>
      <trkpt lat="47.3083" lon="4.92941">
        <ele>468</ele>
        <time>2013-01-12T08:08:26Z</time>
      </trkpt>
      <trkpt lat="47.3083" lon="4.92933">
        <ele>467</ele>
        <time>2013-01-12T08:08:29Z</time>
      </trkpt>
      <trkpt lat="47.30828" lon="4.92926">
        <ele>467</ele>
        <time>2013-01-12T08:08:32Z</time>
      </trkpt>
      <trkpt lat="47.30826" lon="4.92919">
        <ele>467</ele>
        <time>2013-01-12T08:08:35Z</time>
      </trkpt>
      <trkpt lat="47.30822" lon="4.92913">
        <ele>467</ele>
        <time>2013-01-12T08:08:39Z</time>
      </trkpt>
      <trkpt lat="47.30818" lon="4.92907">
        <ele>468</ele>
        <time>2013-01-12T08:08:42Z</time>
      </trkpt>
      <trkpt lat="47.30813" lon="4.92905">
        <ele>469</ele>
        <time>2013-01-12T08:08:46Z</time>
      </trkpt>
      <trkpt lat="47.30808" lon="4.92902">
        <ele>469</ele>
        <time>2013-01-12T08:08:49Z</time>
      </trkpt>
      <trkpt lat="47.30804" lon="4.929">
        <ele>470</ele>
        <time>2013-01-12T08:08:52Z</time>
      </trkpt>
      <trkpt lat="47.30799" lon="4.92899">
        <ele>470</ele>
        <time>2013-01-12T08:08:55Z</time>
      </trkpt>
      <trkpt lat="47.30794" lon="4.92894">
        <ele>470</ele>
        <time>2013-01-12T08:08:58Z</time>
      </trkpt>
      <trkpt lat="47.3079" lon="4.92894">
        <ele>470</ele>
        <time>2013-01-12T08:09:01Z</time>
      </trkpt>
      <trkpt lat="47.30785" lon="4.92894">
        <ele>470</ele>
        <time>2013-01-12T08:09:05Z</time>
      </trkpt>
      <trkpt lat="47.3078" lon="4.92895">
        <ele>471</ele>
        <time>2013-01-12T08:09:08Z</time>
      </trkpt>
      <trkpt lat="47.30776" lon="4.92899">
        <ele>472</ele>
        <time>2013-01-12T08:09:11Z</time>
      </trkpt>
      <trkpt lat="47.3077" lon="4.92902">
        <ele>472</ele>
        <time>2013-01-12T08:09:15Z</time>
      </trkpt>
      <trkpt lat="47.30765" lon="4.92905">
        <ele>472</ele>
        <time>2013-01-12T08:09:19Z</time>
      </trkpt>
      <trkpt lat="47.30762" lon="4.92908">
        <ele>472</ele>
        <time>2013-01-12T08:09:22Z</time>
      </trkpt>
      <trkpt lat="47.30757" lon="4.92912">
        <ele>472</ele>
        <time>2013-01-12T08:09:25Z</time>
      </trkpt>
      <trkpt lat="47.30752" lon="4.92914">
        <ele>472</ele>
        <time>2013-01-12T08:09:28Z</time>
      </trkpt>
      <trkpt lat="47.30747" lon="4.9292">
        <ele>472</ele>
        <time>2013-01-12T08:09:31Z</time>
      </trkpt>
      <trkpt lat="47.30743" lon="4.92925">
        <ele>472</ele>
        <time>2013-01-12T08:09:33Z</time>
      </trkpt>
      <trkpt lat="47.3074" lon="4.92931">
        <ele>472</ele>
        <time>2013-01-12T08:09:38Z</time>
      </trkpt>
      <trkpt lat="47.30734" lon="4.92935">
        <ele>472</ele>
        <time>2013-01-12T08:09:41Z</time>
      </trkpt>
      <trkpt lat="47.3073" lon="4.92937">
        <ele>471</ele>
        <time>2013-01-12T08:09:43Z</time>
      </trkpt>
      <trkpt lat="47.30725" lon="4.92941">
        <ele>471</ele>
        <time>2013-01-12T08:09:45Z</time>
      </trkpt>
      <trkpt lat="47.30718" lon="4.92942">
        <ele>470</ele>
        <time>2013-01-12T08:09:48Z</time>
      </trkpt>
      <trkpt lat="47.30711" lon="4.92946">
        <ele>471</ele>
        <time>2013-01-12T08:09:52Z</time>
      </trkpt>
      <trkpt lat="47.30705" lon="4.9295">
        <ele>471</ele>
        <time>2013-01-12T08:09:55Z</time>
      </trkpt>
      <trkpt lat="47.307" lon="4.92955">
        <ele>470</ele>
        <time>2013-01-12T08:09:58Z</time>
      </trkpt>
      <trkpt lat="47.30695" lon="4.92957">
        <ele>470</ele>
        <time>2013-01-12T08:10:00Z</time>
      </trkpt>
      <trkpt lat="47.30689" lon="4.9296">
        <ele>470</ele>
        <time>2013-01-12T08:10:03Z</time>
      </trkpt>
      <trkpt lat="47.30684" lon="4.92963">
        <ele>469</ele>
        <time>2013-01-12T08:10:06Z</time>
      </trkpt>
      <trkpt lat="47.30681" lon="4.92967">
        <ele>470</ele>
        <time>2013-01-12T08:10:10Z</time>
      </trkpt>
      <trkpt lat="47.30677" lon="4.92973">
        <ele>471</ele>
        <time>2013-01-12T08:10:14Z</time>
      </trkpt>
      <trkpt lat="47.30671" lon="4.92976">
        <ele>471</ele>
        <time>2013-01-12T08:10:17Z</time>
      </trkpt>
      <trkpt lat="47.30666" lon="4.92979">
        <ele>473</ele>
        <time>2013-01-12T08:10:25Z</time>
      </trkpt>
      <trkpt lat="47.30663" lon="4.92985">
        <ele>473</ele>
        <time>2013-01-12T08:10:29Z</time>
      </trkpt>
      <trkpt lat="47.30661" lon="4.92993">
        <ele>473</ele>
        <time>2013-01-12T08:10:32Z</time>
      </trkpt>
      <trkpt lat="47.30658" lon="4.92999">
        <ele>473</ele>
        <time>2013-01-12T08:10:36Z</time>
      </trkpt>
      <trkpt lat="47.30655" lon="4.93005">
        <ele>473</ele>
        <time>2013-01-12T08:10:39Z</time>
      </trkpt>
      <trkpt lat="47.30652" lon="4.93011">
        <ele>475</ele>
        <time>2013-01-12T08:10:42Z</time>
      </trkpt>
      <trkpt lat="47.30648" lon="4.93018">
        <ele>474</ele>
        <time>2013-01-12T08:10:44Z</time>
      </trkpt>
      <trkpt lat="47.30645" lon="4.93023">
        <ele>475</ele>
        <time>2013-01-12T08:10:47Z</time>
      </trkpt>
      <trkpt lat="47.30642" lon="4.9303">
        <ele>475</ele>
        <time>2013-01-12T08:10:51Z</time>
      </trkpt>
      <trkpt lat="47.30639" lon="4.93038">
        <ele>476</ele>
        <time>2013-01-12T08:10:55Z</time>
      </trkpt>
      <trkpt lat="47.30636" lon="4.93045">
        <ele>475</ele>
        <time>2013-01-12T08:10:59Z</time>
      </trkpt>
      <trkpt lat="47.30633" lon="4.93052">
        <ele>475</ele>
        <time>2013-01-12T08:11:02Z</time>
      </trkpt>
      <trkpt lat="47.3063" lon="4.9306">
        <ele>475</ele>
        <time>2013-01-12T08:11:06Z</time>
      </trkpt>
      <trkpt lat="47.3063" lon="4.93067">
        <ele>475</ele>
        <time>2013-01-12T08:11:09Z</time>
      </trkpt>
      <trkpt lat="47.30631" lon="4.93076">
        <ele>474</ele>
        <time>2013-01-12T08:11:12Z</time>
      </trkpt>
      <trkpt lat="47.30629" lon="4.93082">
        <ele>472</ele>
        <time>2013-01-12T08:11:14Z</time>
      </trkpt>
      <trkpt lat="47.30629" lon="4.93091">
        <ele>471</ele>
        <time>2013-01-12T08:11:17Z</time>
      </trkpt>
      <trkpt lat="47.30628" lon="4.93097">
        <ele>470</ele>
        <time>2013-01-12T08:11:20Z</time>
      </trkpt>
      <trkpt lat="47.30628" lon="4.93106">
        <ele>472</ele>
        <time>2013-01-12T08:11:23Z</time>
      </trkpt>
      <trkpt lat="47.30625" lon="4.93112">
        <ele>474</ele>
        <time>2013-01-12T08:11:27Z</time>
      </trkpt>
      <trkpt lat="47.30623" lon="4.9312">
        <ele>476</ele>
        <time>2013-01-12T08:11:31Z</time>
      </trkpt>
      <trkpt lat="47.30622" lon="4.93127">
        <ele>476</ele>
        <time>2013-01-12T08:11:34Z</time>
      </trkpt>
      <trkpt lat="47.3062" lon="4.93134">
        <ele>477</ele>
        <time>2013-01-12T08:11:37Z</time>
      </trkpt>
      <trkpt lat="47.30618" lon="4.93141">
        <ele>477</ele>
        <time>2013-01-12T08:11:40Z</time>
      </trkpt>
      <trkpt lat="47.30617" lon="4.93149">
        <ele>477</ele>
        <time>2013-01-12T08:11:43Z</time>
      </trkpt>
      <trkpt lat="47.30618" lon="4.93157">
        <ele>477</ele>
        <time>2013-01-12T08:11:47Z</time>
      </trkpt>
      <trkpt lat="47.30615" lon="4.93164">
        <ele>477</ele>
        <time>2013-01-12T08:11:50Z</time>
      </trkpt>
      <trkpt lat="47.30615" lon="4.93172">
        <ele>477</ele>
        <time>2013-01-12T08:11:55Z</time>
      </trkpt>
      <trkpt lat="47.30612" lon="4.93179">
        <ele>477</ele>
        <time>2013-01-12T08:11:57Z</time>
      </trkpt>
      <trkpt lat="47.30609" lon="4.93184">
        <ele>479</ele>
        <time>2013-01-12T08:12:00Z</time>
      </trkpt>
      <trkpt lat="47.30608" lon="4.9319">
        <ele>480</ele>
        <time>2013-01-12T08:12:04Z</time>
      </trkpt>
      <trkpt lat="47.30606" lon="4.93196">
        <ele>482</ele>
        <time>2013-01-12T08:12:09Z</time>
      </trkpt>
      <trkpt lat="47.30602" lon="4.93202">
        <ele>486</ele>
        <time>2013-01-12T08:12:16Z</time>
      </trkpt>
      <trkpt lat="47.30598" lon="4.93204">
        <ele>488</ele>
        <time>2013-01-12T08:12:21Z</time>
      </trkpt>
      <trkpt lat="47.30593" lon="4.93208">
        <ele>487</ele>
        <time>2013-01-12T08:12:23Z</time>
      </trkpt>
      <trkpt lat="47.30589" lon="4.93212">
        <ele>487</ele>
        <time>2013-01-12T08:12:26Z</time>
      </trkpt>
      <trkpt lat="47.30584" lon="4.93215">
        <ele>489</ele>
        <time>2013-01-12T08:12:31Z</time>
      </trkpt>
      <trkpt lat="47.3058" lon="4.93219">
        <ele>488</ele>
        <time>2013-01-12T08:12:35Z</time>
      </trkpt>
      <trkpt lat="47.30576" lon="4.93223">
        <ele>487</ele>
        <time>2013-01-12T08:12:38Z</time>
      </trkpt>
      <trkpt lat="47.3057" lon="4.93226">
        <ele>488</ele>
        <time>2013-01-12T08:12:42Z</time>
      </trkpt>
      <trkpt lat="47.30565" lon="4.93231">
        <ele>488</ele>
        <time>2013-01-12T08:12:45Z</time>
      </trkpt>
      <trkpt lat="47.30559" lon="4.93233">
        <ele>489</ele>
        <time>2013-01-12T08:12:48Z</time>
      </trkpt>
      <trkpt lat="47.30554" lon="4.93238">
        <ele>488</ele>
        <time>2013-01-12T08:12:51Z</time>
      </trkpt>
      <trkpt lat="47.30551" lon="4.93243">
        <ele>487</ele>
        <time>2013-01-12T08:12:55Z</time>
      </trkpt>
      <trkpt lat="47.30545" lon="4.93244">
        <ele>485</ele>
        <time>2013-01-12T08:12:57Z</time>
      </trkpt>
      <trkpt lat="47.30539" lon="4.93246">
        <ele>485</ele>
        <time>2013-01-12T08:13:00Z</time>
      </trkpt>
      <trkpt lat="47.30534" lon="4.9325">
        <ele>486</ele>
        <time>2013-01-12T08:13:05Z</time>
      </trkpt>
      <trkpt lat="47.30527" lon="4.93256">
        <ele>480</ele>
        <time>2013-01-12T08:13:07Z</time>
      </trkpt>
      <trkpt lat="47.30521" lon="4.93254">
        <ele>478</ele>
        <time>2013-01-12T08:13:10Z</time>
      </trkpt>
      <trkpt lat="47.30515" lon="4.93255">
        <ele>475</ele>
        <time>2013-01-12T08:13:16Z</time>
      </trkpt>
      <trkpt lat="47.3051" lon="4.93257">
        <ele>472</ele>
        <time>2013-01-12T08:13:18Z</time>
      </trkpt>
      <trkpt lat="47.30505" lon="4.93253">
        <ele>470</ele>
        <time>2013-01-12T08:13:21Z</time>
      </trkpt>
      <trkpt lat="47.305" lon="4.9325">
        <ele>469</ele>
        <time>2013-01-12T08:13:24Z</time>
      </trkpt>
      <trkpt lat="47.30496" lon="4.93253">
        <ele>472</ele>
        <time>2013-01-12T08:13:29Z</time>
      </trkpt>
      <trkpt lat="47.30491" lon="4.9325">
        <ele>472</ele>
        <time>2013-01-12T08:13:33Z</time>
      </trkpt>
      <trkpt lat="47.30486" lon="4.93247">
        <ele>473</ele>
        <time>2013-01-12T08:13:37Z</time>
      </trkpt>
      <trkpt lat="47.30479" lon="4.93248">
        <ele>475</ele>
        <time>2013-01-12T08:13:43Z</time>
      </trkpt>
      <trkpt lat="47.30472" lon="4.93249">
        <ele>476</ele>
        <time>2013-01-12T08:13:47Z</time>
      </trkpt>
      <trkpt lat="47.30467" lon="4.93249">
        <ele>476</ele>
        <time>2013-01-12T08:13:50Z</time>
      </trkpt>
      <trkpt lat="47.30461" lon="4.9325">
        <ele>476</ele>
        <time>2013-01-12T08:13:54Z</time>
      </trkpt>
      <trkpt lat="47.30456" lon="4.93248">
        <ele>476</ele>
        <time>2013-01-12T08:13:58Z</time>
      </trkpt>
      <trkpt lat="47.30454" lon="4.9324">
        <ele>473</ele>
        <time>2013-01-12T08:14:00Z</time>
      </trkpt>
      <trkpt lat="47.30448" lon="4.93242">
        <ele>473</ele>
        <time>2013-01-12T08:14:04Z</time>
      </trkpt>
      <trkpt lat="47.30442" lon="4.93243">
        <ele>475</ele>
        <time>2013-01-12T08:14:08Z</time>
      </trkpt>
      <trkpt lat="47.30438" lon="4.93242">
        <ele>473</ele>
        <time>2013-01-12T08:14:12Z</time>
      </trkpt>
      <trkpt lat="47.30433" lon="4.9324">
        <ele>474</ele>
        <time>2013-01-12T08:14:15Z</time>
      </trkpt>
      <trkpt lat="47.30428" lon="4.93244">
        <ele>477</ele>
        <time>2013-01-12T08:14:19Z</time>
      </trkpt>
      <trkpt lat="47.30423" lon="4.93243">
        <ele>477</ele>
        <time>2013-01-12T08:14:23Z</time>
      </trkpt>
      <trkpt lat="47.30419" lon="4.9324">
        <ele>477</ele>
        <time>2013-01-12T08:14:27Z</time>
      </trkpt>
      <trkpt lat="47.30414" lon="4.93238">
        <ele>477</ele>
        <time>2013-01-12T08:14:30Z</time>
      </trkpt>
      <trkpt lat="47.30409" lon="4.93241">
        <ele>478</ele>
        <time>2013-01-12T08:14:34Z</time>
      </trkpt>
      <trkpt lat="47.30404" lon="4.93241">
        <ele>478</ele>
        <time>2013-01-12T08:14:39Z</time>
      </trkpt>
      <trkpt lat="47.304" lon="4.93244">
        <ele>479</ele>
        <time>2013-01-12T08:14:41Z</time>
      </trkpt>
      <trkpt lat="47.30394" lon="4.93244">
        <ele>480</ele>
        <time>2013-01-12T08:14:46Z</time>
      </trkpt>
      <trkpt lat="47.30388" lon="4.93242">
        <ele>480</ele>
        <time>2013-01-12T08:14:51Z</time>
      </trkpt>
      <trkpt lat="47.30386" lon="4.93236">
        <ele>481</ele>
        <time>2013-01-12T08:14:56Z</time>
      </trkpt>
      <trkpt lat="47.30381" lon="4.93236">
        <ele>482</ele>
        <time>2013-01-12T08:14:59Z</time>
      </trkpt>
      <trkpt lat="47.30375" lon="4.93236">
        <ele>483</ele>
        <time>2013-01-12T08:15:03Z</time>
      </trkpt>
      <trkpt lat="47.30369" lon="4.93239">
        <ele>482</ele>
        <time>2013-01-12T08:15:06Z</time>
      </trkpt>
      <trkpt lat="47.30364" lon="4.9324">
        <ele>482</ele>
        <time>2013-01-12T08:15:09Z</time>
      </trkpt>
      <trkpt lat="47.30359" lon="4.93241">
        <ele>483</ele>
        <time>2013-01-12T08:15:13Z</time>
      </trkpt>
      <trkpt lat="47.30356" lon="4.93248">
        <ele>489</ele>
        <time>2013-01-12T08:15:25Z</time>
      </trkpt>
      <trkpt lat="47.30354" lon="4.93254">
        <ele>489</ele>
        <time>2013-01-12T08:15:31Z</time>
      </trkpt>
      <trkpt lat="47.30351" lon="4.93261">
        <ele>488</ele>
        <time>2013-01-12T08:15:36Z</time>
      </trkpt>
      <trkpt lat="47.30346" lon="4.93265">
        <ele>487</ele>
        <time>2013-01-12T08:15:39Z</time>
      </trkpt>
      <trkpt lat="47.30338" lon="4.93267">
        <ele>484</ele>
        <time>2013-01-12T08:15:42Z</time>
      </trkpt>
      <trkpt lat="47.30341" lon="4.93261">
        <ele>496</ele>
        <time>2013-01-12T08:15:53Z</time>
      </trkpt>
      <trkpt lat="47.30343" lon="4.93254">
        <ele>496</ele>
        <time>2013-01-12T08:15:57Z</time>
      </trkpt>
      <trkpt lat="47.30344" lon="4.93248">
        <ele>498</ele>
        <time>2013-01-12T08:16:00Z</time>
      </trkpt>
      <trkpt lat="47.30346" lon="4.9324">
        <ele>501</ele>
        <time>2013-01-12T08:16:05Z</time>
      </trkpt>
      <trkpt lat="47.30348" lon="4.93231">
        <ele>502</ele>
        <time>2013-01-12T08:16:10Z</time>
      </trkpt>
      <trkpt lat="47.30349" lon="4.93223">
        <ele>501</ele>
        <time>2013-01-12T08:16:12Z</time>
      </trkpt>
      <trkpt lat="47.3035" lon="4.93215">
        <ele>501</ele>
        <time>2013-01-12T08:16:15Z</time>
      </trkpt>
      <trkpt lat="47.30355" lon="4.93213">
        <ele>500</ele>
        <time>2013-01-12T08:16:18Z</time>
      </trkpt>
      <trkpt lat="47.30359" lon="4.93209">
        <ele>500</ele>
        <time>2013-01-12T08:16:22Z</time>
      </trkpt>
      <trkpt lat="47.30362" lon="4.93201">
        <ele>500</ele>
        <time>2013-01-12T08:16:25Z</time>
      </trkpt>
      <trkpt lat="47.30366" lon="4.93196">
        <ele>500</ele>
        <time>2013-01-12T08:16:27Z</time>
      </trkpt>
      <trkpt lat="47.30369" lon="4.9319">
        <ele>500</ele>
        <time>2013-01-12T08:16:30Z</time>
      </trkpt>
      <trkpt lat="47.30372" lon="4.93184">
        <ele>499</ele>
        <time>2013-01-12T08:16:32Z</time>
      </trkpt>
      <trkpt lat="47.30373" lon="4.93177">
        <ele>498</ele>
        <time>2013-01-12T08:16:35Z</time>
      </trkpt>
      <trkpt lat="47.30376" lon="4.93169">
        <ele>496</ele>
        <time>2013-01-12T08:16:38Z</time>
      </trkpt>
      <trkpt lat="47.30378" lon="4.93162">
        <ele>496</ele>
        <time>2013-01-12T08:16:41Z</time>
      </trkpt>
      <trkpt lat="47.30379" lon="4.93153">
        <ele>496</ele>
        <time>2013-01-12T08:16:45Z</time>
      </trkpt>
      <trkpt lat="47.3038" lon="4.93147">
        <ele>496</ele>
        <time>2013-01-12T08:16:48Z</time>
      </trkpt>
      <trkpt lat="47.30381" lon="4.9314">
        <ele>496</ele>
        <time>2013-01-12T08:16:51Z</time>
      </trkpt>
      <trkpt lat="47.30381" lon="4.9313">
        <ele>496</ele>
        <time>2013-01-12T08:16:54Z</time>
      </trkpt>
      <trkpt lat="47.30382" lon="4.93123">
        <ele>495</ele>
        <time>2013-01-12T08:16:56Z</time>
      </trkpt>
      <trkpt lat="47.30382" lon="4.93116">
        <ele>496</ele>
        <time>2013-01-12T08:16:59Z</time>
      </trkpt>
      <trkpt lat="47.30383" lon="4.93108">
        <ele>495</ele>
        <time>2013-01-12T08:17:02Z</time>
      </trkpt>
      <trkpt lat="47.30384" lon="4.93101">
        <ele>495</ele>
        <time>2013-01-12T08:17:05Z</time>
      </trkpt>
      <trkpt lat="47.30384" lon="4.93093">
        <ele>495</ele>
        <time>2013-01-12T08:17:08Z</time>
      </trkpt>
      <trkpt lat="47.30384" lon="4.93085">
        <ele>494</ele>
        <time>2013-01-12T08:17:10Z</time>
      </trkpt>
      <trkpt lat="47.30383" lon="4.93076">
        <ele>493</ele>
        <time>2013-01-12T08:17:13Z</time>
      </trkpt>
      <trkpt lat="47.30384" lon="4.93069">
        <ele>492</ele>
        <time>2013-01-12T08:17:16Z</time>
      </trkpt>
      <trkpt lat="47.30384" lon="4.93061">
        <ele>492</ele>
        <time>2013-01-12T08:17:19Z</time>
      </trkpt>
      <trkpt lat="47.30383" lon="4.93052">
        <ele>492</ele>
        <time>2013-01-12T08:17:23Z</time>
      </trkpt>
      <trkpt lat="47.30383" lon="4.93044">
        <ele>492</ele>
        <time>2013-01-12T08:17:26Z</time>
      </trkpt>
      <trkpt lat="47.30382" lon="4.93037">
        <ele>492</ele>
        <time>2013-01-12T08:17:29Z</time>
      </trkpt>
      <trkpt lat="47.30381" lon="4.93029">
        <ele>492</ele>
        <time>2013-01-12T08:17:33Z</time>
      </trkpt>
      <trkpt lat="47.30381" lon="4.9302">
        <ele>492</ele>
        <time>2013-01-12T08:17:36Z</time>
      </trkpt>
      <trkpt lat="47.30381" lon="4.93011">
        <ele>491</ele>
        <time>2013-01-12T08:17:39Z</time>
      </trkpt>
      <trkpt lat="47.30379" lon="4.93004">
        <ele>492</ele>
        <time>2013-01-12T08:17:43Z</time>
      </trkpt>
      <trkpt lat="47.3038" lon="4.92995">
        <ele>492</ele>
        <time>2013-01-12T08:17:47Z</time>
      </trkpt>
      <trkpt lat="47.3038" lon="4.92987">
        <ele>494</ele>
        <time>2013-01-12T08:17:51Z</time>
      </trkpt>
      <trkpt lat="47.3038" lon="4.92979">
        <ele>497</ele>
        <time>2013-01-12T08:17:55Z</time>
      </trkpt>
      <trkpt lat="47.30379" lon="4.92972">
        <ele>496</ele>
        <time>2013-01-12T08:17:57Z</time>
      </trkpt>
      <trkpt lat="47.30378" lon="4.92965">
        <ele>494</ele>
        <time>2013-01-12T08:17:59Z</time>
      </trkpt>
      <trkpt lat="47.30378" lon="4.92954">
        <ele>494</ele>
        <time>2013-01-12T08:18:02Z</time>
      </trkpt>
      <trkpt lat="47.30376" lon="4.92947">
        <ele>493</ele>
        <time>2013-01-12T08:18:04Z</time>
      </trkpt>
      <trkpt lat="47.30375" lon="4.92938">
        <ele>491</ele>
        <time>2013-01-12T08:18:07Z</time>
      </trkpt>
      <trkpt lat="47.30375" lon="4.92931">
        <ele>491</ele>
        <time>2013-01-12T08:18:10Z</time>
      </trkpt>
      <trkpt lat="47.30373" lon="4.92922">
        <ele>493</ele>
        <time>2013-01-12T08:18:15Z</time>
      </trkpt>
      <trkpt lat="47.30372" lon="4.92914">
        <ele>493</ele>
        <time>2013-01-12T08:18:18Z</time>
      </trkpt>
      <trkpt lat="47.3037" lon="4.92906">
        <ele>495</ele>
        <time>2013-01-12T08:18:22Z</time>
      </trkpt>
      <trkpt lat="47.30368" lon="4.929">
        <ele>496</ele>
        <time>2013-01-12T08:18:26Z</time>
      </trkpt>
      <trkpt lat="47.30366" lon="4.92892">
        <ele>496</ele>
        <time>2013-01-12T08:18:30Z</time>
      </trkpt>
      <trkpt lat="47.30366" lon="4.92884">
        <ele>497</ele>
        <time>2013-01-12T08:18:33Z</time>
      </trkpt>
      <trkpt lat="47.30365" lon="4.92877">
        <ele>497</ele>
        <time>2013-01-12T08:18:35Z</time>
      </trkpt>
      <trkpt lat="47.30364" lon="4.92868">
        <ele>495</ele>
        <time>2013-01-12T08:18:38Z</time>
      </trkpt>
      <trkpt lat="47.30362" lon="4.9286">
        <ele>496</ele>
        <time>2013-01-12T08:18:41Z</time>
      </trkpt>
      <trkpt lat="47.30358" lon="4.92854">
        <ele>497</ele>
        <time>2013-01-12T08:18:45Z</time>
      </trkpt>
      <trkpt lat="47.30356" lon="4.92846">
        <ele>496</ele>
        <time>2013-01-12T08:18:48Z</time>
      </trkpt>
      <trkpt lat="47.30355" lon="4.92839">
        <ele>497</ele>
        <time>2013-01-12T08:18:51Z</time>
      </trkpt>
      <trkpt lat="47.30352" lon="4.92831">
        <ele>499</ele>
        <time>2013-01-12T08:18:55Z</time>
      </trkpt>
      <trkpt lat="47.3035" lon="4.92823">
        <ele>500</ele>
        <time>2013-01-12T08:18:59Z</time>
      </trkpt>
      <trkpt lat="47.30347" lon="4.92815">
        <ele>501</ele>
        <time>2013-01-12T08:19:03Z</time>
      </trkpt>
      <trkpt lat="47.30345" lon="4.92806">
        <ele>501</ele>
        <time>2013-01-12T08:19:07Z</time>
      </trkpt>
      <trkpt lat="47.30343" lon="4.92798">
        <ele>504</ele>
        <time>2013-01-12T08:19:12Z</time>
      </trkpt>
      <trkpt lat="47.30341" lon="4.9279">
        <ele>504</ele>
        <time>2013-01-12T08:19:16Z</time>
      </trkpt>
      <trkpt lat="47.3034" lon="4.92781">
        <ele>502</ele>
        <time>2013-01-12T08:19:19Z</time>
      </trkpt>
      <trkpt lat="47.30337" lon="4.92773">
        <ele>504</ele>
        <time>2013-01-12T08:19:23Z</time>
      </trkpt>
      <trkpt lat="47.30335" lon="4.92764">
        <ele>505</ele>
        <time>2013-01-12T08:19:27Z</time>
      </trkpt>
      <trkpt lat="47.30334" lon="4.92757">
        <ele>505</ele>
        <time>2013-01-12T08:19:30Z</time>
      </trkpt>
      <trkpt lat="47.30334" lon="4.92748">
        <ele>505</ele>
        <time>2013-01-12T08:19:33Z</time>
      </trkpt>
      <trkpt lat="47.30332" lon="4.9274">
        <ele>504</ele>
        <time>2013-01-12T08:19:35Z</time>
      </trkpt>
      <trkpt lat="47.3033" lon="4.92732">
        <ele>505</ele>
        <time>2013-01-12T08:19:38Z</time>
      </trkpt>
      <trkpt lat="47.30328" lon="4.92726">
        <ele>505</ele>
        <time>2013-01-12T08:19:41Z</time>
      </trkpt>
      <trkpt lat="47.30326" lon="4.92719">
        <ele>505</ele>
        <time>2013-01-12T08:19:44Z</time>
      </trkpt>
      <trkpt lat="47.30324" lon="4.92713">
        <ele>506</ele>
        <time>2013-01-12T08:19:47Z</time>
      </trkpt>
      <trkpt lat="47.3032" lon="4.92707">
        <ele>508</ele>
        <time>2013-01-12T08:19:51Z</time>
      </trkpt>
      <trkpt lat="47.30316" lon="4.92701">
        <ele>510</ele>
        <time>2013-01-12T08:19:55Z</time>
      </trkpt>
      <trkpt lat="47.30314" lon="4.92694">
        <ele>512</ele>
        <time>2013-01-12T08:19:59Z</time>
      </trkpt>
      <trkpt lat="47.30311" lon="4.92687">
        <ele>513</ele>
        <time>2013-01-12T08:20:03Z</time>
      </trkpt>
      <trkpt lat="47.30306" lon="4.92683">
        <ele>514</ele>
        <time>2013-01-12T08:20:06Z</time>
      </trkpt>
      <trkpt lat="47.30304" lon="4.92676">
        <ele>515</ele>
        <time>2013-01-12T08:20:09Z</time>
      </trkpt>
      <trkpt lat="47.30301" lon="4.92669">
        <ele>515</ele>
        <time>2013-01-12T08:20:12Z</time>
      </trkpt>
      <trkpt lat="47.30296" lon="4.92665">
        <ele>516</ele>
        <time>2013-01-12T08:20:16Z</time>
      </trkpt>
      <trkpt lat="47.30293" lon="4.9266">
        <ele>517</ele>
        <time>2013-01-12T08:20:19Z</time>
      </trkpt>
      <trkpt lat="47.30289" lon="4.92651">
        <ele>516</ele>
        <time>2013-01-12T08:20:22Z</time>
      </trkpt>
      <trkpt lat="47.30285" lon="4.92644">
        <ele>513</ele>
        <time>2013-01-12T08:20:25Z</time>
      </trkpt>
      <trkpt lat="47.30283" lon="4.92636">
        <ele>513</ele>
        <time>2013-01-12T08:20:28Z</time>
      </trkpt>
      <trkpt lat="47.30282" lon="4.92628">
        <ele>513</ele>
        <time>2013-01-12T08:20:30Z</time>
      </trkpt>
      <trkpt lat="47.30277" lon="4.92627">
        <ele>511</ele>
        <time>2013-01-12T08:20:32Z</time>
      </trkpt>
      <trkpt lat="47.30271" lon="4.92622">
        <ele>508</ele>
        <time>2013-01-12T08:20:35Z</time>
      </trkpt>
      <trkpt lat="47.30263" lon="4.92616">
        <ele>505</ele>
        <time>2013-01-12T08:20:39Z</time>
      </trkpt>
      <trkpt lat="47.30259" lon="4.92608">
        <ele>498</ele>
        <time>2013-01-12T08:20:41Z</time>
      </trkpt>
      <trkpt lat="47.3026" lon="4.92597">
        <ele>496</ele>
        <time>2013-01-12T08:20:44Z</time>
      </trkpt>
      <trkpt lat="47.30262" lon="4.92587">
        <ele>495</ele>
        <time>2013-01-12T08:20:46Z</time>
      </trkpt>
      <trkpt lat="47.30266" lon="4.9258">
        <ele>495</ele>
        <time>2013-01-12T08:20:47Z</time>
      </trkpt>
      <trkpt lat="47.30269" lon="4.92572">
        <ele>495</ele>
        <time>2013-01-12T08:20:48Z</time>
      </trkpt>
      <trkpt lat="47.30274" lon="4.92566">
        <ele>496</ele>
        <time>2013-01-12T08:20:50Z</time>
      </trkpt>
      <trkpt lat="47.30277" lon="4.9256">
        <ele>496</ele>
        <time>2013-01-12T08:20:52Z</time>
      </trkpt>
      <trkpt lat="47.30283" lon="4.92556">
        <ele>494</ele>
        <time>2013-01-12T08:20:55Z</time>
      </trkpt>
      <trkpt lat="47.30287" lon="4.92554">
        <ele>492</ele>
        <time>2013-01-12T08:20:57Z</time>
      </trkpt>
      <trkpt lat="47.30292" lon="4.9255">
        <ele>491</ele>
        <time>2013-01-12T08:21:00Z</time>
      </trkpt>
      <trkpt lat="47.30297" lon="4.92543">
        <ele>489</ele>
        <time>2013-01-12T08:21:03Z</time>
      </trkpt>
      <trkpt lat="47.30301" lon="4.92536">
        <ele>488</ele>
        <time>2013-01-12T08:21:06Z</time>
      </trkpt>
      <trkpt lat="47.30305" lon="4.92532">
        <ele>487</ele>
        <time>2013-01-12T08:21:09Z</time>
      </trkpt>
      <trkpt lat="47.30308" lon="4.92527">
        <ele>488</ele>
        <time>2013-01-12T08:21:12Z</time>
      </trkpt>
      <trkpt lat="47.30313" lon="4.92522">
        <ele>486</ele>
        <time>2013-01-12T08:21:15Z</time>
      </trkpt>
      <trkpt lat="47.30318" lon="4.92517">
        <ele>485</ele>
        <time>2013-01-12T08:21:18Z</time>
      </trkpt>
      <trkpt lat="47.30322" lon="4.92512">
        <ele>484</ele>
        <time>2013-01-12T08:21:21Z</time>
      </trkpt>
      <trkpt lat="47.30326" lon="4.92506">
        <ele>481</ele>
        <time>2013-01-12T08:21:24Z</time>
      </trkpt>
      <trkpt lat="47.3033" lon="4.92501">
        <ele>482</ele>
        <time>2013-01-12T08:21:27Z</time>
      </trkpt>
      <trkpt lat="47.30334" lon="4.92495">
        <ele>481</ele>
        <time>2013-01-12T08:21:30Z</time>
      </trkpt>
      <trkpt lat="47.30338" lon="4.92491">
        <ele>479</ele>
        <time>2013-01-12T08:21:32Z</time>
      </trkpt>
      <trkpt lat="47.30342" lon="4.92486">
        <ele>479</ele>
        <time>2013-01-12T08:21:35Z</time>
      </trkpt>
      <trkpt lat="47.30346" lon="4.9248">
        <ele>478</ele>
        <time>2013-01-12T08:21:38Z</time>
      </trkpt>
      <trkpt lat="47.3035" lon="4.92474">
        <ele>476</ele>
        <time>2013-01-12T08:21:41Z</time>
      </trkpt>
      <trkpt lat="47.30354" lon="4.92468">
        <ele>475</ele>
        <time>2013-01-12T08:21:44Z</time>
      </trkpt>
      <trkpt lat="47.30357" lon="4.9246">
        <ele>474</ele>
        <time>2013-01-12T08:21:47Z</time>
      </trkpt>
      <trkpt lat="47.3036" lon="4.92454">
        <ele>474</ele>
        <time>2013-01-12T08:21:50Z</time>
      </trkpt>
      <trkpt lat="47.30362" lon="4.92447">
        <ele>474</ele>
        <time>2013-01-12T08:21:53Z</time>
      </trkpt>
      <trkpt lat="47.30366" lon="4.92441">
        <ele>473</ele>
        <time>2013-01-12T08:21:56Z</time>
      </trkpt>
      <trkpt lat="47.30369" lon="4.92434">
        <ele>472</ele>
        <time>2013-01-12T08:21:59Z</time>
      </trkpt>
      <trkpt lat="47.30373" lon="4.92426">
        <ele>471</ele>
        <time>2013-01-12T08:22:02Z</time>
      </trkpt>
      <trkpt lat="47.30374" lon="4.9242">
        <ele>473</ele>
        <time>2013-01-12T08:22:06Z</time>
      </trkpt>
      <trkpt lat="47.30375" lon="4.92413">
        <ele>476</ele>
        <time>2013-01-12T08:22:10Z</time>
      </trkpt>
      <trkpt lat="47.30374" lon="4.92405">
        <ele>479</ele>
        <time>2013-01-12T08:22:17Z</time>
      </trkpt>
      <trkpt lat="47.30375" lon="4.92396">
        <ele>480</ele>
        <time>2013-01-12T08:22:22Z</time>
      </trkpt>
      <trkpt lat="47.30376" lon="4.92389">
        <ele>481</ele>
        <time>2013-01-12T08:22:25Z</time>
      </trkpt>
      <trkpt lat="47.30376" lon="4.92382">
        <ele>484</ele>
        <time>2013-01-12T08:22:28Z</time>
      </trkpt>
      <trkpt lat="47.30378" lon="4.92374">
        <ele>484</ele>
        <time>2013-01-12T08:22:32Z</time>
      </trkpt>
      <trkpt lat="47.30382" lon="4.92369">
        <ele>485</ele>
        <time>2013-01-12T08:22:37Z</time>
      </trkpt>
      <trkpt lat="47.30381" lon="4.9236">
        <ele>491</ele>
        <time>2013-01-12T08:22:45Z</time>
      </trkpt>
      <trkpt lat="47.30379" lon="4.92354">
        <ele>492</ele>
        <time>2013-01-12T08:22:49Z</time>
      </trkpt>
      <trkpt lat="47.30376" lon="4.92347">
        <ele>491</ele>
        <time>2013-01-12T08:22:53Z</time>
      </trkpt>
      <trkpt lat="47.30373" lon="4.92342">
        <ele>491</ele>
        <time>2013-01-12T08:22:56Z</time>
      </trkpt>
      <trkpt lat="47.3037" lon="4.92336">
        <ele>491</ele>
        <time>2013-01-12T08:22:59Z</time>
      </trkpt>
      <trkpt lat="47.30368" lon="4.92328">
        <ele>489</ele>
        <time>2013-01-12T08:23:04Z</time>
      </trkpt>
      <trkpt lat="47.30364" lon="4.9232">
        <ele>487</ele>
        <time>2013-01-12T08:23:08Z</time>
      </trkpt>
      <trkpt lat="47.30361" lon="4.92314">
        <ele>486</ele>
        <time>2013-01-12T08:23:15Z</time>
      </trkpt>
      <trkpt lat="47.30357" lon="4.9231">
        <ele>487</ele>
        <time>2013-01-12T08:23:23Z</time>
      </trkpt>
      <trkpt lat="47.30352" lon="4.92306">
        <ele>488</ele>
        <time>2013-01-12T08:23:25Z</time>
      </trkpt>
      <trkpt lat="47.30347" lon="4.92302">
        <ele>490</ele>
        <time>2013-01-12T08:23:27Z</time>
      </trkpt>
      <trkpt lat="47.30343" lon="4.92297">
        <ele>491</ele>
        <time>2013-01-12T08:23:29Z</time>
      </trkpt>
      <trkpt lat="47.30338" lon="4.92293">
        <ele>490</ele>
        <time>2013-01-12T08:23:32Z</time>
      </trkpt>
      <trkpt lat="47.30334" lon="4.92284">
        <ele>489</ele>
        <time>2013-01-12T08:23:35Z</time>
      </trkpt>
      <trkpt lat="47.3033" lon="4.92281">
        <ele>489</ele>
        <time>2013-01-12T08:23:37Z</time>
      </trkpt>
      <trkpt lat="47.30328" lon="4.92273">
        <ele>487</ele>
        <time>2013-01-12T08:23:41Z</time>
      </trkpt>
      <trkpt lat="47.30327" lon="4.92265">
        <ele>487</ele>
        <time>2013-01-12T08:23:45Z</time>
      </trkpt>
      <trkpt lat="47.30327" lon="4.92256">
        <ele>486</ele>
        <time>2013-01-12T08:23:50Z</time>
      </trkpt>
      <trkpt lat="47.30327" lon="4.92246">
        <ele>486</ele>
        <time>2013-01-12T08:23:54Z</time>
      </trkpt>
      <trkpt lat="47.30324" lon="4.9224">
        <ele>484</ele>
        <time>2013-01-12T08:23:57Z</time>
      </trkpt>
      <trkpt lat="47.30322" lon="4.92233">
        <ele>481</ele>
        <time>2013-01-12T08:24:00Z</time>
      </trkpt>
      <trkpt lat="47.30319" lon="4.92228">
        <ele>479</ele>
        <time>2013-01-12T08:24:02Z</time>
      </trkpt>
      <trkpt lat="47.30316" lon="4.92223">
        <ele>478</ele>
        <time>2013-01-12T08:24:05Z</time>
      </trkpt>
      <trkpt lat="47.3031" lon="4.9222">
        <ele>477</ele>
        <time>2013-01-12T08:24:08Z</time>
      </trkpt>
      <trkpt lat="47.30307" lon="4.92215">
        <ele>477</ele>
        <time>2013-01-12T08:24:12Z</time>
      </trkpt>
      <trkpt lat="47.30301" lon="4.9221">
        <ele>476</ele>
        <time>2013-01-12T08:24:15Z</time>
      </trkpt>
      <trkpt lat="47.30297" lon="4.92207">
        <ele>474</ele>
        <time>2013-01-12T08:24:18Z</time>
      </trkpt>
      <trkpt lat="47.30292" lon="4.92205">
        <ele>473</ele>
        <time>2013-01-12T08:24:22Z</time>
      </trkpt>
      <trkpt lat="47.30288" lon="4.92198">
        <ele>473</ele>
        <time>2013-01-12T08:24:26Z</time>
      </trkpt>
      <trkpt lat="47.30285" lon="4.92192">
        <ele>473</ele>
        <time>2013-01-12T08:24:28Z</time>
      </trkpt>
      <trkpt lat="47.30282" lon="4.92185">
        <ele>470</ele>
        <time>2013-01-12T08:24:30Z</time>
      </trkpt>
      <trkpt lat="47.30277" lon="4.92179">
        <ele>468</ele>
        <time>2013-01-12T08:24:32Z</time>
      </trkpt>
      <trkpt lat="47.30272" lon="4.92175">
        <ele>467</ele>
        <time>2013-01-12T08:24:34Z</time>
      </trkpt>
      <trkpt lat="47.30268" lon="4.92171">
        <ele>466</ele>
        <time>2013-01-12T08:24:37Z</time>
      </trkpt>
      <trkpt lat="47.30264" lon="4.92166">
        <ele>463</ele>
        <time>2013-01-12T08:24:40Z</time>
      </trkpt>
      <trkpt lat="47.30258" lon="4.92166">
        <ele>463</ele>
        <time>2013-01-12T08:24:42Z</time>
      </trkpt>
      <trkpt lat="47.30253" lon="4.92164">
        <ele>461</ele>
        <time>2013-01-12T08:24:45Z</time>
      </trkpt>
      <trkpt lat="47.30251" lon="4.92158">
        <ele>460</ele>
        <time>2013-01-12T08:24:48Z</time>
      </trkpt>
      <trkpt lat="47.30251" lon="4.92158">
        <ele>460</ele>
        <time>2013-01-12T08:24:48Z</time>
      </trkpt>
      <trkpt lat="47.30251" lon="4.92158">
        <ele>460</ele>
        <time>2013-01-12T08:24:49Z</time>
      </trkpt>
      <trkpt lat="47.30246" lon="4.92153">
        <ele>458</ele>
        <time>2013-01-12T08:24:55Z</time>
      </trkpt>
      <trkpt lat="47.30241" lon="4.92148">
        <ele>456</ele>
        <time>2013-01-12T08:24:59Z</time>
      </trkpt>
      <trkpt lat="47.30236" lon="4.92146">
        <ele>455</ele>
        <time>2013-01-12T08:25:01Z</time>
      </trkpt>
      <trkpt lat="47.30229" lon="4.92141">
        <ele>454</ele>
        <time>2013-01-12T08:25:04Z</time>
      </trkpt>
      <trkpt lat="47.30224" lon="4.9214">
        <ele>454</ele>
        <time>2013-01-12T08:25:08Z</time>
      </trkpt>
      <trkpt lat="47.30219" lon="4.92136">
        <ele>452</ele>
        <time>2013-01-12T08:25:09Z</time>
      </trkpt>
      <trkpt lat="47.30214" lon="4.92136">
        <ele>451</ele>
        <time>2013-01-12T08:25:12Z</time>
      </trkpt>
      <trkpt lat="47.3021" lon="4.92134">
        <ele>450</ele>
        <time>2013-01-12T08:25:18Z</time>
      </trkpt>
      <trkpt lat="47.30209" lon="4.92127">
        <ele>448</ele>
        <time>2013-01-12T08:25:24Z</time>
      </trkpt>
      <trkpt lat="47.302" lon="4.92127">
        <ele>449</ele>
        <time>2013-01-12T08:25:32Z</time>
      </trkpt>
      <trkpt lat="47.30194" lon="4.92127">
        <ele>449</ele>
        <time>2013-01-12T08:25:34Z</time>
      </trkpt>
      <trkpt lat="47.30188" lon="4.92124">
        <ele>451</ele>
        <time>2013-01-12T08:25:37Z</time>
      </trkpt>
      <trkpt lat="47.30185" lon="4.92118">
        <ele>448</ele>
        <time>2013-01-12T08:25:39Z</time>
      </trkpt>
      <trkpt lat="47.30181" lon="4.92122">
        <ele>444</ele>
        <time>2013-01-12T08:25:48Z</time>
      </trkpt>
      <trkpt lat="47.30182" lon="4.9213">
        <ele>448</ele>
        <time>2013-01-12T08:25:58Z</time>
      </trkpt>
      <trkpt lat="47.30181" lon="4.92138">
        <ele>446</ele>
        <time>2013-01-12T08:26:04Z</time>
      </trkpt>
      <trkpt lat="47.30176" lon="4.92143">
        <ele>446</ele>
        <time>2013-01-12T08:26:09Z</time>
      </trkpt>
      <trkpt lat="47.30173" lon="4.9215">
        <ele>446</ele>
        <time>2013-01-12T08:26:14Z</time>
      </trkpt>
      <trkpt lat="47.30176" lon="4.92156">
        <ele>447</ele>
        <time>2013-01-12T08:26:17Z</time>
      </trkpt>
      <trkpt lat="47.30172" lon="4.9216">
        <ele>449</ele>
        <time>2013-01-12T08:26:24Z</time>
      </trkpt>
      <trkpt lat="47.30168" lon="4.92162">
        <ele>448</ele>
        <time>2013-01-12T08:26:30Z</time>
      </trkpt>
      <trkpt lat="47.30163" lon="4.92163">
        <ele>446</ele>
        <time>2013-01-12T08:27:24Z</time>
      </trkpt>
      <trkpt lat="47.30162" lon="4.92171">
        <ele>447</ele>
        <time>2013-01-12T08:27:27Z</time>
      </trkpt>
      <trkpt lat="47.30165" lon="4.92177">
        <ele>446</ele>
        <time>2013-01-12T08:27:29Z</time>
      </trkpt>
      <trkpt lat="47.30166" lon="4.92184">
        <ele>442</ele>
        <time>2013-01-12T08:27:52Z</time>
      </trkpt>
      <trkpt lat="47.30162" lon="4.92179">
        <ele>441</ele>
        <time>2013-01-12T08:27:58Z</time>
      </trkpt>
      <trkpt lat="47.3016" lon="4.92185">
        <ele>438</ele>
        <time>2013-01-12T08:28:18Z</time>
      </trkpt>
      <trkpt lat="47.30157" lon="4.92191">
        <ele>442</ele>
        <time>2013-01-12T08:28:24Z</time>
      </trkpt>
      <trkpt lat="47.30154" lon="4.92196">
        <ele>447</ele>
        <time>2013-01-12T08:28:32Z</time>
      </trkpt>
      <trkpt lat="47.3015" lon="4.92201">
        <ele>448</ele>
        <time>2013-01-12T08:28:38Z</time>
      </trkpt>
      <trkpt lat="47.30145" lon="4.92205">
        <ele>450</ele>
        <time>2013-01-12T08:28:42Z</time>
      </trkpt>
      <trkpt lat="47.3014" lon="4.92208">
        <ele>450</ele>
        <time>2013-01-12T08:28:45Z</time>
      </trkpt>
      <trkpt lat="47.30136" lon="4.92212">
        <ele>451</ele>
        <time>2013-01-12T08:28:48Z</time>
      </trkpt>
      <trkpt lat="47.30132" lon="4.92216">
        <ele>452</ele>
        <time>2013-01-12T08:28:53Z</time>
      </trkpt>
      <trkpt lat="47.30129" lon="4.92222">
        <ele>454</ele>
        <time>2013-01-12T08:28:59Z</time>
      </trkpt>
      <trkpt lat="47.30124" lon="4.92227">
        <ele>457</ele>
        <time>2013-01-12T08:29:05Z</time>
      </trkpt>
      <trkpt lat="47.3012" lon="4.92233">
        <ele>457</ele>
        <time>2013-01-12T08:29:09Z</time>
      </trkpt>
      <trkpt lat="47.30116" lon="4.92238">
        <ele>457</ele>
        <time>2013-01-12T08:29:12Z</time>
      </trkpt>
      <trkpt lat="47.30113" lon="4.92244">
        <ele>456</ele>
        <time>2013-01-12T08:29:16Z</time>
      </trkpt>
      <trkpt lat="47.30112" lon="4.92251">
        <ele>457</ele>
        <time>2013-01-12T08:29:21Z</time>
      </trkpt>
      <trkpt lat="47.3011" lon="4.92258">
        <ele>462</ele>
        <time>2013-01-12T08:29:30Z</time>
      </trkpt>
      <trkpt lat="47.30108" lon="4.92264">
        <ele>463</ele>
        <time>2013-01-12T08:29:34Z</time>
      </trkpt>
      <trkpt lat="47.30108" lon="4.92272">
        <ele>464</ele>
        <time>2013-01-12T08:29:38Z</time>
      </trkpt>
      <trkpt lat="47.30112" lon="4.92278">
        <ele>466</ele>
        <time>2013-01-12T08:29:46Z</time>
      </trkpt>
      <trkpt lat="47.30109" lon="4.92284">
        <ele>473</ele>
        <time>2013-01-12T08:29:54Z</time>
      </trkpt>
      <trkpt lat="47.30105" lon="4.92289">
        <ele>474</ele>
        <time>2013-01-12T08:29:58Z</time>
      </trkpt>
      <trkpt lat="47.30103" lon="4.92296">
        <ele>474</ele>
        <time>2013-01-12T08:30:02Z</time>
      </trkpt>
      <trkpt lat="47.30101" lon="4.92302">
        <ele>475</ele>
        <time>2013-01-12T08:30:08Z</time>
      </trkpt>
      <trkpt lat="47.30103" lon="4.92309">
        <ele>483</ele>
        <time>2013-01-12T08:30:18Z</time>
      </trkpt>
      <trkpt lat="47.30103" lon="4.92309">
        <ele>483</ele>
        <time>2013-01-12T08:30:18Z</time>
      </trkpt>
      <trkpt lat="47.30103" lon="4.92309">
        <ele>484</ele>
        <time>2013-01-12T08:30:19Z</time>
      </trkpt>
      <trkpt lat="47.30104" lon="4.92315">
        <ele>490</ele>
        <time>2013-01-12T08:30:32Z</time>
      </trkpt>
      <trkpt lat="47.30099" lon="4.92318">
        <ele>487</ele>
        <time>2013-01-12T08:30:39Z</time>
      </trkpt>
      <trkpt lat="47.30095" lon="4.92321">
        <ele>487</ele>
        <time>2013-01-12T08:30:42Z</time>
      </trkpt>
      <trkpt lat="47.30091" lon="4.92326">
        <ele>486</ele>
        <time>2013-01-12T08:30:47Z</time>
      </trkpt>
      <trkpt lat="47.30086" lon="4.9233">
        <ele>488</ele>
        <time>2013-01-12T08:30:57Z</time>
      </trkpt>
      <trkpt lat="47.30084" lon="4.92336">
        <ele>489</ele>
        <time>2013-01-12T08:31:09Z</time>
      </trkpt>
      <trkpt lat="47.30081" lon="4.92342">
        <ele>491</ele>
        <time>2013-01-12T08:31:18Z</time>
      </trkpt>
      <trkpt lat="47.30084" lon="4.92348">
        <ele>492</ele>
        <time>2013-01-12T08:31:30Z</time>
      </trkpt>
      <trkpt lat="47.30081" lon="4.92355">
        <ele>493</ele>
        <time>2013-01-12T08:31:40Z</time>
      </trkpt>
      <trkpt lat="47.30081" lon="4.92355">
        <ele>493</ele>
        <time>2013-01-12T08:31:40Z</time>
      </trkpt>
      <trkpt lat="47.30081" lon="4.92355">
        <ele>493</ele>
        <time>2013-01-12T08:31:41Z</time>
      </trkpt>
      <trkpt lat="47.30081" lon="4.92362">
        <ele>498</ele>
        <time>2013-01-12T08:31:46Z</time>
      </trkpt>
      <trkpt lat="47.30078" lon="4.92368">
        <ele>502</ele>
        <time>2013-01-12T08:31:55Z</time>
      </trkpt>
      <trkpt lat="47.30077" lon="4.92374">
        <ele>506</ele>
        <time>2013-01-12T08:32:02Z</time>
      </trkpt>
      <trkpt lat="47.30074" lon="4.92379">
        <ele>513</ele>
        <time>2013-01-12T08:32:26Z</time>
      </trkpt>
      <trkpt lat="47.30071" lon="4.92384">
        <ele>512</ele>
        <time>2013-01-12T08:32:33Z</time>
      </trkpt>
      <trkpt lat="47.30066" lon="4.92388">
        <ele>514</ele>
        <time>2013-01-12T08:32:38Z</time>
      </trkpt>
      <trkpt lat="47.30065" lon="4.92396">
        <ele>515</ele>
        <time>2013-01-12T08:32:48Z</time>
      </trkpt>
      <trkpt lat="47.3006" lon="4.92398">
        <ele>517</ele>
        <time>2013-01-12T08:32:53Z</time>
      </trkpt>
      <trkpt lat="47.30058" lon="4.92404">
        <ele>520</ele>
        <time>2013-01-12T08:32:59Z</time>
      </trkpt>
      <trkpt lat="47.30053" lon="4.92408">
        <ele>520</ele>
        <time>2013-01-12T08:33:04Z</time>
      </trkpt>
      <trkpt lat="47.30048" lon="4.92413">
        <ele>520</ele>
        <time>2013-01-12T08:33:07Z</time>
      </trkpt>
      <trkpt lat="47.30043" lon="4.9241">
        <ele>522</ele>
        <time>2013-01-12T08:33:13Z</time>
      </trkpt>
      <trkpt lat="47.30042" lon="4.92402">
        <ele>521</ele>
        <time>2013-01-12T08:33:16Z</time>
      </trkpt>
      <trkpt lat="47.30041" lon="4.92394">
        <ele>521</ele>
        <time>2013-01-12T08:33:19Z</time>
      </trkpt>
      <trkpt lat="47.30037" lon="4.92388">
        <ele>522</ele>
        <time>2013-01-12T08:33:24Z</time>
      </trkpt>
      <trkpt lat="47.30035" lon="4.92381">
        <ele>522</ele>
        <time>2013-01-12T08:33:27Z</time>
      </trkpt>
      <trkpt lat="47.30036" lon="4.92374">
        <ele>521</ele>
        <time>2013-01-12T08:33:29Z</time>
      </trkpt>
      <trkpt lat="47.30036" lon="4.92366">
        <ele>521</ele>
        <time>2013-01-12T08:33:33Z</time>
      </trkpt>
      <trkpt lat="47.30035" lon="4.92357">
        <ele>519</ele>
        <time>2013-01-12T08:33:36Z</time>
      </trkpt>
      <trkpt lat="47.30032" lon="4.92352">
        <ele>520</ele>
        <time>2013-01-12T08:33:39Z</time>
      </trkpt>
      <trkpt lat="47.3003" lon="4.92343">
        <ele>519</ele>
        <time>2013-01-12T08:33:44Z</time>
      </trkpt>
      <trkpt lat="47.30029" lon="4.92335">
        <ele>519</ele>
        <time>2013-01-12T08:33:46Z</time>
      </trkpt>
      <trkpt lat="47.30028" lon="4.92327">
        <ele>521</ele>
        <time>2013-01-12T08:33:49Z</time>
      </trkpt>
      <trkpt lat="47.30027" lon="4.9232">
        <ele>520</ele>
        <time>2013-01-12T08:33:52Z</time>
      </trkpt>
      <trkpt lat="47.30026" lon="4.92313">
        <ele>519</ele>
        <time>2013-01-12T08:33:56Z</time>
      </trkpt>
      <trkpt lat="47.30026" lon="4.92305">
        <ele>519</ele>
        <time>2013-01-12T08:33:59Z</time>
      </trkpt>
      <trkpt lat="47.30026" lon="4.92297">
        <ele>520</ele>
        <time>2013-01-12T08:34:03Z</time>
      </trkpt>
      <trkpt lat="47.30027" lon="4.92289">
        <ele>521</ele>
        <time>2013-01-12T08:34:07Z</time>
      </trkpt>
      <trkpt lat="47.30025" lon="4.92282">
        <ele>521</ele>
        <time>2013-01-12T08:34:10Z</time>
      </trkpt>
      <trkpt lat="47.30022" lon="4.92275">
        <ele>521</ele>
        <time>2013-01-12T08:34:13Z</time>
      </trkpt>
      <trkpt lat="47.30022" lon="4.92264">
        <ele>521</ele>
        <time>2013-01-12T08:34:16Z</time>
      </trkpt>
      <trkpt lat="47.30018" lon="4.92256">
        <ele>519</ele>
        <time>2013-01-12T08:34:19Z</time>
      </trkpt>
      <trkpt lat="47.30016" lon="4.92248">
        <ele>517</ele>
        <time>2013-01-12T08:34:22Z</time>
      </trkpt>
      <trkpt lat="47.30013" lon="4.92242">
        <ele>517</ele>
        <time>2013-01-12T08:34:25Z</time>
      </trkpt>
      <trkpt lat="47.30012" lon="4.92234">
        <ele>517</ele>
        <time>2013-01-12T08:34:28Z</time>
      </trkpt>
      <trkpt lat="47.30008" lon="4.92227">
        <ele>517</ele>
        <time>2013-01-12T08:34:33Z</time>
      </trkpt>
      <trkpt lat="47.30007" lon="4.9222">
        <ele>518</ele>
        <time>2013-01-12T08:34:37Z</time>
      </trkpt>
      <trkpt lat="47.30004" lon="4.92213">
        <ele>516</ele>
        <time>2013-01-12T08:34:40Z</time>
      </trkpt>
      <trkpt lat="47.3" lon="4.92205">
        <ele>513</ele>
        <time>2013-01-12T08:34:44Z</time>
      </trkpt>
      <trkpt lat="47.29998" lon="4.92197">
        <ele>514</ele>
        <time>2013-01-12T08:34:48Z</time>
      </trkpt>
      <trkpt lat="47.29996" lon="4.92188">
        <ele>512</ele>
        <time>2013-01-12T08:34:51Z</time>
      </trkpt>
      <trkpt lat="47.29994" lon="4.9218">
        <ele>512</ele>
        <time>2013-01-12T08:34:54Z</time>
      </trkpt>
      <trkpt lat="47.29992" lon="4.92174">
        <ele>513</ele>
        <time>2013-01-12T08:34:58Z</time>
      </trkpt>
      <trkpt lat="47.2999" lon="4.92168">
        <ele>514</ele>
        <time>2013-01-12T08:35:02Z</time>
      </trkpt>
      <trkpt lat="47.29987" lon="4.92161">
        <ele>513</ele>
        <time>2013-01-12T08:35:06Z</time>
      </trkpt>
      <trkpt lat="47.29982" lon="4.92157">
        <ele>512</ele>
        <time>2013-01-12T08:35:08Z</time>
      </trkpt>
      <trkpt lat="47.29977" lon="4.92152">
        <ele>513</ele>
        <time>2013-01-12T08:35:12Z</time>
      </trkpt>
      <trkpt lat="47.29974" lon="4.92147">
        <ele>513</ele>
        <time>2013-01-12T08:35:15Z</time>
      </trkpt>
      <trkpt lat="47.2997" lon="4.9214">
        <ele>514</ele>
        <time>2013-01-12T08:35:18Z</time>
      </trkpt>
      <trkpt lat="47.29967" lon="4.92135">
        <ele>513</ele>
        <time>2013-01-12T08:35:20Z</time>
      </trkpt>
      <trkpt lat="47.29962" lon="4.92132">
        <ele>514</ele>
        <time>2013-01-12T08:35:23Z</time>
      </trkpt>
      <trkpt lat="47.29958" lon="4.92128">
        <ele>514</ele>
        <time>2013-01-12T08:35:26Z</time>
      </trkpt>
      <trkpt lat="47.29955" lon="4.92122">
        <ele>515</ele>
        <time>2013-01-12T08:35:29Z</time>
      </trkpt>
      <trkpt lat="47.29952" lon="4.92114">
        <ele>517</ele>
        <time>2013-01-12T08:35:34Z</time>
      </trkpt>
      <trkpt lat="47.29951" lon="4.92108">
        <ele>517</ele>
        <time>2013-01-12T08:35:37Z</time>
      </trkpt>
      <trkpt lat="47.29947" lon="4.92102">
        <ele>517</ele>
        <time>2013-01-12T08:35:41Z</time>
      </trkpt>
      <trkpt lat="47.29944" lon="4.92097">
        <ele>517</ele>
        <time>2013-01-12T08:35:44Z</time>
      </trkpt>
      <trkpt lat="47.29938" lon="4.92092">
        <ele>516</ele>
        <time>2013-01-12T08:35:47Z</time>
      </trkpt>
      <trkpt lat="47.29932" lon="4.92088">
        <ele>515</ele>
        <time>2013-01-12T08:35:51Z</time>
      </trkpt>
      <trkpt lat="47.29929" lon="4.9208">
        <ele>515</ele>
        <time>2013-01-12T08:35:54Z</time>
      </trkpt>
      <trkpt lat="47.29923" lon="4.92077">
        <ele>518</ele>
        <time>2013-01-12T08:35:57Z</time>
      </trkpt>
      <trkpt lat="47.29918" lon="4.92071">
        <ele>516</ele>
        <time>2013-01-12T08:36:01Z</time>
      </trkpt>
      <trkpt lat="47.29914" lon="4.92065">
        <ele>517</ele>
        <time>2013-01-12T08:36:05Z</time>
      </trkpt>
      <trkpt lat="47.29908" lon="4.92062">
        <ele>516</ele>
        <time>2013-01-12T08:36:08Z</time>
      </trkpt>
      <trkpt lat="47.29904" lon="4.92059">
        <ele>517</ele>
        <time>2013-01-12T08:36:11Z</time>
      </trkpt>
      <trkpt lat="47.29898" lon="4.92057">
        <ele>514</ele>
        <time>2013-01-12T08:36:13Z</time>
      </trkpt>
      <trkpt lat="47.29893" lon="4.92053">
        <ele>513</ele>
        <time>2013-01-12T08:36:17Z</time>
      </trkpt>
      <trkpt lat="47.29887" lon="4.92051">
        <ele>513</ele>
        <time>2013-01-12T08:36:21Z</time>
      </trkpt>
      <trkpt lat="47.29882" lon="4.92045">
        <ele>513</ele>
        <time>2013-01-12T08:36:24Z</time>
      </trkpt>
      <trkpt lat="47.29877" lon="4.92042">
        <ele>513</ele>
        <time>2013-01-12T08:36:28Z</time>
      </trkpt>
      <trkpt lat="47.29871" lon="4.92039">
        <ele>516</ele>
        <time>2013-01-12T08:36:32Z</time>
      </trkpt>
      <trkpt lat="47.29866" lon="4.92035">
        <ele>516</ele>
        <time>2013-01-12T08:36:37Z</time>
      </trkpt>
      <trkpt lat="47.29862" lon="4.92031">
        <ele>516</ele>
        <time>2013-01-12T08:36:40Z</time>
      </trkpt>
      <trkpt lat="47.29857" lon="4.92029">
        <ele>515</ele>
        <time>2013-01-12T08:36:44Z</time>
      </trkpt>
      <trkpt lat="47.29851" lon="4.92028">
        <ele>514</ele>
        <time>2013-01-12T08:36:46Z</time>
      </trkpt>
      <trkpt lat="47.29846" lon="4.92024">
        <ele>512</ele>
        <time>2013-01-12T08:36:49Z</time>
      </trkpt>
      <trkpt lat="47.29842" lon="4.92021">
        <ele>511</ele>
        <time>2013-01-12T08:36:53Z</time>
      </trkpt>
      <trkpt lat="47.29839" lon="4.92014">
        <ele>511</ele>
        <time>2013-01-12T08:36:57Z</time>
      </trkpt>
      <trkpt lat="47.29837" lon="4.92007">
        <ele>508</ele>
        <time>2013-01-12T08:37:00Z</time>
      </trkpt>
      <trkpt lat="47.29836" lon="4.92">
        <ele>506</ele>
        <time>2013-01-12T08:37:04Z</time>
      </trkpt>
      <trkpt lat="47.29836" lon="4.91993">
        <ele>505</ele>
        <time>2013-01-12T08:37:17Z</time>
      </trkpt>
      <trkpt lat="47.29834" lon="4.91985">
        <ele>502</ele>
        <time>2013-01-12T08:37:23Z</time>
      </trkpt>
      <trkpt lat="47.29834" lon="4.91976">
        <ele>501</ele>
        <time>2013-01-12T08:37:27Z</time>
      </trkpt>
      <trkpt lat="47.29833" lon="4.91969">
        <ele>499</ele>
        <time>2013-01-12T08:37:30Z</time>
      </trkpt>
      <trkpt lat="47.29834" lon="4.91962">
        <ele>499</ele>
        <time>2013-01-12T08:37:35Z</time>
      </trkpt>
      <trkpt lat="47.29833" lon="4.91954">
        <ele>498</ele>
        <time>2013-01-12T08:37:39Z</time>
      </trkpt>
      <trkpt lat="47.29832" lon="4.91946">
        <ele>496</ele>
        <time>2013-01-12T08:37:43Z</time>
      </trkpt>
      <trkpt lat="47.29832" lon="4.91939">
        <ele>495</ele>
        <time>2013-01-12T08:37:46Z</time>
      </trkpt>
      <trkpt lat="47.2983" lon="4.91932">
        <ele>493</ele>
        <time>2013-01-12T08:37:50Z</time>
      </trkpt>
      <trkpt lat="47.2983" lon="4.91923">
        <ele>492</ele>
        <time>2013-01-12T08:37:53Z</time>
      </trkpt>
      <trkpt lat="47.29831" lon="4.91913">
        <ele>491</ele>
        <time>2013-01-12T08:37:56Z</time>
      </trkpt>
      <trkpt lat="47.29832" lon="4.91905">
        <ele>490</ele>
        <time>2013-01-12T08:37:58Z</time>
      </trkpt>
      <trkpt lat="47.2983" lon="4.91897">
        <ele>488</ele>
        <time>2013-01-12T08:38:00Z</time>
      </trkpt>
      <trkpt lat="47.29832" lon="4.91889">
        <ele>486</ele>
        <time>2013-01-12T08:38:03Z</time>
      </trkpt>
      <trkpt lat="47.29834" lon="4.91879">
        <ele>485</ele>
        <time>2013-01-12T08:38:06Z</time>
      </trkpt>
      <trkpt lat="47.29834" lon="4.91872">
        <ele>483</ele>
        <time>2013-01-12T08:38:08Z</time>
      </trkpt>
      <trkpt lat="47.29835" lon="4.91864">
        <ele>482</ele>
        <time>2013-01-12T08:38:11Z</time>
      </trkpt>
      <trkpt lat="47.29835" lon="4.91856">
        <ele>480</ele>
        <time>2013-01-12T08:38:15Z</time>
      </trkpt>
      <trkpt lat="47.29834" lon="4.91848">
        <ele>480</ele>
        <time>2013-01-12T08:38:19Z</time>
      </trkpt>
      <trkpt lat="47.29834" lon="4.9184">
        <ele>478</ele>
        <time>2013-01-12T08:38:24Z</time>
      </trkpt>
      <trkpt lat="47.29836" lon="4.91833">
        <ele>477</ele>
        <time>2013-01-12T08:38:28Z</time>
      </trkpt>
      <trkpt lat="47.29836" lon="4.91824">
        <ele>474</ele>
        <time>2013-01-12T08:38:32Z</time>
      </trkpt>
      <trkpt lat="47.29836" lon="4.91815">
        <ele>470</ele>
        <time>2013-01-12T08:38:36Z</time>
      </trkpt>
      <trkpt lat="47.29836" lon="4.91808">
        <ele>470</ele>
        <time>2013-01-12T08:38:39Z</time>
      </trkpt>
      <trkpt lat="47.29835" lon="4.91801">
        <ele>468</ele>
        <time>2013-01-12T08:38:43Z</time>
      </trkpt>
      <trkpt lat="47.29836" lon="4.91792">
        <ele>466</ele>
        <time>2013-01-12T08:38:47Z</time>
      </trkpt>
      <trkpt lat="47.29837" lon="4.91785">
        <ele>465</ele>
        <time>2013-01-12T08:38:51Z</time>
      </trkpt>
      <trkpt lat="47.29839" lon="4.91778">
        <ele>463</ele>
        <time>2013-01-12T08:38:57Z</time>
      </trkpt>
      <trkpt lat="47.2984" lon="4.91771">
        <ele>462</ele>
        <time>2013-01-12T08:39:01Z</time>
      </trkpt>
      <trkpt lat="47.2984" lon="4.91763">
        <ele>462</ele>
        <time>2013-01-12T08:39:05Z</time>
      </trkpt>
      <trkpt lat="47.2984" lon="4.91754">
        <ele>459</ele>
        <time>2013-01-12T08:39:09Z</time>
      </trkpt>
      <trkpt lat="47.29841" lon="4.91748">
        <ele>456</ele>
        <time>2013-01-12T08:39:13Z</time>
      </trkpt>
      <trkpt lat="47.29841" lon="4.9174">
        <ele>454</ele>
        <time>2013-01-12T08:39:17Z</time>
      </trkpt>
      <trkpt lat="47.29842" lon="4.91732">
        <ele>454</ele>
        <time>2013-01-12T08:39:22Z</time>
      </trkpt>
      <trkpt lat="47.29842" lon="4.91726">
        <ele>452</ele>
        <time>2013-01-12T08:39:26Z</time>
      </trkpt>
      <trkpt lat="47.29841" lon="4.91719">
        <ele>450</ele>
        <time>2013-01-12T08:39:30Z</time>
      </trkpt>
      <trkpt lat="47.29842" lon="4.91712">
        <ele>449</ele>
        <time>2013-01-12T08:39:33Z</time>
      </trkpt>
      <trkpt lat="47.29843" lon="4.91703">
        <ele>448</ele>
        <time>2013-01-12T08:39:37Z</time>
      </trkpt>
      <trkpt lat="47.29843" lon="4.91694">
        <ele>445</ele>
        <time>2013-01-12T08:39:43Z</time>
      </trkpt>
      <trkpt lat="47.29843" lon="4.91686">
        <ele>444</ele>
        <time>2013-01-12T08:39:46Z</time>
      </trkpt>
      <trkpt lat="47.29843" lon="4.91678">
        <ele>441</ele>
        <time>2013-01-12T08:39:49Z</time>
      </trkpt>
      <trkpt lat="47.29844" lon="4.91671">
        <ele>440</ele>
        <time>2013-01-12T08:39:52Z</time>
      </trkpt>
      <trkpt lat="47.29844" lon="4.91664">
        <ele>438</ele>
        <time>2013-01-12T08:39:54Z</time>
      </trkpt>
      <trkpt lat="47.29845" lon="4.91655">
        <ele>438</ele>
        <time>2013-01-12T08:39:57Z</time>
      </trkpt>
      <trkpt lat="47.29845" lon="4.91648">
        <ele>438</ele>
        <time>2013-01-12T08:39:59Z</time>
      </trkpt>
      <trkpt lat="47.29846" lon="4.91638">
        <ele>436</ele>
        <time>2013-01-12T08:40:03Z</time>
      </trkpt>
      <trkpt lat="47.29846" lon="4.91631">
        <ele>435</ele>
        <time>2013-01-12T08:40:05Z</time>
      </trkpt>
      <trkpt lat="47.2985" lon="4.91625">
        <ele>433</ele>
        <time>2013-01-12T08:40:08Z</time>
      </trkpt>
      <trkpt lat="47.29851" lon="4.91617">
        <ele>429</ele>
        <time>2013-01-12T08:40:12Z</time>
      </trkpt>
      <trkpt lat="47.29851" lon="4.91609">
        <ele>425</ele>
        <time>2013-01-12T08:40:16Z</time>
      </trkpt>
      <trkpt lat="47.29849" lon="4.91601">
        <ele>422</ele>
        <time>2013-01-12T08:40:19Z</time>
      </trkpt>
      <trkpt lat="47.29846" lon="4.91592">
        <ele>418</ele>
        <time>2013-01-12T08:40:23Z</time>
      </trkpt>
      <trkpt lat="47.29847" lon="4.91583">
        <ele>415</ele>
        <time>2013-01-12T08:40:27Z</time>
      </trkpt>
      <trkpt lat="47.29848" lon="4.91575">
        <ele>412</ele>
        <time>2013-01-12T08:40:31Z</time>
      </trkpt>
      <trkpt lat="47.29849" lon="4.91568">
        <ele>410</ele>
        <time>2013-01-12T08:40:35Z</time>
      </trkpt>
      <trkpt lat="47.29851" lon="4.91562">
        <ele>409</ele>
        <time>2013-01-12T08:40:39Z</time>
      </trkpt>
      <trkpt lat="47.29852" lon="4.91555">
        <ele>407</ele>
        <time>2013-01-12T08:40:42Z</time>
      </trkpt>
      <trkpt lat="47.29852" lon="4.91547">
        <ele>406</ele>
        <time>2013-01-12T08:40:45Z</time>
      </trkpt>
      <trkpt lat="47.29854" lon="4.91538">
        <ele>403</ele>
        <time>2013-01-12T08:40:48Z</time>
      </trkpt>
      <trkpt lat="47.29854" lon="4.91531">
        <ele>398</ele>
        <time>2013-01-12T08:40:54Z</time>
      </trkpt>
      <trkpt lat="47.29854" lon="4.91522">
        <ele>396</ele>
        <time>2013-01-12T08:40:58Z</time>
      </trkpt>
      <trkpt lat="47.29855" lon="4.91515">
        <ele>392</ele>
        <time>2013-01-12T08:41:02Z</time>
      </trkpt>
      <trkpt lat="47.29855" lon="4.91508">
        <ele>390</ele>
        <time>2013-01-12T08:41:05Z</time>
      </trkpt>
      <trkpt lat="47.29854" lon="4.91501">
        <ele>389</ele>
        <time>2013-01-12T08:41:09Z</time>
      </trkpt>
      <trkpt lat="47.29854" lon="4.91494">
        <ele>388</ele>
        <time>2013-01-12T08:41:13Z</time>
      </trkpt>
      <trkpt lat="47.29855" lon="4.91484">
        <ele>387</ele>
        <time>2013-01-12T08:41:17Z</time>
      </trkpt>
      <trkpt lat="47.29857" lon="4.91478">
        <ele>386</ele>
        <time>2013-01-12T08:41:23Z</time>
      </trkpt>
      <trkpt lat="47.29856" lon="4.91471">
        <ele>385</ele>
        <time>2013-01-12T08:41:27Z</time>
      </trkpt>
      <trkpt lat="47.29854" lon="4.91464">
        <ele>387</ele>
        <time>2013-01-12T08:41:31Z</time>
      </trkpt>
      <trkpt lat="47.29857" lon="4.91456">
        <ele>385</ele>
        <time>2013-01-12T08:41:35Z</time>
      </trkpt>
      <trkpt lat="47.29859" lon="4.9145">
        <ele>383</ele>
        <time>2013-01-12T08:41:37Z</time>
      </trkpt>
      <trkpt lat="47.29863" lon="4.91445">
        <ele>382</ele>
        <time>2013-01-12T08:41:40Z</time>
      </trkpt>
      <trkpt lat="47.29867" lon="4.91442">
        <ele>385</ele>
        <time>2013-01-12T08:41:45Z</time>
      </trkpt>
      <trkpt lat="47.29871" lon="4.91438">
        <ele>385</ele>
        <time>2013-01-12T08:41:48Z</time>
      </trkpt>
      <trkpt lat="47.29876" lon="4.91435">
        <ele>385</ele>
        <time>2013-01-12T08:41:52Z</time>
      </trkpt>
      <trkpt lat="47.2988" lon="4.9144">
        <ele>387</ele>
        <time>2013-01-12T08:41:56Z</time>
      </trkpt>
      <trkpt lat="47.29886" lon="4.91441">
        <ele>387</ele>
        <time>2013-01-12T08:41:59Z</time>
      </trkpt>
      <trkpt lat="47.29893" lon="4.91442">
        <ele>385</ele>
        <time>2013-01-12T08:42:03Z</time>
      </trkpt>
      <trkpt lat="47.29897" lon="4.91443">
        <ele>382</ele>
        <time>2013-01-12T08:42:07Z</time>
      </trkpt>
      <trkpt lat="47.29902" lon="4.91444">
        <ele>380</ele>
        <time>2013-01-12T08:42:11Z</time>
      </trkpt>
      <trkpt lat="47.29907" lon="4.9144">
        <ele>377</ele>
        <time>2013-01-12T08:42:19Z</time>
      </trkpt>
      <trkpt lat="47.29912" lon="4.91438">
        <ele>373</ele>
        <time>2013-01-12T08:42:24Z</time>
      </trkpt>
      <trkpt lat="47.29916" lon="4.91434">
        <ele>373</ele>
        <time>2013-01-12T08:42:31Z</time>
      </trkpt>
      <trkpt lat="47.29917" lon="4.91426">
        <ele>373</ele>
        <time>2013-01-12T08:42:45Z</time>
      </trkpt>
      <trkpt lat="47.29917" lon="4.91417">
        <ele>373</ele>
        <time>2013-01-12T08:42:56Z</time>
      </trkpt>
      <trkpt lat="47.29916" lon="4.9141">
        <ele>374</ele>
        <time>2013-01-12T08:43:03Z</time>
      </trkpt>
      <trkpt lat="47.29919" lon="4.91403">
        <ele>374</ele>
        <time>2013-01-12T08:43:09Z</time>
      </trkpt>
      <trkpt lat="47.2992" lon="4.91396">
        <ele>373</ele>
        <time>2013-01-12T08:43:18Z</time>
      </trkpt>
      <trkpt lat="47.29923" lon="4.9139">
        <ele>373</ele>
        <time>2013-01-12T08:43:25Z</time>
      </trkpt>
      <trkpt lat="47.29926" lon="4.91385">
        <ele>377</ele>
        <time>2013-01-12T08:43:43Z</time>
      </trkpt>
      <trkpt lat="47.29926" lon="4.91385">
        <ele>377</ele>
        <time>2013-01-12T08:43:43Z</time>
      </trkpt>
      <trkpt lat="47.29926" lon="4.91385">
        <ele>377</ele>
        <time>2013-01-12T08:43:44Z</time>
      </trkpt>
      <trkpt lat="47.29923" lon="4.91379">
        <ele>382</ele>
        <time>2013-01-12T08:43:54Z</time>
      </trkpt>
      <trkpt lat="47.29926" lon="4.91373">
        <ele>383</ele>
        <time>2013-01-12T08:44:02Z</time>
      </trkpt>
      <trkpt lat="47.29926" lon="4.91373">
        <ele>383</ele>
        <time>2013-01-12T08:44:02Z</time>
      </trkpt>
      <trkpt lat="47.29926" lon="4.91373">
        <ele>382</ele>
        <time>2013-01-12T08:44:03Z</time>
      </trkpt>
      <trkpt lat="47.29926" lon="4.91365">
        <ele>382</ele>
        <time>2013-01-12T08:44:13Z</time>
      </trkpt>
      <trkpt lat="47.29929" lon="4.91359">
        <ele>386</ele>
        <time>2013-01-12T08:44:20Z</time>
      </trkpt>
      <trkpt lat="47.29931" lon="4.91352">
        <ele>389</ele>
        <time>2013-01-12T08:44:27Z</time>
      </trkpt>
      <trkpt lat="47.29931" lon="4.91345">
        <ele>390</ele>
        <time>2013-01-12T08:44:34Z</time>
      </trkpt>
      <trkpt lat="47.29931" lon="4.91345">
        <ele>390</ele>
        <time>2013-01-12T08:44:34Z</time>
      </trkpt>
      <trkpt lat="47.29931" lon="4.91345">
        <ele>392</ele>
        <time>2013-01-12T08:44:37Z</time>
      </trkpt>
      <trkpt lat="47.2993" lon="4.91338">
        <ele>392</ele>
        <time>2013-01-12T08:44:44Z</time>
      </trkpt>
      <trkpt lat="47.29932" lon="4.91332">
        <ele>394</ele>
        <time>2013-01-12T08:44:49Z</time>
      </trkpt>
      <trkpt lat="47.29933" lon="4.91325">
        <ele>396</ele>
        <time>2013-01-12T08:45:01Z</time>
      </trkpt>
      <trkpt lat="47.29935" lon="4.91319">
        <ele>398</ele>
        <time>2013-01-12T08:45:08Z</time>
      </trkpt>
      <trkpt lat="47.29936" lon="4.91312">
        <ele>403</ele>
        <time>2013-01-12T08:45:23Z</time>
      </trkpt>
      <trkpt lat="47.29938" lon="4.91306">
        <ele>408</ele>
        <time>2013-01-12T08:45:31Z</time>
      </trkpt>
      <trkpt lat="47.29938" lon="4.91299">
        <ele>412</ele>
        <time>2013-01-12T08:45:41Z</time>
      </trkpt>
      <trkpt lat="47.29939" lon="4.91292">
        <ele>412</ele>
        <time>2013-01-12T08:45:49Z</time>
      </trkpt>
      <trkpt lat="47.29941" lon="4.91284">
        <ele>418</ele>
        <time>2013-01-12T08:46:11Z</time>
      </trkpt>
      <trkpt lat="47.2994" lon="4.91277">
        <ele>418</ele>
        <time>2013-01-12T08:46:17Z</time>
      </trkpt>
      <trkpt lat="47.29943" lon="4.9127">
        <ele>420</ele>
        <time>2013-01-12T08:46:27Z</time>
      </trkpt>
      <trkpt lat="47.29945" lon="4.91264">
        <ele>423</ele>
        <time>2013-01-12T08:46:34Z</time>
      </trkpt>
      <trkpt lat="47.29948" lon="4.91258">
        <ele>421</ele>
        <time>2013-01-12T08:46:43Z</time>
      </trkpt>
      <trkpt lat="47.29946" lon="4.9125">
        <ele>426</ele>
        <time>2013-01-12T08:46:54Z</time>
      </trkpt>
      <trkpt lat="47.29946" lon="4.91243">
        <ele>427</ele>
        <time>2013-01-12T08:46:59Z</time>
      </trkpt>
      <trkpt lat="47.29947" lon="4.91236">
        <ele>427</ele>
        <time>2013-01-12T08:47:11Z</time>
      </trkpt>
      <trkpt lat="47.2995" lon="4.9123">
        <ele>427</ele>
        <time>2013-01-12T08:47:24Z</time>
      </trkpt>
      <trkpt lat="47.29948" lon="4.91224">
        <ele>426</ele>
        <time>2013-01-12T08:47:34Z</time>
      </trkpt>
      <trkpt lat="47.29946" lon="4.91217">
        <ele>428</ele>
        <time>2013-01-12T08:47:41Z</time>
      </trkpt>
      <trkpt lat="47.29946" lon="4.91217">
        <ele>428</ele>
        <time>2013-01-12T08:47:41Z</time>
      </trkpt>
      <trkpt lat="47.29946" lon="4.91217">
        <ele>429</ele>
        <time>2013-01-12T08:47:42Z</time>
      </trkpt>
      <trkpt lat="47.2995" lon="4.91212">
        <ele>431</ele>
        <time>2013-01-12T08:47:49Z</time>
      </trkpt>
      <trkpt lat="47.29951" lon="4.91205">
        <ele>437</ele>
        <time>2013-01-12T08:48:11Z</time>
      </trkpt>
      <trkpt lat="47.29951" lon="4.91205">
        <ele>437</ele>
        <time>2013-01-12T08:48:11Z</time>
      </trkpt>
      <trkpt lat="47.29951" lon="4.91205">
        <ele>438</ele>
        <time>2013-01-12T08:48:12Z</time>
      </trkpt>
      <trkpt lat="47.29953" lon="4.91197">
        <ele>439</ele>
        <time>2013-01-12T08:48:24Z</time>
      </trkpt>
      <trkpt lat="47.29955" lon="4.9119">
        <ele>439</ele>
        <time>2013-01-12T08:48:28Z</time>
      </trkpt>
      <trkpt lat="47.29958" lon="4.91184">
        <ele>440</ele>
        <time>2013-01-12T08:48:34Z</time>
      </trkpt>
      <trkpt lat="47.29959" lon="4.91177">
        <ele>443</ele>
        <time>2013-01-12T08:48:41Z</time>
      </trkpt>
      <trkpt lat="47.29962" lon="4.91172">
        <ele>445</ele>
        <time>2013-01-12T08:48:48Z</time>
      </trkpt>
      <trkpt lat="47.29961" lon="4.91165">
        <ele>448</ele>
        <time>2013-01-12T08:48:58Z</time>
      </trkpt>
      <trkpt lat="47.29961" lon="4.91156">
        <ele>449</ele>
        <time>2013-01-12T08:49:02Z</time>
      </trkpt>
      <trkpt lat="47.29963" lon="4.9115">
        <ele>449</ele>
        <time>2013-01-12T08:49:09Z</time>
      </trkpt>
      <trkpt lat="47.29964" lon="4.91144">
        <ele>453</ele>
        <time>2013-01-12T08:49:17Z</time>
      </trkpt>
      <trkpt lat="47.29965" lon="4.91136">
        <ele>456</ele>
        <time>2013-01-12T08:49:25Z</time>
      </trkpt>
      <trkpt lat="47.29967" lon="4.9113">
        <ele>458</ele>
        <time>2013-01-12T08:49:30Z</time>
      </trkpt>
      <trkpt lat="47.29967" lon="4.91122">
        <ele>457</ele>
        <time>2013-01-12T08:49:35Z</time>
      </trkpt>
      <trkpt lat="47.29968" lon="4.91115">
        <ele>462</ele>
        <time>2013-01-12T08:49:40Z</time>
      </trkpt>
      <trkpt lat="47.29968" lon="4.91106">
        <ele>462</ele>
        <time>2013-01-12T08:49:44Z</time>
      </trkpt>
      <trkpt lat="47.2997" lon="4.91098">
        <ele>462</ele>
        <time>2013-01-12T08:49:48Z</time>
      </trkpt>
      <trkpt lat="47.29972" lon="4.91091">
        <ele>462</ele>
        <time>2013-01-12T08:49:53Z</time>
      </trkpt>
      <trkpt lat="47.29973" lon="4.91084">
        <ele>463</ele>
        <time>2013-01-12T08:49:57Z</time>
      </trkpt>
      <trkpt lat="47.29974" lon="4.91078">
        <ele>466</ele>
        <time>2013-01-12T08:50:01Z</time>
      </trkpt>
      <trkpt lat="47.29975" lon="4.91071">
        <ele>468</ele>
        <time>2013-01-12T08:50:05Z</time>
      </trkpt>
      <trkpt lat="47.29975" lon="4.91062">
        <ele>466</ele>
        <time>2013-01-12T08:50:10Z</time>
      </trkpt>
      <trkpt lat="47.29978" lon="4.91057">
        <ele>466</ele>
        <time>2013-01-12T08:50:17Z</time>
      </trkpt>
      <trkpt lat="47.29978" lon="4.91049">
        <ele>466</ele>
        <time>2013-01-12T08:50:22Z</time>
      </trkpt>
      <trkpt lat="47.29975" lon="4.91043">
        <ele>467</ele>
        <time>2013-01-12T08:50:27Z</time>
      </trkpt>
      <trkpt lat="47.29971" lon="4.91037">
        <ele>467</ele>
        <time>2013-01-12T08:50:33Z</time>
      </trkpt>
      <trkpt lat="47.29968" lon="4.91032">
        <ele>469</ele>
        <time>2013-01-12T08:50:38Z</time>
      </trkpt>
      <trkpt lat="47.29963" lon="4.91028">
        <ele>470</ele>
        <time>2013-01-12T08:50:41Z</time>
      </trkpt>
      <trkpt lat="47.29963" lon="4.91028">
        <ele>470</ele>
        <time>2013-01-12T08:50:41Z</time>
      </trkpt>
      <trkpt lat="47.29963" lon="4.91028">
        <ele>471</ele>
        <time>2013-01-12T08:50:42Z</time>
      </trkpt>
      <trkpt lat="47.29959" lon="4.91024">
        <ele>471</ele>
        <time>2013-01-12T08:50:45Z</time>
      </trkpt>
      <trkpt lat="47.29954" lon="4.91021">
        <ele>473</ele>
        <time>2013-01-12T08:50:49Z</time>
      </trkpt>
      <trkpt lat="47.29949" lon="4.91019">
        <ele>471</ele>
        <time>2013-01-12T08:50:52Z</time>
      </trkpt>
      <trkpt lat="47.29946" lon="4.91014">
        <ele>472</ele>
        <time>2013-01-12T08:50:55Z</time>
      </trkpt>
      <trkpt lat="47.29946" lon="4.91014">
        <ele>472</ele>
        <time>2013-01-12T08:50:55Z</time>
      </trkpt>
      <trkpt lat="47.29946" lon="4.91014">
        <ele>474</ele>
        <time>2013-01-12T08:50:56Z</time>
      </trkpt>
      <trkpt lat="47.2994" lon="4.91012">
        <ele>475</ele>
        <time>2013-01-12T08:51:00Z</time>
      </trkpt>
      <trkpt lat="47.29935" lon="4.91007">
        <ele>484</ele>
        <time>2013-01-12T08:51:05Z</time>
      </trkpt>
      <trkpt lat="47.29931" lon="4.91002">
        <ele>483</ele>
        <time>2013-01-12T08:51:09Z</time>
      </trkpt>
      <trkpt lat="47.29926" lon="4.90999">
        <ele>483</ele>
        <time>2013-01-12T08:51:14Z</time>
      </trkpt>
      <trkpt lat="47.29923" lon="4.90993">
        <ele>481</ele>
        <time>2013-01-12T08:51:18Z</time>
      </trkpt>
      <trkpt lat="47.29919" lon="4.90988">
        <ele>483</ele>
        <time>2013-01-12T08:51:23Z</time>
      </trkpt>
      <trkpt lat="47.29913" lon="4.90984">
        <ele>483</ele>
        <time>2013-01-12T08:51:29Z</time>
      </trkpt>
      <trkpt lat="47.29909" lon="4.90979">
        <ele>485</ele>
        <time>2013-01-12T08:51:32Z</time>
      </trkpt>
      <trkpt lat="47.29905" lon="4.90976">
        <ele>485</ele>
        <time>2013-01-12T08:51:36Z</time>
      </trkpt>
      <trkpt lat="47.29901" lon="4.90973">
        <ele>488</ele>
        <time>2013-01-12T08:51:40Z</time>
      </trkpt>
      <trkpt lat="47.29896" lon="4.90969">
        <ele>490</ele>
        <time>2013-01-12T08:51:45Z</time>
      </trkpt>
      <trkpt lat="47.29894" lon="4.90963">
        <ele>492</ele>
        <time>2013-01-12T08:51:49Z</time>
      </trkpt>
      <trkpt lat="47.2989" lon="4.90959">
        <ele>491</ele>
        <time>2013-01-12T08:51:55Z</time>
      </trkpt>
      <trkpt lat="47.29886" lon="4.90954">
        <ele>489</ele>
        <time>2013-01-12T08:51:58Z</time>
      </trkpt>
      <trkpt lat="47.29884" lon="4.90948">
        <ele>490</ele>
        <time>2013-01-12T08:52:03Z</time>
      </trkpt>
      <trkpt lat="47.29879" lon="4.90942">
        <ele>490</ele>
        <time>2013-01-12T08:52:08Z</time>
      </trkpt>
      <trkpt lat="47.29874" lon="4.90942">
        <ele>488</ele>
        <time>2013-01-12T08:52:10Z</time>
      </trkpt>
      <trkpt lat="47.2987" lon="4.90939">
        <ele>489</ele>
        <time>2013-01-12T08:52:14Z</time>
      </trkpt>
      <trkpt lat="47.29865" lon="4.90935">
        <ele>489</ele>
        <time>2013-01-12T08:52:18Z</time>
      </trkpt>
      <trkpt lat="47.29861" lon="4.90933">
        <ele>491</ele>
        <time>2013-01-12T08:52:21Z</time>
      </trkpt>
      <trkpt lat="47.29856" lon="4.90933">
        <ele>490</ele>
        <time>2013-01-12T08:52:25Z</time>
      </trkpt>
      <trkpt lat="47.29851" lon="4.9093">
        <ele>491</ele>
        <time>2013-01-12T08:52:29Z</time>
      </trkpt>
      <trkpt lat="47.29846" lon="4.90927">
        <ele>492</ele>
        <time>2013-01-12T08:52:32Z</time>
      </trkpt>
      <trkpt lat="47.29843" lon="4.90922">
        <ele>493</ele>
        <time>2013-01-12T08:52:38Z</time>
      </trkpt>
      <trkpt lat="47.29837" lon="4.9092">
        <ele>491</ele>
        <time>2013-01-12T08:52:41Z</time>
      </trkpt>
      <trkpt lat="47.29833" lon="4.90916">
        <ele>491</ele>
        <time>2013-01-12T08:52:43Z</time>
      </trkpt>
      <trkpt lat="47.29828" lon="4.90911">
        <ele>491</ele>
        <time>2013-01-12T08:52:46Z</time>
      </trkpt>
      <trkpt lat="47.29823" lon="4.90909">
        <ele>489</ele>
        <time>2013-01-12T08:52:49Z</time>
      </trkpt>
      <trkpt lat="47.2982" lon="4.90901">
        <ele>484</ele>
        <time>2013-01-12T08:52:52Z</time>
      </trkpt>
      <trkpt lat="47.29819" lon="4.90892">
        <ele>484</ele>
        <time>2013-01-12T08:52:56Z</time>
      </trkpt>
      <trkpt lat="47.29821" lon="4.90886">
        <ele>485</ele>
        <time>2013-01-12T08:52:59Z</time>
      </trkpt>
      <trkpt lat="47.29824" lon="4.9088">
        <ele>488</ele>
        <time>2013-01-12T08:53:03Z</time>
      </trkpt>
      <trkpt lat="47.29826" lon="4.90873">
        <ele>490</ele>
        <time>2013-01-12T08:53:08Z</time>
      </trkpt>
      <trkpt lat="47.2983" lon="4.90867">
        <ele>492</ele>
        <time>2013-01-12T08:53:13Z</time>
      </trkpt>
      <trkpt lat="47.29835" lon="4.90861">
        <ele>492</ele>
        <time>2013-01-12T08:53:17Z</time>
      </trkpt>
      <trkpt lat="47.29838" lon="4.90856">
        <ele>492</ele>
        <time>2013-01-12T08:53:21Z</time>
      </trkpt>
      <trkpt lat="47.29842" lon="4.90852">
        <ele>492</ele>
        <time>2013-01-12T08:53:24Z</time>
      </trkpt>
      <trkpt lat="47.29848" lon="4.9085">
        <ele>492</ele>
        <time>2013-01-12T08:53:26Z</time>
      </trkpt>
      <trkpt lat="47.29851" lon="4.90843">
        <ele>491</ele>
        <time>2013-01-12T08:53:29Z</time>
      </trkpt>
      <trkpt lat="47.29854" lon="4.90837">
        <ele>492</ele>
        <time>2013-01-12T08:53:32Z</time>
      </trkpt>
      <trkpt lat="47.29857" lon="4.90832">
        <ele>492</ele>
        <time>2013-01-12T08:53:35Z</time>
      </trkpt>
      <trkpt lat="47.29861" lon="4.90823">
        <ele>492</ele>
        <time>2013-01-12T08:53:38Z</time>
      </trkpt>
      <trkpt lat="47.29864" lon="4.90817">
        <ele>491</ele>
        <time>2013-01-12T08:53:40Z</time>
      </trkpt>
      <trkpt lat="47.29865" lon="4.90807">
        <ele>488</ele>
        <time>2013-01-12T08:53:43Z</time>
      </trkpt>
      <trkpt lat="47.29865" lon="4.90798">
        <ele>488</ele>
        <time>2013-01-12T08:53:47Z</time>
      </trkpt>
      <trkpt lat="47.29865" lon="4.90789">
        <ele>488</ele>
        <time>2013-01-12T08:53:51Z</time>
      </trkpt>
      <trkpt lat="47.29867" lon="4.90784">
        <ele>488</ele>
        <time>2013-01-12T08:53:53Z</time>
      </trkpt>
      <trkpt lat="47.2987" lon="4.90778">
        <ele>489</ele>
        <time>2013-01-12T08:53:57Z</time>
      </trkpt>
      <trkpt lat="47.29869" lon="4.9077">
        <ele>489</ele>
        <time>2013-01-12T08:54:01Z</time>
      </trkpt>
      <trkpt lat="47.29872" lon="4.90763">
        <ele>489</ele>
        <time>2013-01-12T08:54:04Z</time>
      </trkpt>
      <trkpt lat="47.29873" lon="4.90756">
        <ele>489</ele>
        <time>2013-01-12T08:54:06Z</time>
      </trkpt>
      <trkpt lat="47.29875" lon="4.90747">
        <ele>487</ele>
        <time>2013-01-12T08:54:09Z</time>
      </trkpt>
      <trkpt lat="47.29876" lon="4.90739">
        <ele>488</ele>
        <time>2013-01-12T08:54:13Z</time>
      </trkpt>
      <trkpt lat="47.29877" lon="4.90731">
        <ele>487</ele>
        <time>2013-01-12T08:54:16Z</time>
      </trkpt>
      <trkpt lat="47.29881" lon="4.90726">
        <ele>486</ele>
        <time>2013-01-12T08:54:19Z</time>
      </trkpt>
      <trkpt lat="47.29885" lon="4.9072">
        <ele>486</ele>
        <time>2013-01-12T08:54:22Z</time>
      </trkpt>
      <trkpt lat="47.29886" lon="4.90713">
        <ele>486</ele>
        <time>2013-01-12T08:54:26Z</time>
      </trkpt>
      <trkpt lat="47.29886" lon="4.90706">
        <ele>484</ele>
        <time>2013-01-12T08:54:28Z</time>
      </trkpt>
      <trkpt lat="47.29885" lon="4.90698">
        <ele>482</ele>
        <time>2013-01-12T08:54:31Z</time>
      </trkpt>
      <trkpt lat="47.29885" lon="4.9069">
        <ele>481</ele>
        <time>2013-01-12T08:54:33Z</time>
      </trkpt>
      <trkpt lat="47.29886" lon="4.90683">
        <ele>480</ele>
        <time>2013-01-12T08:54:37Z</time>
      </trkpt>
      <trkpt lat="47.2989" lon="4.90678">
        <ele>481</ele>
        <time>2013-01-12T08:54:39Z</time>
      </trkpt>
      <trkpt lat="47.2989" lon="4.9067">
        <ele>481</ele>
        <time>2013-01-12T08:54:43Z</time>
      </trkpt>
      <trkpt lat="47.2989" lon="4.90663">
        <ele>479</ele>
        <time>2013-01-12T08:54:45Z</time>
      </trkpt>
      <trkpt lat="47.29894" lon="4.90658">
        <ele>479</ele>
        <time>2013-01-12T08:54:47Z</time>
      </trkpt>
      <trkpt lat="47.29897" lon="4.9065">
        <ele>478</ele>
        <time>2013-01-12T08:54:49Z</time>
      </trkpt>
      <trkpt lat="47.29897" lon="4.90642">
        <ele>479</ele>
        <time>2013-01-12T08:54:53Z</time>
      </trkpt>
      <trkpt lat="47.299" lon="4.90636">
        <ele>480</ele>
        <time>2013-01-12T08:54:56Z</time>
      </trkpt>
      <trkpt lat="47.29897" lon="4.90628">
        <ele>481</ele>
        <time>2013-01-12T08:55:01Z</time>
      </trkpt>
      <trkpt lat="47.29896" lon="4.9062">
        <ele>483</ele>
        <time>2013-01-12T08:55:05Z</time>
      </trkpt>
      <trkpt lat="47.29896" lon="4.90611">
        <ele>484</ele>
        <time>2013-01-12T08:55:09Z</time>
      </trkpt>
      <trkpt lat="47.29893" lon="4.90605">
        <ele>483</ele>
        <time>2013-01-12T08:55:11Z</time>
      </trkpt>
      <trkpt lat="47.29894" lon="4.90598">
        <ele>483</ele>
        <time>2013-01-12T08:55:14Z</time>
      </trkpt>
      <trkpt lat="47.29894" lon="4.9059">
        <ele>483</ele>
        <time>2013-01-12T08:55:18Z</time>
      </trkpt>
      <trkpt lat="47.29895" lon="4.90582">
        <ele>485</ele>
        <time>2013-01-12T08:55:23Z</time>
      </trkpt>
      <trkpt lat="47.29896" lon="4.90574">
        <ele>486</ele>
        <time>2013-01-12T08:55:26Z</time>
      </trkpt>
      <trkpt lat="47.29896" lon="4.90565">
        <ele>487</ele>
        <time>2013-01-12T08:55:30Z</time>
      </trkpt>
      <trkpt lat="47.29897" lon="4.90555">
        <ele>490</ele>
        <time>2013-01-12T08:55:34Z</time>
      </trkpt>
      <trkpt lat="47.29898" lon="4.90546">
        <ele>489</ele>
        <time>2013-01-12T08:55:37Z</time>
      </trkpt>
      <trkpt lat="47.29899" lon="4.90538">
        <ele>489</ele>
        <time>2013-01-12T08:55:40Z</time>
      </trkpt>
      <trkpt lat="47.29898" lon="4.9053">
        <ele>489</ele>
        <time>2013-01-12T08:55:43Z</time>
      </trkpt>
      <trkpt lat="47.29896" lon="4.90522">
        <ele>489</ele>
        <time>2013-01-12T08:55:47Z</time>
      </trkpt>
      <trkpt lat="47.29898" lon="4.90516">
        <ele>490</ele>
        <time>2013-01-12T08:55:51Z</time>
      </trkpt>
      <trkpt lat="47.299" lon="4.90506">
        <ele>492</ele>
        <time>2013-01-12T08:55:56Z</time>
      </trkpt>
      <trkpt lat="47.29902" lon="4.90498">
        <ele>492</ele>
        <time>2013-01-12T08:55:59Z</time>
      </trkpt>
      <trkpt lat="47.29901" lon="4.90491">
        <ele>492</ele>
        <time>2013-01-12T08:56:04Z</time>
      </trkpt>
      <trkpt lat="47.29903" lon="4.90485">
        <ele>495</ele>
        <time>2013-01-12T08:56:11Z</time>
      </trkpt>
      <trkpt lat="47.29905" lon="4.90478">
        <ele>497</ele>
        <time>2013-01-12T08:56:18Z</time>
      </trkpt>
      <trkpt lat="47.29902" lon="4.90472">
        <ele>496</ele>
        <time>2013-01-12T08:56:22Z</time>
      </trkpt>
      <trkpt lat="47.299" lon="4.90466">
        <ele>497</ele>
        <time>2013-01-12T08:56:28Z</time>
      </trkpt>
      <trkpt lat="47.29899" lon="4.90458">
        <ele>499</ele>
        <time>2013-01-12T08:56:35Z</time>
      </trkpt>
      <trkpt lat="47.29895" lon="4.90452">
        <ele>500</ele>
        <time>2013-01-12T08:56:44Z</time>
      </trkpt>
      <trkpt lat="47.29895" lon="4.90442">
        <ele>503</ele>
        <time>2013-01-12T08:56:51Z</time>
      </trkpt>
      <trkpt lat="47.29892" lon="4.90436">
        <ele>504</ele>
        <time>2013-01-12T08:56:58Z</time>
      </trkpt>
      <trkpt lat="47.29892" lon="4.90436">
        <ele>504</ele>
        <time>2013-01-12T08:56:58Z</time>
      </trkpt>
      <trkpt lat="47.29892" lon="4.90436">
        <ele>504</ele>
        <time>2013-01-12T08:56:59Z</time>
      </trkpt>
      <trkpt lat="47.2989" lon="4.9043">
        <ele>504</ele>
        <time>2013-01-12T08:57:05Z</time>
      </trkpt>
      <trkpt lat="47.29888" lon="4.90424">
        <ele>505</ele>
        <time>2013-01-12T08:57:12Z</time>
      </trkpt>
      <trkpt lat="47.29886" lon="4.90416">
        <ele>505</ele>
        <time>2013-01-12T08:57:17Z</time>
      </trkpt>
      <trkpt lat="47.29886" lon="4.90409">
        <ele>509</ele>
        <time>2013-01-12T08:57:27Z</time>
      </trkpt>
      <trkpt lat="47.29882" lon="4.90405">
        <ele>510</ele>
        <time>2013-01-12T08:57:32Z</time>
      </trkpt>
      <trkpt lat="47.29881" lon="4.90397">
        <ele>511</ele>
        <time>2013-01-12T08:57:40Z</time>
      </trkpt>
      <trkpt lat="47.29882" lon="4.9039">
        <ele>513</ele>
        <time>2013-01-12T08:57:45Z</time>
      </trkpt>
      <trkpt lat="47.29878" lon="4.90385">
        <ele>514</ele>
        <time>2013-01-12T08:57:54Z</time>
      </trkpt>
      <trkpt lat="47.29876" lon="4.90379">
        <ele>516</ele>
        <time>2013-01-12T08:58:02Z</time>
      </trkpt>
      <trkpt lat="47.29876" lon="4.90371">
        <ele>518</ele>
        <time>2013-01-12T08:58:18Z</time>
      </trkpt>
      <trkpt lat="47.29874" lon="4.90364">
        <ele>521</ele>
        <time>2013-01-12T08:58:32Z</time>
      </trkpt>
      <trkpt lat="47.29874" lon="4.90364">
        <ele>521</ele>
        <time>2013-01-12T08:58:32Z</time>
      </trkpt>
      <trkpt lat="47.29874" lon="4.90364">
        <ele>521</ele>
        <time>2013-01-12T08:58:33Z</time>
      </trkpt>
      <trkpt lat="47.29873" lon="4.90357">
        <ele>523</ele>
        <time>2013-01-12T08:58:40Z</time>
      </trkpt>
      <trkpt lat="47.29871" lon="4.9035">
        <ele>523</ele>
        <time>2013-01-12T08:58:47Z</time>
      </trkpt>
      <trkpt lat="47.29871" lon="4.90342">
        <ele>523</ele>
        <time>2013-01-12T08:58:55Z</time>
      </trkpt>
      <trkpt lat="47.29875" lon="4.90336">
        <ele>523</ele>
        <time>2013-01-12T08:59:01Z</time>
      </trkpt>
      <trkpt lat="47.2988" lon="4.90332">
        <ele>526</ele>
        <time>2013-01-12T08:59:04Z</time>
      </trkpt>
      <trkpt lat="47.29884" lon="4.90331">
        <ele>529</ele>
        <time>2013-01-12T08:59:08Z</time>
      </trkpt>
      <trkpt lat="47.29888" lon="4.90328">
        <ele>532</ele>
        <time>2013-01-12T08:59:14Z</time>
      </trkpt>
      <trkpt lat="47.29893" lon="4.90323">
        <ele>532</ele>
        <time>2013-01-12T08:59:18Z</time>
      </trkpt>
      <trkpt lat="47.29897" lon="4.90319">
        <ele>533</ele>
        <time>2013-01-12T08:59:21Z</time>
      </trkpt>
      <trkpt lat="47.29902" lon="4.90317">
        <ele>533</ele>
        <time>2013-01-12T08:59:27Z</time>
      </trkpt>
      <trkpt lat="47.29907" lon="4.90313">
        <ele>533</ele>
        <time>2013-01-12T08:59:31Z</time>
      </trkpt>
      <trkpt lat="47.2991" lon="4.90308">
        <ele>535</ele>
        <time>2013-01-12T08:59:35Z</time>
      </trkpt>
      <trkpt lat="47.29916" lon="4.90304">
        <ele>538</ele>
        <time>2013-01-12T08:59:41Z</time>
      </trkpt>
      <trkpt lat="47.2992" lon="4.90302">
        <ele>539</ele>
        <time>2013-01-12T08:59:44Z</time>
      </trkpt>
      <trkpt lat="47.29926" lon="4.903">
        <ele>538</ele>
        <time>2013-01-12T08:59:47Z</time>
      </trkpt>
      <trkpt lat="47.29932" lon="4.90297">
        <ele>538</ele>
        <time>2013-01-12T08:59:51Z</time>
      </trkpt>
      <trkpt lat="47.29938" lon="4.90298">
        <ele>538</ele>
        <time>2013-01-12T08:59:55Z</time>
      </trkpt>
      <trkpt lat="47.29944" lon="4.90294">
        <ele>538</ele>
        <time>2013-01-12T08:59:58Z</time>
      </trkpt>
      <trkpt lat="47.29949" lon="4.90292">
        <ele>540</ele>
        <time>2013-01-12T09:00:02Z</time>
      </trkpt>
      <trkpt lat="47.29955" lon="4.90291">
        <ele>540</ele>
        <time>2013-01-12T09:00:06Z</time>
      </trkpt>
      <trkpt lat="47.2996" lon="4.90288">
        <ele>540</ele>
        <time>2013-01-12T09:00:09Z</time>
      </trkpt>
      <trkpt lat="47.29965" lon="4.90284">
        <ele>538</ele>
        <time>2013-01-12T09:00:13Z</time>
      </trkpt>
      <trkpt lat="47.29969" lon="4.90278">
        <ele>535</ele>
        <time>2013-01-12T09:00:16Z</time>
      </trkpt>
      <trkpt lat="47.29974" lon="4.90274">
        <ele>535</ele>
        <time>2013-01-12T09:00:19Z</time>
      </trkpt>
      <trkpt lat="47.29981" lon="4.9028">
        <ele>530</ele>
        <time>2013-01-12T09:00:22Z</time>
      </trkpt>
      <trkpt lat="47.29979" lon="4.90274">
        <ele>526</ele>
        <time>2013-01-12T09:00:35Z</time>
      </trkpt>
      <trkpt lat="47.29974" lon="4.9027">
        <ele>530</ele>
        <time>2013-01-12T09:00:42Z</time>
      </trkpt>
      <trkpt lat="47.29969" lon="4.90269">
        <ele>532</ele>
        <time>2013-01-12T09:00:49Z</time>
      </trkpt>
      <trkpt lat="47.29963" lon="4.90266">
        <ele>536</ele>
        <time>2013-01-12T09:00:57Z</time>
      </trkpt>
      <trkpt lat="47.29958" lon="4.90266">
        <ele>539</ele>
        <time>2013-01-12T09:01:03Z</time>
      </trkpt>
      <trkpt lat="47.29952" lon="4.90264">
        <ele>541</ele>
        <time>2013-01-12T09:01:11Z</time>
      </trkpt>
      <trkpt lat="47.29947" lon="4.90263">
        <ele>543</ele>
        <time>2013-01-12T09:01:16Z</time>
      </trkpt>
      <trkpt lat="47.29943" lon="4.9026">
        <ele>544</ele>
        <time>2013-01-12T09:01:23Z</time>
      </trkpt>
      <trkpt lat="47.29938" lon="4.90258">
        <ele>545</ele>
        <time>2013-01-12T09:01:31Z</time>
      </trkpt>
      <trkpt lat="47.29933" lon="4.90256">
        <ele>545</ele>
        <time>2013-01-12T09:01:37Z</time>
      </trkpt>
      <trkpt lat="47.29929" lon="4.90254">
        <ele>547</ele>
        <time>2013-01-12T09:01:45Z</time>
      </trkpt>
      <trkpt lat="47.29922" lon="4.90256">
        <ele>550</ele>
        <time>2013-01-12T09:01:51Z</time>
      </trkpt>
      <trkpt lat="47.29916" lon="4.90254">
        <ele>551</ele>
        <time>2013-01-12T09:01:58Z</time>
      </trkpt>
      <trkpt lat="47.2991" lon="4.90252">
        <ele>551</ele>
        <time>2013-01-12T09:02:03Z</time>
      </trkpt>
      <trkpt lat="47.29906" lon="4.90249">
        <ele>551</ele>
        <time>2013-01-12T09:02:08Z</time>
      </trkpt>
      <trkpt lat="47.29902" lon="4.90246">
        <ele>552</ele>
        <time>2013-01-12T09:02:14Z</time>
      </trkpt>
      <trkpt lat="47.29897" lon="4.90245">
        <ele>554</ele>
        <time>2013-01-12T09:02:23Z</time>
      </trkpt>
      <trkpt lat="47.29892" lon="4.90244">
        <ele>556</ele>
        <time>2013-01-12T09:02:30Z</time>
      </trkpt>
      <trkpt lat="47.29887" lon="4.90244">
        <ele>558</ele>
        <time>2013-01-12T09:02:36Z</time>
      </trkpt>
      <trkpt lat="47.29882" lon="4.90242">
        <ele>558</ele>
        <time>2013-01-12T09:02:54Z</time>
      </trkpt>
      <trkpt lat="47.29878" lon="4.90242">
        <ele>558</ele>
        <time>2013-01-12T09:03:02Z</time>
      </trkpt>
      <trkpt lat="47.29872" lon="4.90241">
        <ele>561</ele>
        <time>2013-01-12T09:03:08Z</time>
      </trkpt>
      <trkpt lat="47.29867" lon="4.90241">
        <ele>560</ele>
        <time>2013-01-12T09:03:11Z</time>
      </trkpt>
      <trkpt lat="47.29863" lon="4.90244">
        <ele>561</ele>
        <time>2013-01-12T09:03:19Z</time>
      </trkpt>
      <trkpt lat="47.29858" lon="4.90242">
        <ele>562</ele>
        <time>2013-01-12T09:03:25Z</time>
      </trkpt>
      <trkpt lat="47.29853" lon="4.90244">
        <ele>564</ele>
        <time>2013-01-12T09:03:33Z</time>
      </trkpt>
      <trkpt lat="47.29848" lon="4.90243">
        <ele>564</ele>
        <time>2013-01-12T09:03:41Z</time>
      </trkpt>
      <trkpt lat="47.29841" lon="4.90242">
        <ele>565</ele>
        <time>2013-01-12T09:03:47Z</time>
      </trkpt>
      <trkpt lat="47.29837" lon="4.90245">
        <ele>568</ele>
        <time>2013-01-12T09:03:54Z</time>
      </trkpt>
      <trkpt lat="47.29831" lon="4.90246">
        <ele>570</ele>
        <time>2013-01-12T09:04:01Z</time>
      </trkpt>
      <trkpt lat="47.29826" lon="4.90245">
        <ele>571</ele>
        <time>2013-01-12T09:04:06Z</time>
      </trkpt>
      <trkpt lat="47.29824" lon="4.90238">
        <ele>570</ele>
        <time>2013-01-12T09:04:14Z</time>
      </trkpt>
      <trkpt lat="47.2982" lon="4.90242">
        <ele>570</ele>
        <time>2013-01-12T09:04:36Z</time>
      </trkpt>
      <trkpt lat="47.29815" lon="4.90244">
        <ele>568</ele>
        <time>2013-01-12T09:04:38Z</time>
      </trkpt>
      <trkpt lat="47.29819" lon="4.90239">
        <ele>572</ele>
        <time>2013-01-12T09:04:51Z</time>
      </trkpt>
      <trkpt lat="47.29824" lon="4.90233">
        <ele>573</ele>
        <time>2013-01-12T09:04:56Z</time>
      </trkpt>
      <trkpt lat="47.29828" lon="4.9023">
        <ele>573</ele>
        <time>2013-01-12T09:04:59Z</time>
      </trkpt>
      <trkpt lat="47.29834" lon="4.90226">
        <ele>575</ele>
        <time>2013-01-12T09:05:03Z</time>
      </trkpt>
      <trkpt lat="47.29838" lon="4.90223">
        <ele>577</ele>
        <time>2013-01-12T09:05:08Z</time>
      </trkpt>
      <trkpt lat="47.29844" lon="4.90223">
        <ele>578</ele>
        <time>2013-01-12T09:05:14Z</time>
      </trkpt>
      <trkpt lat="47.29849" lon="4.90221">
        <ele>579</ele>
        <time>2013-01-12T09:05:17Z</time>
      </trkpt>
      <trkpt lat="47.29852" lon="4.90217">
        <ele>578</ele>
        <time>2013-01-12T09:05:20Z</time>
      </trkpt>
      <trkpt lat="47.29857" lon="4.90214">
        <ele>579</ele>
        <time>2013-01-12T09:05:24Z</time>
      </trkpt>
      <trkpt lat="47.29863" lon="4.90213">
        <ele>578</ele>
        <time>2013-01-12T09:05:27Z</time>
      </trkpt>
      <trkpt lat="47.29867" lon="4.9021">
        <ele>578</ele>
        <time>2013-01-12T09:05:30Z</time>
      </trkpt>
      <trkpt lat="47.29872" lon="4.90207">
        <ele>577</ele>
        <time>2013-01-12T09:05:34Z</time>
      </trkpt>
      <trkpt lat="47.29876" lon="4.90203">
        <ele>575</ele>
        <time>2013-01-12T09:05:38Z</time>
      </trkpt>
      <trkpt lat="47.29881" lon="4.90202">
        <ele>574</ele>
        <time>2013-01-12T09:05:41Z</time>
      </trkpt>
      <trkpt lat="47.29886" lon="4.90201">
        <ele>574</ele>
        <time>2013-01-12T09:05:44Z</time>
      </trkpt>
      <trkpt lat="47.2989" lon="4.90199">
        <ele>572</ele>
        <time>2013-01-12T09:05:46Z</time>
      </trkpt>
      <trkpt lat="47.29895" lon="4.90196">
        <ele>571</ele>
        <time>2013-01-12T09:05:51Z</time>
      </trkpt>
      <trkpt lat="47.29901" lon="4.90196">
        <ele>572</ele>
        <time>2013-01-12T09:05:55Z</time>
      </trkpt>
      <trkpt lat="47.29906" lon="4.90194">
        <ele>572</ele>
        <time>2013-01-12T09:05:58Z</time>
      </trkpt>
      <trkpt lat="47.29911" lon="4.9019">
        <ele>571</ele>
        <time>2013-01-12T09:06:01Z</time>
      </trkpt>
      <trkpt lat="47.29916" lon="4.90188">
        <ele>568</ele>
        <time>2013-01-12T09:06:03Z</time>
      </trkpt>
      <trkpt lat="47.2992" lon="4.90184">
        <ele>569</ele>
        <time>2013-01-12T09:06:08Z</time>
      </trkpt>
      <trkpt lat="47.29926" lon="4.90185">
        <ele>569</ele>
        <time>2013-01-12T09:06:12Z</time>
      </trkpt>
      <trkpt lat="47.29932" lon="4.90182">
        <ele>569</ele>
        <time>2013-01-12T09:06:16Z</time>
      </trkpt>
      <trkpt lat="47.29937" lon="4.90183">
        <ele>570</ele>
        <time>2013-01-12T09:06:19Z</time>
      </trkpt>
      <trkpt lat="47.29941" lon="4.90182">
        <ele>569</ele>
        <time>2013-01-12T09:06:22Z</time>
      </trkpt>
      <trkpt lat="47.29947" lon="4.90182">
        <ele>567</ele>
        <time>2013-01-12T09:06:26Z</time>
      </trkpt>
      <trkpt lat="47.29952" lon="4.90183">
        <ele>566</ele>
        <time>2013-01-12T09:06:28Z</time>
      </trkpt>
      <trkpt lat="47.29958" lon="4.90181">
        <ele>565</ele>
        <time>2013-01-12T09:06:31Z</time>
      </trkpt>
      <trkpt lat="47.29962" lon="4.90182">
        <ele>565</ele>
        <time>2013-01-12T09:06:34Z</time>
      </trkpt>
      <trkpt lat="47.29968" lon="4.90183">
        <ele>569</ele>
        <time>2013-01-12T09:06:39Z</time>
      </trkpt>
      <trkpt lat="47.29973" lon="4.90181">
        <ele>567</ele>
        <time>2013-01-12T09:06:44Z</time>
      </trkpt>
      <trkpt lat="47.2998" lon="4.90183">
        <ele>567</ele>
        <time>2013-01-12T09:06:46Z</time>
      </trkpt>
      <trkpt lat="47.29986" lon="4.90179">
        <ele>567</ele>
        <time>2013-01-12T09:06:51Z</time>
      </trkpt>
      <trkpt lat="47.29991" lon="4.90177">
        <ele>568</ele>
        <time>2013-01-12T09:06:56Z</time>
      </trkpt>
      <trkpt lat="47.29996" lon="4.90175">
        <ele>568</ele>
        <time>2013-01-12T09:06:59Z</time>
      </trkpt>
      <trkpt lat="47.3" lon="4.9017">
        <ele>566</ele>
        <time>2013-01-12T09:07:02Z</time>
      </trkpt>
      <trkpt lat="47.30005" lon="4.90169">
        <ele>566</ele>
        <time>2013-01-12T09:07:06Z</time>
      </trkpt>
      <trkpt lat="47.3001" lon="4.9017">
        <ele>566</ele>
        <time>2013-01-12T09:07:10Z</time>
      </trkpt>
      <trkpt lat="47.30014" lon="4.90168">
        <ele>565</ele>
        <time>2013-01-12T09:07:13Z</time>
      </trkpt>
      <trkpt lat="47.3002" lon="4.90166">
        <ele>566</ele>
        <time>2013-01-12T09:07:17Z</time>
      </trkpt>
      <trkpt lat="47.30026" lon="4.90165">
        <ele>566</ele>
        <time>2013-01-12T09:07:21Z</time>
      </trkpt>
      <trkpt lat="47.3003" lon="4.90162">
        <ele>567</ele>
        <time>2013-01-12T09:07:26Z</time>
      </trkpt>
      <trkpt lat="47.30035" lon="4.90161">
        <ele>566</ele>
        <time>2013-01-12T09:07:29Z</time>
      </trkpt>
      <trkpt lat="47.30041" lon="4.9016">
        <ele>563</ele>
        <time>2013-01-12T09:07:32Z</time>
      </trkpt>
      <trkpt lat="47.30046" lon="4.90158">
        <ele>562</ele>
        <time>2013-01-12T09:07:36Z</time>
      </trkpt>
      <trkpt lat="47.30051" lon="4.90156">
        <ele>562</ele>
        <time>2013-01-12T09:07:40Z</time>
      </trkpt>
      <trkpt lat="47.30056" lon="4.90158">
        <ele>563</ele>
        <time>2013-01-12T09:07:44Z</time>
      </trkpt>
      <trkpt lat="47.30062" lon="4.90158">
        <ele>562</ele>
        <time>2013-01-12T09:07:48Z</time>
      </trkpt>
      <trkpt lat="47.30068" lon="4.90159">
        <ele>562</ele>
        <time>2013-01-12T09:07:52Z</time>
      </trkpt>
      <trkpt lat="47.30072" lon="4.9016">
        <ele>565</ele>
        <time>2013-01-12T09:07:57Z</time>
      </trkpt>
      <trkpt lat="47.30077" lon="4.90162">
        <ele>564</ele>
        <time>2013-01-12T09:08:00Z</time>
      </trkpt>
      <trkpt lat="47.30083" lon="4.90162">
        <ele>564</ele>
        <time>2013-01-12T09:08:04Z</time>
      </trkpt>
      <trkpt lat="47.30088" lon="4.90162">
        <ele>563</ele>
        <time>2013-01-12T09:08:07Z</time>
      </trkpt>
      <trkpt lat="47.30094" lon="4.90162">
        <ele>563</ele>
        <time>2013-01-12T09:08:10Z</time>
      </trkpt>
      <trkpt lat="47.30099" lon="4.90162">
        <ele>562</ele>
        <time>2013-01-12T09:08:14Z</time>
      </trkpt>
      <trkpt lat="47.30104" lon="4.90164">
        <ele>562</ele>
        <time>2013-01-12T09:08:16Z</time>
      </trkpt>
      <trkpt lat="47.3011" lon="4.90165">
        <ele>561</ele>
        <time>2013-01-12T09:08:20Z</time>
      </trkpt>
      <trkpt lat="47.30114" lon="4.90163">
        <ele>561</ele>
        <time>2013-01-12T09:08:23Z</time>
      </trkpt>
      <trkpt lat="47.30119" lon="4.90161">
        <ele>561</ele>
        <time>2013-01-12T09:08:26Z</time>
      </trkpt>
      <trkpt lat="47.30124" lon="4.90164">
        <ele>560</ele>
        <time>2013-01-12T09:08:31Z</time>
      </trkpt>
      <trkpt lat="47.3013" lon="4.90164">
        <ele>561</ele>
        <time>2013-01-12T09:08:34Z</time>
      </trkpt>
      <trkpt lat="47.30136" lon="4.90165">
        <ele>558</ele>
        <time>2013-01-12T09:08:39Z</time>
      </trkpt>
      <trkpt lat="47.3014" lon="4.90166">
        <ele>560</ele>
        <time>2013-01-12T09:08:42Z</time>
      </trkpt>
      <trkpt lat="47.30146" lon="4.90167">
        <ele>559</ele>
        <time>2013-01-12T09:08:45Z</time>
      </trkpt>
      <trkpt lat="47.30152" lon="4.90168">
        <ele>559</ele>
        <time>2013-01-12T09:08:48Z</time>
      </trkpt>
      <trkpt lat="47.30156" lon="4.90169">
        <ele>559</ele>
        <time>2013-01-12T09:08:52Z</time>
      </trkpt>
      <trkpt lat="47.30161" lon="4.9017">
        <ele>559</ele>
        <time>2013-01-12T09:08:55Z</time>
      </trkpt>
      <trkpt lat="47.30168" lon="4.90169">
        <ele>560</ele>
        <time>2013-01-12T09:08:59Z</time>
      </trkpt>
      <trkpt lat="47.30174" lon="4.90169">
        <ele>559</ele>
        <time>2013-01-12T09:09:03Z</time>
      </trkpt>
      <trkpt lat="47.30179" lon="4.90171">
        <ele>560</ele>
        <time>2013-01-12T09:09:06Z</time>
      </trkpt>
      <trkpt lat="47.30184" lon="4.90171">
        <ele>560</ele>
        <time>2013-01-12T09:09:10Z</time>
      </trkpt>
      <trkpt lat="47.30188" lon="4.90174">
        <ele>560</ele>
        <time>2013-01-12T09:09:15Z</time>
      </trkpt>
      <trkpt lat="47.30194" lon="4.90174">
        <ele>561</ele>
        <time>2013-01-12T09:09:20Z</time>
      </trkpt>
      <trkpt lat="47.30198" lon="4.90175">
        <ele>562</ele>
        <time>2013-01-12T09:09:25Z</time>
      </trkpt>
      <trkpt lat="47.30205" lon="4.90176">
        <ele>560</ele>
        <time>2013-01-12T09:09:29Z</time>
      </trkpt>
      <trkpt lat="47.30211" lon="4.90176">
        <ele>559</ele>
        <time>2013-01-12T09:09:32Z</time>
      </trkpt>
      <trkpt lat="47.30217" lon="4.90175">
        <ele>562</ele>
        <time>2013-01-12T09:09:37Z</time>
      </trkpt>
      <trkpt lat="47.30222" lon="4.90175">
        <ele>560</ele>
        <time>2013-01-12T09:09:42Z</time>
      </trkpt>
      <trkpt lat="47.30228" lon="4.90175">
        <ele>560</ele>
        <time>2013-01-12T09:09:46Z</time>
      </trkpt>
      <trkpt lat="47.30234" lon="4.90176">
        <ele>561</ele>
        <time>2013-01-12T09:09:49Z</time>
      </trkpt>
      <trkpt lat="47.3024" lon="4.90176">
        <ele>558</ele>
        <time>2013-01-12T09:09:52Z</time>
      </trkpt>
      <trkpt lat="47.30246" lon="4.90176">
        <ele>557</ele>
        <time>2013-01-12T09:09:57Z</time>
      </trkpt>
      <trkpt lat="47.30252" lon="4.90175">
        <ele>555</ele>
        <time>2013-01-12T09:10:00Z</time>
      </trkpt>
      <trkpt lat="47.30257" lon="4.90175">
        <ele>555</ele>
        <time>2013-01-12T09:10:04Z</time>
      </trkpt>
      <trkpt lat="47.30262" lon="4.90176">
        <ele>555</ele>
        <time>2013-01-12T09:10:07Z</time>
      </trkpt>
      <trkpt lat="47.30266" lon="4.90177">
        <ele>556</ele>
        <time>2013-01-12T09:10:10Z</time>
      </trkpt>
      <trkpt lat="47.30272" lon="4.90176">
        <ele>556</ele>
        <time>2013-01-12T09:10:14Z</time>
      </trkpt>
      <trkpt lat="47.30278" lon="4.90176">
        <ele>555</ele>
        <time>2013-01-12T09:10:17Z</time>
      </trkpt>
      <trkpt lat="47.30282" lon="4.90174">
        <ele>555</ele>
        <time>2013-01-12T09:10:21Z</time>
      </trkpt>
      <trkpt lat="47.30286" lon="4.9017">
        <ele>557</ele>
        <time>2013-01-12T09:10:27Z</time>
      </trkpt>
      <trkpt lat="47.30292" lon="4.90172">
        <ele>557</ele>
        <time>2013-01-12T09:10:32Z</time>
      </trkpt>
      <trkpt lat="47.30297" lon="4.90174">
        <ele>560</ele>
        <time>2013-01-12T09:10:35Z</time>
      </trkpt>
      <trkpt lat="47.30302" lon="4.90175">
        <ele>558</ele>
        <time>2013-01-12T09:10:38Z</time>
      </trkpt>
      <trkpt lat="47.30307" lon="4.90179">
        <ele>557</ele>
        <time>2013-01-12T09:10:43Z</time>
      </trkpt>
      <trkpt lat="47.30312" lon="4.90182">
        <ele>557</ele>
        <time>2013-01-12T09:10:46Z</time>
      </trkpt>
      <trkpt lat="47.30318" lon="4.90183">
        <ele>556</ele>
        <time>2013-01-12T09:10:49Z</time>
      </trkpt>
      <trkpt lat="47.30323" lon="4.90186">
        <ele>555</ele>
        <time>2013-01-12T09:10:55Z</time>
      </trkpt>
      <trkpt lat="47.30327" lon="4.9019">
        <ele>554</ele>
        <time>2013-01-12T09:11:00Z</time>
      </trkpt>
      <trkpt lat="47.30332" lon="4.90192">
        <ele>552</ele>
        <time>2013-01-12T09:11:05Z</time>
      </trkpt>
      <trkpt lat="47.30337" lon="4.90196">
        <ele>551</ele>
        <time>2013-01-12T09:11:09Z</time>
      </trkpt>
      <trkpt lat="47.30341" lon="4.902">
        <ele>552</ele>
        <time>2013-01-12T09:11:14Z</time>
      </trkpt>
      <trkpt lat="47.30345" lon="4.90203">
        <ele>553</ele>
        <time>2013-01-12T09:11:18Z</time>
      </trkpt>
      <trkpt lat="47.3035" lon="4.90207">
        <ele>553</ele>
        <time>2013-01-12T09:11:22Z</time>
      </trkpt>
      <trkpt lat="47.30354" lon="4.90212">
        <ele>554</ele>
        <time>2013-01-12T09:11:27Z</time>
      </trkpt>
      <trkpt lat="47.30359" lon="4.90215">
        <ele>554</ele>
        <time>2013-01-12T09:11:31Z</time>
      </trkpt>
      <trkpt lat="47.30364" lon="4.90219">
        <ele>557</ele>
        <time>2013-01-12T09:11:37Z</time>
      </trkpt>
      <trkpt lat="47.30368" lon="4.90223">
        <ele>558</ele>
        <time>2013-01-12T09:11:42Z</time>
      </trkpt>
      <trkpt lat="47.30373" lon="4.90226">
        <ele>558</ele>
        <time>2013-01-12T09:11:45Z</time>
      </trkpt>
      <trkpt lat="47.30379" lon="4.90227">
        <ele>557</ele>
        <time>2013-01-12T09:11:48Z</time>
      </trkpt>
      <trkpt lat="47.30385" lon="4.90227">
        <ele>556</ele>
        <time>2013-01-12T09:11:52Z</time>
      </trkpt>
      <trkpt lat="47.30391" lon="4.9023">
        <ele>557</ele>
        <time>2013-01-12T09:11:56Z</time>
      </trkpt>
      <trkpt lat="47.30396" lon="4.90229">
        <ele>555</ele>
        <time>2013-01-12T09:12:00Z</time>
      </trkpt>
      <trkpt lat="47.30401" lon="4.90231">
        <ele>554</ele>
        <time>2013-01-12T09:12:03Z</time>
      </trkpt>
      <trkpt lat="47.30406" lon="4.90233">
        <ele>553</ele>
        <time>2013-01-12T09:12:06Z</time>
      </trkpt>
      <trkpt lat="47.3041" lon="4.90232">
        <ele>551</ele>
        <time>2013-01-12T09:12:09Z</time>
      </trkpt>
      <trkpt lat="47.30415" lon="4.90231">
        <ele>550</ele>
        <time>2013-01-12T09:12:16Z</time>
      </trkpt>
      <trkpt lat="47.3042" lon="4.9023">
        <ele>550</ele>
        <time>2013-01-12T09:12:20Z</time>
      </trkpt>
      <trkpt lat="47.30426" lon="4.90221">
        <ele>549</ele>
        <time>2013-01-12T09:12:23Z</time>
      </trkpt>
      <trkpt lat="47.3043" lon="4.90227">
        <ele>549</ele>
        <time>2013-01-12T09:12:25Z</time>
      </trkpt>
      <trkpt lat="47.30434" lon="4.90222">
        <ele>548</ele>
        <time>2013-01-12T09:12:29Z</time>
      </trkpt>
      <trkpt lat="47.3044" lon="4.9022">
        <ele>548</ele>
        <time>2013-01-12T09:12:34Z</time>
      </trkpt>
      <trkpt lat="47.3045" lon="4.90205">
        <ele>544</ele>
        <time>2013-01-12T09:12:40Z</time>
      </trkpt>
      <trkpt lat="47.30455" lon="4.90203">
        <ele>542</ele>
        <time>2013-01-12T09:12:43Z</time>
      </trkpt>
      <trkpt lat="47.3046" lon="4.90202">
        <ele>542</ele>
        <time>2013-01-12T09:12:46Z</time>
      </trkpt>
      <trkpt lat="47.30462" lon="4.90196">
        <ele>541</ele>
        <time>2013-01-12T09:12:49Z</time>
      </trkpt>
      <trkpt lat="47.30468" lon="4.90193">
        <ele>540</ele>
        <time>2013-01-12T09:12:53Z</time>
      </trkpt>
      <trkpt lat="47.30472" lon="4.9019">
        <ele>542</ele>
        <time>2013-01-12T09:12:57Z</time>
      </trkpt>
      <trkpt lat="47.30477" lon="4.90189">
        <ele>547</ele>
        <time>2013-01-12T09:13:02Z</time>
      </trkpt>
      <trkpt lat="47.30483" lon="4.90187">
        <ele>551</ele>
        <time>2013-01-12T09:13:06Z</time>
      </trkpt>
      <trkpt lat="47.30486" lon="4.90181">
        <ele>553</ele>
        <time>2013-01-12T09:13:11Z</time>
      </trkpt>
      <trkpt lat="47.3049" lon="4.90176">
        <ele>553</ele>
        <time>2013-01-12T09:13:15Z</time>
      </trkpt>
      <trkpt lat="47.30496" lon="4.90172">
        <ele>553</ele>
        <time>2013-01-12T09:13:18Z</time>
      </trkpt>
      <trkpt lat="47.305" lon="4.90167">
        <ele>553</ele>
        <time>2013-01-12T09:13:21Z</time>
      </trkpt>
      <trkpt lat="47.30504" lon="4.90162">
        <ele>553</ele>
        <time>2013-01-12T09:13:24Z</time>
      </trkpt>
      <trkpt lat="47.30508" lon="4.90156">
        <ele>554</ele>
        <time>2013-01-12T09:13:27Z</time>
      </trkpt>
      <trkpt lat="47.30512" lon="4.90151">
        <ele>554</ele>
        <time>2013-01-12T09:13:29Z</time>
      </trkpt>
      <trkpt lat="47.30514" lon="4.90145">
        <ele>553</ele>
        <time>2013-01-12T09:13:32Z</time>
      </trkpt>
      <trkpt lat="47.30515" lon="4.90138">
        <ele>554</ele>
        <time>2013-01-12T09:13:36Z</time>
      </trkpt>
      <trkpt lat="47.30519" lon="4.90131">
        <ele>554</ele>
        <time>2013-01-12T09:13:40Z</time>
      </trkpt>
      <trkpt lat="47.30522" lon="4.90126">
        <ele>556</ele>
        <time>2013-01-12T09:13:44Z</time>
      </trkpt>
      <trkpt lat="47.30518" lon="4.90124">
        <ele>566</ele>
        <time>2013-01-12T09:13:57Z</time>
      </trkpt>
      <trkpt lat="47.30512" lon="4.90127">
        <ele>568</ele>
        <time>2013-01-12T09:14:01Z</time>
      </trkpt>
      <trkpt lat="47.30507" lon="4.9013">
        <ele>570</ele>
        <time>2013-01-12T09:14:05Z</time>
      </trkpt>
      <trkpt lat="47.30503" lon="4.90132">
        <ele>568</ele>
        <time>2013-01-12T09:14:09Z</time>
      </trkpt>
      <trkpt lat="47.30498" lon="4.90136">
        <ele>569</ele>
        <time>2013-01-12T09:14:13Z</time>
      </trkpt>
      <trkpt lat="47.30494" lon="4.90139">
        <ele>570</ele>
        <time>2013-01-12T09:14:16Z</time>
      </trkpt>
      <trkpt lat="47.3049" lon="4.90142">
        <ele>570</ele>
        <time>2013-01-12T09:14:19Z</time>
      </trkpt>
      <trkpt lat="47.30485" lon="4.90146">
        <ele>571</ele>
        <time>2013-01-12T09:14:23Z</time>
      </trkpt>
      <trkpt lat="47.3048" lon="4.90146">
        <ele>572</ele>
        <time>2013-01-12T09:14:27Z</time>
      </trkpt>
      <trkpt lat="47.30474" lon="4.90148">
        <ele>574</ele>
        <time>2013-01-12T09:14:31Z</time>
      </trkpt>
      <trkpt lat="47.3047" lon="4.90152">
        <ele>576</ele>
        <time>2013-01-12T09:14:34Z</time>
      </trkpt>
      <trkpt lat="47.30466" lon="4.90151">
        <ele>580</ele>
        <time>2013-01-12T09:14:39Z</time>
      </trkpt>
      <trkpt lat="47.3046" lon="4.90152">
        <ele>578</ele>
        <time>2013-01-12T09:14:43Z</time>
      </trkpt>
      <trkpt lat="47.30456" lon="4.90154">
        <ele>579</ele>
        <time>2013-01-12T09:14:46Z</time>
      </trkpt>
      <trkpt lat="47.30451" lon="4.90155">
        <ele>584</ele>
        <time>2013-01-12T09:14:52Z</time>
      </trkpt>
      <trkpt lat="47.30445" lon="4.90155">
        <ele>589</ele>
        <time>2013-01-12T09:14:56Z</time>
      </trkpt>
      <trkpt lat="47.3044" lon="4.90157">
        <ele>592</ele>
        <time>2013-01-12T09:15:00Z</time>
      </trkpt>
      <trkpt lat="47.3044" lon="4.90157">
        <ele>592</ele>
        <time>2013-01-12T09:15:00Z</time>
      </trkpt>
      <trkpt lat="47.3044" lon="4.90157">
        <ele>591</ele>
        <time>2013-01-12T09:15:01Z</time>
      </trkpt>
      <trkpt lat="47.30434" lon="4.90157">
        <ele>591</ele>
        <time>2013-01-12T09:15:04Z</time>
      </trkpt>
      <trkpt lat="47.30429" lon="4.90155">
        <ele>591</ele>
        <time>2013-01-12T09:15:08Z</time>
      </trkpt>
      <trkpt lat="47.30424" lon="4.90154">
        <ele>591</ele>
        <time>2013-01-12T09:15:11Z</time>
      </trkpt>
      <trkpt lat="47.30419" lon="4.90155">
        <ele>592</ele>
        <time>2013-01-12T09:15:15Z</time>
      </trkpt>
      <trkpt lat="47.30413" lon="4.90153">
        <ele>593</ele>
        <time>2013-01-12T09:15:19Z</time>
      </trkpt>
      <trkpt lat="47.30408" lon="4.90151">
        <ele>595</ele>
        <time>2013-01-12T09:15:22Z</time>
      </trkpt>
      <trkpt lat="47.30402" lon="4.9015">
        <ele>598</ele>
        <time>2013-01-12T09:15:27Z</time>
      </trkpt>
      <trkpt lat="47.30397" lon="4.90151">
        <ele>596</ele>
        <time>2013-01-12T09:15:31Z</time>
      </trkpt>
      <trkpt lat="47.30391" lon="4.9015">
        <ele>599</ele>
        <time>2013-01-12T09:15:36Z</time>
      </trkpt>
      <trkpt lat="47.30385" lon="4.90149">
        <ele>601</ele>
        <time>2013-01-12T09:15:40Z</time>
      </trkpt>
      <trkpt lat="47.3038" lon="4.90149">
        <ele>601</ele>
        <time>2013-01-12T09:15:43Z</time>
      </trkpt>
      <trkpt lat="47.30375" lon="4.90148">
        <ele>603</ele>
        <time>2013-01-12T09:15:46Z</time>
      </trkpt>
      <trkpt lat="47.3037" lon="4.90148">
        <ele>602</ele>
        <time>2013-01-12T09:15:49Z</time>
      </trkpt>
      <trkpt lat="47.30365" lon="4.90145">
        <ele>603</ele>
        <time>2013-01-12T09:15:53Z</time>
      </trkpt>
      <trkpt lat="47.30359" lon="4.90143">
        <ele>604</ele>
        <time>2013-01-12T09:15:57Z</time>
      </trkpt>
      <trkpt lat="47.30353" lon="4.90142">
        <ele>604</ele>
        <time>2013-01-12T09:16:01Z</time>
      </trkpt>
      <trkpt lat="47.30348" lon="4.90139">
        <ele>607</ele>
        <time>2013-01-12T09:16:06Z</time>
      </trkpt>
      <trkpt lat="47.30348" lon="4.90139">
        <ele>607</ele>
        <time>2013-01-12T09:16:06Z</time>
      </trkpt>
      <trkpt lat="47.30348" lon="4.90139">
        <ele>607</ele>
        <time>2013-01-12T09:16:08Z</time>
      </trkpt>
      <trkpt lat="47.30343" lon="4.90137">
        <ele>607</ele>
        <time>2013-01-12T09:16:11Z</time>
      </trkpt>
      <trkpt lat="47.30338" lon="4.90134">
        <ele>605</ele>
        <time>2013-01-12T09:16:14Z</time>
      </trkpt>
      <trkpt lat="47.30338" lon="4.90134">
        <ele>605</ele>
        <time>2013-01-12T09:16:14Z</time>
      </trkpt>
      <trkpt lat="47.30338" lon="4.90134">
        <ele>606</ele>
        <time>2013-01-12T09:16:17Z</time>
      </trkpt>
      <trkpt lat="47.30334" lon="4.90133">
        <ele>610</ele>
        <time>2013-01-12T09:16:21Z</time>
      </trkpt>
      <trkpt lat="47.30328" lon="4.90131">
        <ele>611</ele>
        <time>2013-01-12T09:16:25Z</time>
      </trkpt>
      <trkpt lat="47.30323" lon="4.90129">
        <ele>611</ele>
        <time>2013-01-12T09:16:28Z</time>
      </trkpt>
      <trkpt lat="47.30318" lon="4.90131">
        <ele>609</ele>
        <time>2013-01-12T09:16:31Z</time>
      </trkpt>
      <trkpt lat="47.30313" lon="4.90128">
        <ele>611</ele>
        <time>2013-01-12T09:16:34Z</time>
      </trkpt>
      <trkpt lat="47.30308" lon="4.90125">
        <ele>614</ele>
        <time>2013-01-12T09:16:37Z</time>
      </trkpt>
      <trkpt lat="47.30302" lon="4.90124">
        <ele>614</ele>
        <time>2013-01-12T09:16:43Z</time>
      </trkpt>
      <trkpt lat="47.30297" lon="4.90124">
        <ele>614</ele>
        <time>2013-01-12T09:16:46Z</time>
      </trkpt>
      <trkpt lat="47.30292" lon="4.90123">
        <ele>615</ele>
        <time>2013-01-12T09:16:50Z</time>
      </trkpt>
      <trkpt lat="47.30286" lon="4.90121">
        <ele>615</ele>
        <time>2013-01-12T09:16:54Z</time>
      </trkpt>
      <trkpt lat="47.30282" lon="4.90121">
        <ele>614</ele>
        <time>2013-01-12T09:16:58Z</time>
      </trkpt>
      <trkpt lat="47.30278" lon="4.90116">
        <ele>618</ele>
        <time>2013-01-12T09:17:04Z</time>
      </trkpt>
      <trkpt lat="47.30273" lon="4.90114">
        <ele>619</ele>
        <time>2013-01-12T09:17:07Z</time>
      </trkpt>
      <trkpt lat="47.30268" lon="4.90111">
        <ele>620</ele>
        <time>2013-01-12T09:17:11Z</time>
      </trkpt>
      <trkpt lat="47.30263" lon="4.90109">
        <ele>621</ele>
        <time>2013-01-12T09:17:15Z</time>
      </trkpt>
      <trkpt lat="47.30257" lon="4.90107">
        <ele>621</ele>
        <time>2013-01-12T09:17:19Z</time>
      </trkpt>
      <trkpt lat="47.30253" lon="4.90104">
        <ele>618</ele>
        <time>2013-01-12T09:17:22Z</time>
      </trkpt>
      <trkpt lat="47.30247" lon="4.90102">
        <ele>619</ele>
        <time>2013-01-12T09:17:25Z</time>
      </trkpt>
      <trkpt lat="47.30242" lon="4.90098">
        <ele>620</ele>
        <time>2013-01-12T09:17:28Z</time>
      </trkpt>
      <trkpt lat="47.30238" lon="4.90095">
        <ele>618</ele>
        <time>2013-01-12T09:17:32Z</time>
      </trkpt>
      <trkpt lat="47.30235" lon="4.90088">
        <ele>618</ele>
        <time>2013-01-12T09:17:36Z</time>
      </trkpt>
      <trkpt lat="47.30232" lon="4.90082">
        <ele>620</ele>
        <time>2013-01-12T09:17:41Z</time>
      </trkpt>
      <trkpt lat="47.30227" lon="4.9008">
        <ele>620</ele>
        <time>2013-01-12T09:17:45Z</time>
      </trkpt>
      <trkpt lat="47.30223" lon="4.90074">
        <ele>619</ele>
        <time>2013-01-12T09:17:50Z</time>
      </trkpt>
      <trkpt lat="47.30219" lon="4.90068">
        <ele>617</ele>
        <time>2013-01-12T09:17:55Z</time>
      </trkpt>
      <trkpt lat="47.30219" lon="4.90068">
        <ele>617</ele>
        <time>2013-01-12T09:17:55Z</time>
      </trkpt>
      <trkpt lat="47.30219" lon="4.90068">
        <ele>617</ele>
        <time>2013-01-12T09:17:56Z</time>
      </trkpt>
      <trkpt lat="47.30213" lon="4.90066">
        <ele>618</ele>
        <time>2013-01-12T09:18:01Z</time>
      </trkpt>
      <trkpt lat="47.30209" lon="4.90062">
        <ele>617</ele>
        <time>2013-01-12T09:18:04Z</time>
      </trkpt>
      <trkpt lat="47.30204" lon="4.90057">
        <ele>617</ele>
        <time>2013-01-12T09:18:07Z</time>
      </trkpt>
      <trkpt lat="47.302" lon="4.90052">
        <ele>616</ele>
        <time>2013-01-12T09:18:09Z</time>
      </trkpt>
      <trkpt lat="47.30197" lon="4.90045">
        <ele>614</ele>
        <time>2013-01-12T09:18:12Z</time>
      </trkpt>
      <trkpt lat="47.30198" lon="4.90038">
        <ele>613</ele>
        <time>2013-01-12T09:18:16Z</time>
      </trkpt>
      <trkpt lat="47.30199" lon="4.90031">
        <ele>615</ele>
        <time>2013-01-12T09:18:21Z</time>
      </trkpt>
      <trkpt lat="47.30204" lon="4.9003">
        <ele>615</ele>
        <time>2013-01-12T09:18:24Z</time>
      </trkpt>
      <trkpt lat="47.30209" lon="4.9003">
        <ele>615</ele>
        <time>2013-01-12T09:18:29Z</time>
      </trkpt>
      <trkpt lat="47.30214" lon="4.90026">
        <ele>615</ele>
        <time>2013-01-12T09:18:32Z</time>
      </trkpt>
      <trkpt lat="47.30219" lon="4.90022">
        <ele>618</ele>
        <time>2013-01-12T09:18:37Z</time>
      </trkpt>
      <trkpt lat="47.30224" lon="4.90021">
        <ele>619</ele>
        <time>2013-01-12T09:18:42Z</time>
      </trkpt>
      <trkpt lat="47.30228" lon="4.90021">
        <ele>618</ele>
        <time>2013-01-12T09:18:45Z</time>
      </trkpt>
      <trkpt lat="47.30234" lon="4.90021">
        <ele>617</ele>
        <time>2013-01-12T09:18:49Z</time>
      </trkpt>
      <trkpt lat="47.3024" lon="4.9002">
        <ele>618</ele>
        <time>2013-01-12T09:18:53Z</time>
      </trkpt>
      <trkpt lat="47.30246" lon="4.9002">
        <ele>617</ele>
        <time>2013-01-12T09:18:57Z</time>
      </trkpt>
      <trkpt lat="47.30251" lon="4.9002">
        <ele>618</ele>
        <time>2013-01-12T09:19:01Z</time>
      </trkpt>
      <trkpt lat="47.30258" lon="4.90021">
        <ele>617</ele>
        <time>2013-01-12T09:19:06Z</time>
      </trkpt>
      <trkpt lat="47.30263" lon="4.90022">
        <ele>616</ele>
        <time>2013-01-12T09:19:09Z</time>
      </trkpt>
      <trkpt lat="47.30268" lon="4.90022">
        <ele>615</ele>
        <time>2013-01-12T09:19:13Z</time>
      </trkpt>
      <trkpt lat="47.30272" lon="4.90024">
        <ele>617</ele>
        <time>2013-01-12T09:19:16Z</time>
      </trkpt>
      <trkpt lat="47.30279" lon="4.90025">
        <ele>616</ele>
        <time>2013-01-12T09:19:20Z</time>
      </trkpt>
      <trkpt lat="47.30284" lon="4.90026">
        <ele>616</ele>
        <time>2013-01-12T09:19:24Z</time>
      </trkpt>
      <trkpt lat="47.30289" lon="4.90023">
        <ele>616</ele>
        <time>2013-01-12T09:19:28Z</time>
      </trkpt>
      <trkpt lat="47.30294" lon="4.90027">
        <ele>616</ele>
        <time>2013-01-12T09:19:30Z</time>
      </trkpt>
      <trkpt lat="47.30298" lon="4.90034">
        <ele>616</ele>
        <time>2013-01-12T09:19:33Z</time>
      </trkpt>
      <trkpt lat="47.30302" lon="4.90037">
        <ele>615</ele>
        <time>2013-01-12T09:19:37Z</time>
      </trkpt>
      <trkpt lat="47.30306" lon="4.9004">
        <ele>614</ele>
        <time>2013-01-12T09:19:42Z</time>
      </trkpt>
      <trkpt lat="47.30312" lon="4.90043">
        <ele>614</ele>
        <time>2013-01-12T09:19:46Z</time>
      </trkpt>
      <trkpt lat="47.30318" lon="4.90044">
        <ele>612</ele>
        <time>2013-01-12T09:19:49Z</time>
      </trkpt>
      <trkpt lat="47.30322" lon="4.90046">
        <ele>613</ele>
        <time>2013-01-12T09:19:52Z</time>
      </trkpt>
      <trkpt lat="47.30329" lon="4.90046">
        <ele>610</ele>
        <time>2013-01-12T09:19:56Z</time>
      </trkpt>
      <trkpt lat="47.30333" lon="4.90048">
        <ele>608</ele>
        <time>2013-01-12T09:19:58Z</time>
      </trkpt>
      <trkpt lat="47.30338" lon="4.9005">
        <ele>610</ele>
        <time>2013-01-12T09:20:02Z</time>
      </trkpt>
      <trkpt lat="47.30342" lon="4.90055">
        <ele>611</ele>
        <time>2013-01-12T09:20:07Z</time>
      </trkpt>
      <trkpt lat="47.30344" lon="4.90063">
        <ele>610</ele>
        <time>2013-01-12T09:20:12Z</time>
      </trkpt>
      <trkpt lat="47.30349" lon="4.90064">
        <ele>607</ele>
        <time>2013-01-12T09:20:15Z</time>
      </trkpt>
      <trkpt lat="47.30354" lon="4.90064">
        <ele>605</ele>
        <time>2013-01-12T09:20:18Z</time>
      </trkpt>
      <trkpt lat="47.3036" lon="4.90066">
        <ele>605</ele>
        <time>2013-01-12T09:20:21Z</time>
      </trkpt>
      <trkpt lat="47.30366" lon="4.90065">
        <ele>605</ele>
        <time>2013-01-12T09:20:25Z</time>
      </trkpt>
      <trkpt lat="47.30371" lon="4.90068">
        <ele>604</ele>
        <time>2013-01-12T09:20:29Z</time>
      </trkpt>
      <trkpt lat="47.30371" lon="4.90068">
        <ele>604</ele>
        <time>2013-01-12T09:20:29Z</time>
      </trkpt>
      <trkpt lat="47.30371" lon="4.90068">
        <ele>603</ele>
        <time>2013-01-12T09:20:30Z</time>
      </trkpt>
      <trkpt lat="47.30375" lon="4.90068">
        <ele>599</ele>
        <time>2013-01-12T09:20:39Z</time>
      </trkpt>
      <trkpt lat="47.30375" lon="4.90068">
        <ele>599</ele>
        <time>2013-01-12T09:20:39Z</time>
      </trkpt>
      <trkpt lat="47.30375" lon="4.90068">
        <ele>599</ele>
        <time>2013-01-12T09:20:40Z</time>
      </trkpt>
      <trkpt lat="47.3038" lon="4.90066">
        <ele>597</ele>
        <time>2013-01-12T09:21:05Z</time>
      </trkpt>
      <trkpt lat="47.3038" lon="4.90073">
        <ele>596</ele>
        <time>2013-01-12T09:22:05Z</time>
      </trkpt>
      <trkpt lat="47.30376" lon="4.90079">
        <ele>595</ele>
        <time>2013-01-12T09:22:09Z</time>
      </trkpt>
      <trkpt lat="47.30371" lon="4.9008">
        <ele>594</ele>
        <time>2013-01-12T09:22:14Z</time>
      </trkpt>
      <trkpt lat="47.30367" lon="4.90083">
        <ele>593</ele>
        <time>2013-01-12T09:22:19Z</time>
      </trkpt>
      <trkpt lat="47.30362" lon="4.90083">
        <ele>594</ele>
        <time>2013-01-12T09:22:22Z</time>
      </trkpt>
      <trkpt lat="47.30357" lon="4.9008">
        <ele>594</ele>
        <time>2013-01-12T09:22:26Z</time>
      </trkpt>
      <trkpt lat="47.30357" lon="4.9008">
        <ele>594</ele>
        <time>2013-01-12T09:22:26Z</time>
      </trkpt>
      <trkpt lat="47.30357" lon="4.9008">
        <ele>594</ele>
        <time>2013-01-12T09:22:27Z</time>
      </trkpt>
      <trkpt lat="47.30352" lon="4.90076">
        <ele>594</ele>
        <time>2013-01-12T09:22:30Z</time>
      </trkpt>
      <trkpt lat="47.30347" lon="4.90075">
        <ele>593</ele>
        <time>2013-01-12T09:22:32Z</time>
      </trkpt>
      <trkpt lat="47.30343" lon="4.90071">
        <ele>594</ele>
        <time>2013-01-12T09:22:35Z</time>
      </trkpt>
      <trkpt lat="47.30338" lon="4.90071">
        <ele>594</ele>
        <time>2013-01-12T09:22:40Z</time>
      </trkpt>
      <trkpt lat="47.30332" lon="4.9007">
        <ele>598</ele>
        <time>2013-01-12T09:22:51Z</time>
      </trkpt>
      <trkpt lat="47.30324" lon="4.90067">
        <ele>599</ele>
        <time>2013-01-12T09:22:54Z</time>
      </trkpt>
      <trkpt lat="47.3032" lon="4.90065">
        <ele>600</ele>
        <time>2013-01-12T09:22:56Z</time>
      </trkpt>
      <trkpt lat="47.30315" lon="4.90063">
        <ele>601</ele>
        <time>2013-01-12T09:22:58Z</time>
      </trkpt>
      <trkpt lat="47.30309" lon="4.90061">
        <ele>602</ele>
        <time>2013-01-12T09:23:01Z</time>
      </trkpt>
      <trkpt lat="47.30303" lon="4.9006">
        <ele>604</ele>
        <time>2013-01-12T09:23:04Z</time>
      </trkpt>
      <trkpt lat="47.30298" lon="4.90058">
        <ele>603</ele>
        <time>2013-01-12T09:23:06Z</time>
      </trkpt>
      <trkpt lat="47.30293" lon="4.90054">
        <ele>603</ele>
        <time>2013-01-12T09:23:09Z</time>
      </trkpt>
      <trkpt lat="47.30288" lon="4.90051">
        <ele>603</ele>
        <time>2013-01-12T09:23:12Z</time>
      </trkpt>
      <trkpt lat="47.30284" lon="4.9005">
        <ele>603</ele>
        <time>2013-01-12T09:23:16Z</time>
      </trkpt>
      <trkpt lat="47.30278" lon="4.90049">
        <ele>604</ele>
        <time>2013-01-12T09:23:21Z</time>
      </trkpt>
      <trkpt lat="47.30274" lon="4.9005">
        <ele>608</ele>
        <time>2013-01-12T09:23:25Z</time>
      </trkpt>
      <trkpt lat="47.30269" lon="4.9005">
        <ele>609</ele>
        <time>2013-01-12T09:23:28Z</time>
      </trkpt>
      <trkpt lat="47.30263" lon="4.90048">
        <ele>609</ele>
        <time>2013-01-12T09:23:31Z</time>
      </trkpt>
      <trkpt lat="47.30258" lon="4.90048">
        <ele>610</ele>
        <time>2013-01-12T09:23:34Z</time>
      </trkpt>
      <trkpt lat="47.30253" lon="4.90045">
        <ele>610</ele>
        <time>2013-01-12T09:23:37Z</time>
      </trkpt>
      <trkpt lat="47.30247" lon="4.90045">
        <ele>608</ele>
        <time>2013-01-12T09:23:41Z</time>
      </trkpt>
      <trkpt lat="47.30241" lon="4.90044">
        <ele>608</ele>
        <time>2013-01-12T09:23:44Z</time>
      </trkpt>
      <trkpt lat="47.30235" lon="4.90045">
        <ele>607</ele>
        <time>2013-01-12T09:23:49Z</time>
      </trkpt>
      <trkpt lat="47.30231" lon="4.90045">
        <ele>608</ele>
        <time>2013-01-12T09:23:53Z</time>
      </trkpt>
      <trkpt lat="47.30225" lon="4.90045">
        <ele>608</ele>
        <time>2013-01-12T09:23:56Z</time>
      </trkpt>
      <trkpt lat="47.3022" lon="4.90045">
        <ele>607</ele>
        <time>2013-01-12T09:23:59Z</time>
      </trkpt>
      <trkpt lat="47.30214" lon="4.90046">
        <ele>608</ele>
        <time>2013-01-12T09:24:03Z</time>
      </trkpt>
      <trkpt lat="47.3021" lon="4.90045">
        <ele>607</ele>
        <time>2013-01-12T09:24:07Z</time>
      </trkpt>
      <trkpt lat="47.30204" lon="4.90046">
        <ele>607</ele>
        <time>2013-01-12T09:24:11Z</time>
      </trkpt>
      <trkpt lat="47.30198" lon="4.90046">
        <ele>607</ele>
        <time>2013-01-12T09:24:14Z</time>
      </trkpt>
      <trkpt lat="47.30194" lon="4.90046">
        <ele>607</ele>
        <time>2013-01-12T09:24:21Z</time>
      </trkpt>
      <trkpt lat="47.30187" lon="4.90046">
        <ele>607</ele>
        <time>2013-01-12T09:24:25Z</time>
      </trkpt>
      <trkpt lat="47.30182" lon="4.90045">
        <ele>608</ele>
        <time>2013-01-12T09:24:29Z</time>
      </trkpt>
      <trkpt lat="47.30178" lon="4.90045">
        <ele>607</ele>
        <time>2013-01-12T09:24:32Z</time>
      </trkpt>
      <trkpt lat="47.30173" lon="4.90042">
        <ele>608</ele>
        <time>2013-01-12T09:24:38Z</time>
      </trkpt>
      <trkpt lat="47.30168" lon="4.90036">
        <ele>604</ele>
        <time>2013-01-12T09:25:01Z</time>
      </trkpt>
      <trkpt lat="47.30173" lon="4.90033">
        <ele>603</ele>
        <time>2013-01-12T09:25:07Z</time>
      </trkpt>
      <trkpt lat="47.30177" lon="4.9003">
        <ele>605</ele>
        <time>2013-01-12T09:25:12Z</time>
      </trkpt>
      <trkpt lat="47.30182" lon="4.90029">
        <ele>604</ele>
        <time>2013-01-12T09:25:15Z</time>
      </trkpt>
      <trkpt lat="47.30188" lon="4.90031">
        <ele>603</ele>
        <time>2013-01-12T09:25:19Z</time>
      </trkpt>
      <trkpt lat="47.30191" lon="4.90035">
        <ele>604</ele>
        <time>2013-01-12T09:25:23Z</time>
      </trkpt>
      <trkpt lat="47.30196" lon="4.9004">
        <ele>605</ele>
        <time>2013-01-12T09:25:26Z</time>
      </trkpt>
      <trkpt lat="47.30201" lon="4.90044">
        <ele>605</ele>
        <time>2013-01-12T09:25:29Z</time>
      </trkpt>
      <trkpt lat="47.30205" lon="4.90048">
        <ele>606</ele>
        <time>2013-01-12T09:25:31Z</time>
      </trkpt>
      <trkpt lat="47.3021" lon="4.90051">
        <ele>606</ele>
        <time>2013-01-12T09:25:34Z</time>
      </trkpt>
      <trkpt lat="47.30215" lon="4.90054">
        <ele>605</ele>
        <time>2013-01-12T09:25:37Z</time>
      </trkpt>
      <trkpt lat="47.30219" lon="4.90056">
        <ele>604</ele>
        <time>2013-01-12T09:25:41Z</time>
      </trkpt>
      <trkpt lat="47.30225" lon="4.90059">
        <ele>605</ele>
        <time>2013-01-12T09:25:45Z</time>
      </trkpt>
      <trkpt lat="47.30228" lon="4.90065">
        <ele>604</ele>
        <time>2013-01-12T09:25:47Z</time>
      </trkpt>
      <trkpt lat="47.30234" lon="4.90072">
        <ele>603</ele>
        <time>2013-01-12T09:25:50Z</time>
      </trkpt>
      <trkpt lat="47.30239" lon="4.90079">
        <ele>602</ele>
        <time>2013-01-12T09:25:53Z</time>
      </trkpt>
      <trkpt lat="47.30242" lon="4.90084">
        <ele>602</ele>
        <time>2013-01-12T09:25:56Z</time>
      </trkpt>
      <trkpt lat="47.30248" lon="4.90087">
        <ele>601</ele>
        <time>2013-01-12T09:26:01Z</time>
      </trkpt>
      <trkpt lat="47.30253" lon="4.90088">
        <ele>600</ele>
        <time>2013-01-12T09:26:03Z</time>
      </trkpt>
      <trkpt lat="47.30257" lon="4.90089">
        <ele>598</ele>
        <time>2013-01-12T09:26:06Z</time>
      </trkpt>
      <trkpt lat="47.30262" lon="4.9009">
        <ele>597</ele>
        <time>2013-01-12T09:26:09Z</time>
      </trkpt>
      <trkpt lat="47.30267" lon="4.90094">
        <ele>597</ele>
        <time>2013-01-12T09:26:12Z</time>
      </trkpt>
      <trkpt lat="47.30271" lon="4.90098">
        <ele>596</ele>
        <time>2013-01-12T09:26:14Z</time>
      </trkpt>
      <trkpt lat="47.30276" lon="4.90101">
        <ele>596</ele>
        <time>2013-01-12T09:26:17Z</time>
      </trkpt>
      <trkpt lat="47.3028" lon="4.90103">
        <ele>596</ele>
        <time>2013-01-12T09:26:20Z</time>
      </trkpt>
      <trkpt lat="47.30286" lon="4.90104">
        <ele>596</ele>
        <time>2013-01-12T09:26:23Z</time>
      </trkpt>
      <trkpt lat="47.3029" lon="4.90107">
        <ele>595</ele>
        <time>2013-01-12T09:26:25Z</time>
      </trkpt>
      <trkpt lat="47.30297" lon="4.90108">
        <ele>594</ele>
        <time>2013-01-12T09:26:28Z</time>
      </trkpt>
      <trkpt lat="47.30301" lon="4.90108">
        <ele>594</ele>
        <time>2013-01-12T09:26:30Z</time>
      </trkpt>
      <trkpt lat="47.30306" lon="4.9011">
        <ele>593</ele>
        <time>2013-01-12T09:26:32Z</time>
      </trkpt>
      <trkpt lat="47.30312" lon="4.90109">
        <ele>592</ele>
        <time>2013-01-12T09:26:35Z</time>
      </trkpt>
      <trkpt lat="47.30317" lon="4.90111">
        <ele>592</ele>
        <time>2013-01-12T09:26:38Z</time>
      </trkpt>
      <trkpt lat="47.30322" lon="4.90112">
        <ele>594</ele>
        <time>2013-01-12T09:26:42Z</time>
      </trkpt>
      <trkpt lat="47.30327" lon="4.90116">
        <ele>593</ele>
        <time>2013-01-12T09:26:44Z</time>
      </trkpt>
      <trkpt lat="47.30332" lon="4.90118">
        <ele>591</ele>
        <time>2013-01-12T09:26:47Z</time>
      </trkpt>
      <trkpt lat="47.30337" lon="4.9012">
        <ele>591</ele>
        <time>2013-01-12T09:26:49Z</time>
      </trkpt>
      <trkpt lat="47.30341" lon="4.90124">
        <ele>590</ele>
        <time>2013-01-12T09:26:51Z</time>
      </trkpt>
      <trkpt lat="47.30347" lon="4.90128">
        <ele>588</ele>
        <time>2013-01-12T09:26:54Z</time>
      </trkpt>
      <trkpt lat="47.30353" lon="4.90132">
        <ele>588</ele>
        <time>2013-01-12T09:26:57Z</time>
      </trkpt>
      <trkpt lat="47.30358" lon="4.90131">
        <ele>583</ele>
        <time>2013-01-12T09:27:01Z</time>
      </trkpt>
      <trkpt lat="47.30364" lon="4.90133">
        <ele>583</ele>
        <time>2013-01-12T09:27:04Z</time>
      </trkpt>
      <trkpt lat="47.30369" lon="4.90133">
        <ele>582</ele>
        <time>2013-01-12T09:27:07Z</time>
      </trkpt>
      <trkpt lat="47.30374" lon="4.90135">
        <ele>582</ele>
        <time>2013-01-12T09:27:10Z</time>
      </trkpt>
      <trkpt lat="47.30379" lon="4.90136">
        <ele>583</ele>
        <time>2013-01-12T09:27:12Z</time>
      </trkpt>
      <trkpt lat="47.30384" lon="4.90138">
        <ele>583</ele>
        <time>2013-01-12T09:27:15Z</time>
      </trkpt>
      <trkpt lat="47.30389" lon="4.90139">
        <ele>583</ele>
        <time>2013-01-12T09:27:17Z</time>
      </trkpt>
      <trkpt lat="47.30394" lon="4.90139">
        <ele>583</ele>
        <time>2013-01-12T09:27:19Z</time>
      </trkpt>
      <trkpt lat="47.304" lon="4.90138">
        <ele>582</ele>
        <time>2013-01-12T09:27:22Z</time>
      </trkpt>
      <trkpt lat="47.30405" lon="4.90137">
        <ele>582</ele>
        <time>2013-01-12T09:27:24Z</time>
      </trkpt>
      <trkpt lat="47.3041" lon="4.90138">
        <ele>582</ele>
        <time>2013-01-12T09:27:27Z</time>
      </trkpt>
      <trkpt lat="47.30416" lon="4.9014">
        <ele>581</ele>
        <time>2013-01-12T09:27:30Z</time>
      </trkpt>
      <trkpt lat="47.30422" lon="4.9014">
        <ele>580</ele>
        <time>2013-01-12T09:27:33Z</time>
      </trkpt>
      <trkpt lat="47.30428" lon="4.90139">
        <ele>579</ele>
        <time>2013-01-12T09:27:37Z</time>
      </trkpt>
      <trkpt lat="47.30433" lon="4.90138">
        <ele>579</ele>
        <time>2013-01-12T09:27:39Z</time>
      </trkpt>
      <trkpt lat="47.30439" lon="4.90137">
        <ele>578</ele>
        <time>2013-01-12T09:27:42Z</time>
      </trkpt>
      <trkpt lat="47.30446" lon="4.90136">
        <ele>577</ele>
        <time>2013-01-12T09:27:45Z</time>
      </trkpt>
      <trkpt lat="47.30452" lon="4.90135">
        <ele>576</ele>
        <time>2013-01-12T09:27:48Z</time>
      </trkpt>
      <trkpt lat="47.30458" lon="4.90135">
        <ele>575</ele>
        <time>2013-01-12T09:27:51Z</time>
      </trkpt>
      <trkpt lat="47.30464" lon="4.90133">
        <ele>574</ele>
        <time>2013-01-12T09:27:55Z</time>
      </trkpt>
      <trkpt lat="47.30469" lon="4.9013">
        <ele>573</ele>
        <time>2013-01-12T09:27:58Z</time>
      </trkpt>
      <trkpt lat="47.30473" lon="4.90127">
        <ele>571</ele>
        <time>2013-01-12T09:28:01Z</time>
      </trkpt>
      <trkpt lat="47.30479" lon="4.90124">
        <ele>568</ele>
        <time>2013-01-12T09:28:04Z</time>
      </trkpt>
      <trkpt lat="47.30483" lon="4.9012">
        <ele>568</ele>
        <time>2013-01-12T09:28:06Z</time>
      </trkpt>
      <trkpt lat="47.30488" lon="4.90116">
        <ele>565</ele>
        <time>2013-01-12T09:28:09Z</time>
      </trkpt>
      <trkpt lat="47.30493" lon="4.90112">
        <ele>563</ele>
        <time>2013-01-12T09:28:12Z</time>
      </trkpt>
      <trkpt lat="47.30498" lon="4.90109">
        <ele>562</ele>
        <time>2013-01-12T09:28:16Z</time>
      </trkpt>
      <trkpt lat="47.30503" lon="4.90107">
        <ele>559</ele>
        <time>2013-01-12T09:28:18Z</time>
      </trkpt>
      <trkpt lat="47.30507" lon="4.90107">
        <ele>559</ele>
        <time>2013-01-12T09:28:20Z</time>
      </trkpt>
      <trkpt lat="47.30514" lon="4.90107">
        <ele>556</ele>
        <time>2013-01-12T09:28:23Z</time>
      </trkpt>
      <trkpt lat="47.30517" lon="4.90111">
        <ele>556</ele>
        <time>2013-01-12T09:28:25Z</time>
      </trkpt>
      <trkpt lat="47.3052" lon="4.90117">
        <ele>555</ele>
        <time>2013-01-12T09:28:27Z</time>
      </trkpt>
      <trkpt lat="47.30522" lon="4.90125">
        <ele>555</ele>
        <time>2013-01-12T09:28:29Z</time>
      </trkpt>
      <trkpt lat="47.30524" lon="4.90135">
        <ele>554</ele>
        <time>2013-01-12T09:28:31Z</time>
      </trkpt>
      <trkpt lat="47.30524" lon="4.90144">
        <ele>554</ele>
        <time>2013-01-12T09:28:33Z</time>
      </trkpt>
      <trkpt lat="47.30524" lon="4.90152">
        <ele>553</ele>
        <time>2013-01-12T09:28:37Z</time>
      </trkpt>
      <trkpt lat="47.30521" lon="4.90158">
        <ele>553</ele>
        <time>2013-01-12T09:28:41Z</time>
      </trkpt>
      <trkpt lat="47.30518" lon="4.90164">
        <ele>554</ele>
        <time>2013-01-12T09:28:44Z</time>
      </trkpt>
      <trkpt lat="47.30514" lon="4.9017">
        <ele>553</ele>
        <time>2013-01-12T09:28:47Z</time>
      </trkpt>
      <trkpt lat="47.3051" lon="4.90174">
        <ele>551</ele>
        <time>2013-01-12T09:28:49Z</time>
      </trkpt>
      <trkpt lat="47.30506" lon="4.90178">
        <ele>549</ele>
        <time>2013-01-12T09:28:52Z</time>
      </trkpt>
      <trkpt lat="47.305" lon="4.90184">
        <ele>549</ele>
        <time>2013-01-12T09:28:56Z</time>
      </trkpt>
      <trkpt lat="47.30496" lon="4.90188">
        <ele>548</ele>
        <time>2013-01-12T09:28:58Z</time>
      </trkpt>
      <trkpt lat="47.30492" lon="4.90194">
        <ele>547</ele>
        <time>2013-01-12T09:29:01Z</time>
      </trkpt>
      <trkpt lat="47.30488" lon="4.90196">
        <ele>546</ele>
        <time>2013-01-12T09:29:03Z</time>
      </trkpt>
      <trkpt lat="47.30483" lon="4.90202">
        <ele>546</ele>
        <time>2013-01-12T09:29:06Z</time>
      </trkpt>
      <trkpt lat="47.30478" lon="4.90206">
        <ele>545</ele>
        <time>2013-01-12T09:29:09Z</time>
      </trkpt>
      <trkpt lat="47.30472" lon="4.90207">
        <ele>543</ele>
        <time>2013-01-12T09:29:11Z</time>
      </trkpt>
      <trkpt lat="47.30468" lon="4.90211">
        <ele>543</ele>
        <time>2013-01-12T09:29:14Z</time>
      </trkpt>
      <trkpt lat="47.30463" lon="4.90214">
        <ele>543</ele>
        <time>2013-01-12T09:29:16Z</time>
      </trkpt>
      <trkpt lat="47.30458" lon="4.90218">
        <ele>542</ele>
        <time>2013-01-12T09:29:19Z</time>
      </trkpt>
      <trkpt lat="47.30452" lon="4.9022">
        <ele>539</ele>
        <time>2013-01-12T09:29:22Z</time>
      </trkpt>
      <trkpt lat="47.30447" lon="4.90223">
        <ele>540</ele>
        <time>2013-01-12T09:29:25Z</time>
      </trkpt>
      <trkpt lat="47.30442" lon="4.90226">
        <ele>539</ele>
        <time>2013-01-12T09:29:27Z</time>
      </trkpt>
      <trkpt lat="47.30438" lon="4.90229">
        <ele>539</ele>
        <time>2013-01-12T09:29:30Z</time>
      </trkpt>
      <trkpt lat="47.30434" lon="4.90232">
        <ele>539</ele>
        <time>2013-01-12T09:29:33Z</time>
      </trkpt>
      <trkpt lat="47.30429" lon="4.90235">
        <ele>537</ele>
        <time>2013-01-12T09:29:36Z</time>
      </trkpt>
      <trkpt lat="47.30424" lon="4.90239">
        <ele>538</ele>
        <time>2013-01-12T09:29:40Z</time>
      </trkpt>
      <trkpt lat="47.30419" lon="4.9024">
        <ele>539</ele>
        <time>2013-01-12T09:29:44Z</time>
      </trkpt>
      <trkpt lat="47.30423" lon="4.90235">
        <ele>537</ele>
        <time>2013-01-12T09:29:58Z</time>
      </trkpt>
      <trkpt lat="47.30429" lon="4.90232">
        <ele>536</ele>
        <time>2013-01-12T09:30:01Z</time>
      </trkpt>
      <trkpt lat="47.30436" lon="4.90233">
        <ele>535</ele>
        <time>2013-01-12T09:30:04Z</time>
      </trkpt>
      <trkpt lat="47.3044" lon="4.90232">
        <ele>535</ele>
        <time>2013-01-12T09:30:07Z</time>
      </trkpt>
      <trkpt lat="47.30446" lon="4.90231">
        <ele>534</ele>
        <time>2013-01-12T09:30:10Z</time>
      </trkpt>
      <trkpt lat="47.3045" lon="4.90235">
        <ele>533</ele>
        <time>2013-01-12T09:30:13Z</time>
      </trkpt>
      <trkpt lat="47.30456" lon="4.90236">
        <ele>533</ele>
        <time>2013-01-12T09:30:17Z</time>
      </trkpt>
      <trkpt lat="47.30461" lon="4.90238">
        <ele>533</ele>
        <time>2013-01-12T09:30:20Z</time>
      </trkpt>
      <trkpt lat="47.30466" lon="4.90238">
        <ele>533</ele>
        <time>2013-01-12T09:30:23Z</time>
      </trkpt>
      <trkpt lat="47.30472" lon="4.90238">
        <ele>534</ele>
        <time>2013-01-12T09:30:27Z</time>
      </trkpt>
      <trkpt lat="47.30477" lon="4.90235">
        <ele>534</ele>
        <time>2013-01-12T09:30:30Z</time>
      </trkpt>
      <trkpt lat="47.30483" lon="4.90233">
        <ele>534</ele>
        <time>2013-01-12T09:30:33Z</time>
      </trkpt>
      <trkpt lat="47.30489" lon="4.90234">
        <ele>531</ele>
        <time>2013-01-12T09:30:36Z</time>
      </trkpt>
      <trkpt lat="47.30494" lon="4.90236">
        <ele>531</ele>
        <time>2013-01-12T09:30:39Z</time>
      </trkpt>
      <trkpt lat="47.30499" lon="4.90239">
        <ele>531</ele>
        <time>2013-01-12T09:30:41Z</time>
      </trkpt>
      <trkpt lat="47.30504" lon="4.90238">
        <ele>531</ele>
        <time>2013-01-12T09:30:44Z</time>
      </trkpt>
      <trkpt lat="47.30508" lon="4.90235">
        <ele>531</ele>
        <time>2013-01-12T09:30:46Z</time>
      </trkpt>
      <trkpt lat="47.30514" lon="4.90234">
        <ele>531</ele>
        <time>2013-01-12T09:30:49Z</time>
      </trkpt>
      <trkpt lat="47.30519" lon="4.90235">
        <ele>531</ele>
        <time>2013-01-12T09:30:51Z</time>
      </trkpt>
      <trkpt lat="47.30526" lon="4.90229">
        <ele>529</ele>
        <time>2013-01-12T09:30:54Z</time>
      </trkpt>
      <trkpt lat="47.3053" lon="4.90226">
        <ele>528</ele>
        <time>2013-01-12T09:30:57Z</time>
      </trkpt>
      <trkpt lat="47.30534" lon="4.90222">
        <ele>528</ele>
        <time>2013-01-12T09:31:00Z</time>
      </trkpt>
      <trkpt lat="47.30539" lon="4.90219">
        <ele>528</ele>
        <time>2013-01-12T09:31:03Z</time>
      </trkpt>
      <trkpt lat="47.30546" lon="4.90216">
        <ele>527</ele>
        <time>2013-01-12T09:31:06Z</time>
      </trkpt>
      <trkpt lat="47.3055" lon="4.90213">
        <ele>526</ele>
        <time>2013-01-12T09:31:09Z</time>
      </trkpt>
      <trkpt lat="47.30555" lon="4.90211">
        <ele>523</ele>
        <time>2013-01-12T09:31:12Z</time>
      </trkpt>
      <trkpt lat="47.30559" lon="4.90208">
        <ele>520</ele>
        <time>2013-01-12T09:31:15Z</time>
      </trkpt>
      <trkpt lat="47.30565" lon="4.90204">
        <ele>518</ele>
        <time>2013-01-12T09:31:18Z</time>
      </trkpt>
      <trkpt lat="47.30569" lon="4.90198">
        <ele>517</ele>
        <time>2013-01-12T09:31:21Z</time>
      </trkpt>
      <trkpt lat="47.30574" lon="4.90196">
        <ele>514</ele>
        <time>2013-01-12T09:31:24Z</time>
      </trkpt>
      <trkpt lat="47.30579" lon="4.90193">
        <ele>515</ele>
        <time>2013-01-12T09:31:27Z</time>
      </trkpt>
      <trkpt lat="47.30584" lon="4.90186">
        <ele>514</ele>
        <time>2013-01-12T09:31:30Z</time>
      </trkpt>
      <trkpt lat="47.30587" lon="4.9018">
        <ele>513</ele>
        <time>2013-01-12T09:31:33Z</time>
      </trkpt>
      <trkpt lat="47.3059" lon="4.90176">
        <ele>512</ele>
        <time>2013-01-12T09:31:35Z</time>
      </trkpt>
      <trkpt lat="47.30594" lon="4.90172">
        <ele>512</ele>
        <time>2013-01-12T09:31:38Z</time>
      </trkpt>
      <trkpt lat="47.30598" lon="4.90166">
        <ele>511</ele>
        <time>2013-01-12T09:31:41Z</time>
      </trkpt>
      <trkpt lat="47.306" lon="4.90159">
        <ele>511</ele>
        <time>2013-01-12T09:31:44Z</time>
      </trkpt>
      <trkpt lat="47.30601" lon="4.90152">
        <ele>512</ele>
        <time>2013-01-12T09:31:47Z</time>
      </trkpt>
      <trkpt lat="47.30599" lon="4.90146">
        <ele>510</ele>
        <time>2013-01-12T09:31:49Z</time>
      </trkpt>
      <trkpt lat="47.30598" lon="4.90138">
        <ele>513</ele>
        <time>2013-01-12T09:31:53Z</time>
      </trkpt>
      <trkpt lat="47.306" lon="4.9013">
        <ele>509</ele>
        <time>2013-01-12T09:31:58Z</time>
      </trkpt>
      <trkpt lat="47.30602" lon="4.90124">
        <ele>508</ele>
        <time>2013-01-12T09:32:02Z</time>
      </trkpt>
      <trkpt lat="47.30601" lon="4.90116">
        <ele>512</ele>
        <time>2013-01-12T09:32:07Z</time>
      </trkpt>
      <trkpt lat="47.30599" lon="4.90108">
        <ele>512</ele>
        <time>2013-01-12T09:32:10Z</time>
      </trkpt>
      <trkpt lat="47.30599" lon="4.90101">
        <ele>512</ele>
        <time>2013-01-12T09:32:13Z</time>
      </trkpt>
      <trkpt lat="47.30598" lon="4.90094">
        <ele>511</ele>
        <time>2013-01-12T09:32:15Z</time>
      </trkpt>
      <trkpt lat="47.30599" lon="4.90086">
        <ele>511</ele>
        <time>2013-01-12T09:32:18Z</time>
      </trkpt>
      <trkpt lat="47.30598" lon="4.90077">
        <ele>511</ele>
        <time>2013-01-12T09:32:28Z</time>
      </trkpt>
      <trkpt lat="47.30594" lon="4.9007">
        <ele>511</ele>
        <time>2013-01-12T09:32:31Z</time>
      </trkpt>
      <trkpt lat="47.30593" lon="4.90062">
        <ele>511</ele>
        <time>2013-01-12T09:32:34Z</time>
      </trkpt>
      <trkpt lat="47.30594" lon="4.90056">
        <ele>512</ele>
        <time>2013-01-12T09:32:36Z</time>
      </trkpt>
      <trkpt lat="47.30593" lon="4.90049">
        <ele>513</ele>
        <time>2013-01-12T09:32:38Z</time>
      </trkpt>
      <trkpt lat="47.30591" lon="4.90042">
        <ele>514</ele>
        <time>2013-01-12T09:32:40Z</time>
      </trkpt>
      <trkpt lat="47.30592" lon="4.90034">
        <ele>517</ele>
        <time>2013-01-12T09:32:43Z</time>
      </trkpt>
      <trkpt lat="47.30592" lon="4.90026">
        <ele>518</ele>
        <time>2013-01-12T09:32:46Z</time>
      </trkpt>
      <trkpt lat="47.30592" lon="4.90018">
        <ele>518</ele>
        <time>2013-01-12T09:32:49Z</time>
      </trkpt>
      <trkpt lat="47.30591" lon="4.90008">
        <ele>518</ele>
        <time>2013-01-12T09:32:52Z</time>
      </trkpt>
      <trkpt lat="47.30591" lon="4.90001">
        <ele>518</ele>
        <time>2013-01-12T09:32:54Z</time>
      </trkpt>
      <trkpt lat="47.30592" lon="4.89993">
        <ele>519</ele>
        <time>2013-01-12T09:32:57Z</time>
      </trkpt>
      <trkpt lat="47.30593" lon="4.89984">
        <ele>517</ele>
        <time>2013-01-12T09:33:00Z</time>
      </trkpt>
      <trkpt lat="47.30594" lon="4.89976">
        <ele>517</ele>
        <time>2013-01-12T09:33:03Z</time>
      </trkpt>
      <trkpt lat="47.30596" lon="4.89967">
        <ele>516</ele>
        <time>2013-01-12T09:33:06Z</time>
      </trkpt>
      <trkpt lat="47.30598" lon="4.8996">
        <ele>515</ele>
        <time>2013-01-12T09:33:08Z</time>
      </trkpt>
      <trkpt lat="47.30598" lon="4.89951">
        <ele>515</ele>
        <time>2013-01-12T09:33:11Z</time>
      </trkpt>
      <trkpt lat="47.30598" lon="4.89944">
        <ele>515</ele>
        <time>2013-01-12T09:33:14Z</time>
      </trkpt>
      <trkpt lat="47.30598" lon="4.89936">
        <ele>514</ele>
        <time>2013-01-12T09:33:17Z</time>
      </trkpt>
      <trkpt lat="47.30603" lon="4.89928">
        <ele>512</ele>
        <time>2013-01-12T09:33:20Z</time>
      </trkpt>
      <trkpt lat="47.30607" lon="4.89926">
        <ele>512</ele>
        <time>2013-01-12T09:33:22Z</time>
      </trkpt>
      <trkpt lat="47.30612" lon="4.89922">
        <ele>508</ele>
        <time>2013-01-12T09:33:24Z</time>
      </trkpt>
      <trkpt lat="47.30617" lon="4.8992">
        <ele>508</ele>
        <time>2013-01-12T09:33:26Z</time>
      </trkpt>
      <trkpt lat="47.30623" lon="4.8992">
        <ele>508</ele>
        <time>2013-01-12T09:33:30Z</time>
      </trkpt>
      <trkpt lat="47.30627" lon="4.89923">
        <ele>508</ele>
        <time>2013-01-12T09:33:33Z</time>
      </trkpt>
      <trkpt lat="47.30633" lon="4.89926">
        <ele>506</ele>
        <time>2013-01-12T09:33:36Z</time>
      </trkpt>
      <trkpt lat="47.30638" lon="4.89931">
        <ele>505</ele>
        <time>2013-01-12T09:33:40Z</time>
      </trkpt>
      <trkpt lat="47.30642" lon="4.89938">
        <ele>505</ele>
        <time>2013-01-12T09:33:43Z</time>
      </trkpt>
      <trkpt lat="47.30646" lon="4.89943">
        <ele>505</ele>
        <time>2013-01-12T09:33:46Z</time>
      </trkpt>
      <trkpt lat="47.30651" lon="4.89949">
        <ele>507</ele>
        <time>2013-01-12T09:33:50Z</time>
      </trkpt>
      <trkpt lat="47.30653" lon="4.89955">
        <ele>505</ele>
        <time>2013-01-12T09:33:52Z</time>
      </trkpt>
      <trkpt lat="47.30656" lon="4.89963">
        <ele>504</ele>
        <time>2013-01-12T09:33:55Z</time>
      </trkpt>
      <trkpt lat="47.30659" lon="4.89969">
        <ele>504</ele>
        <time>2013-01-12T09:33:58Z</time>
      </trkpt>
      <trkpt lat="47.30662" lon="4.89977">
        <ele>501</ele>
        <time>2013-01-12T09:34:02Z</time>
      </trkpt>
      <trkpt lat="47.30668" lon="4.89982">
        <ele>500</ele>
        <time>2013-01-12T09:34:05Z</time>
      </trkpt>
      <trkpt lat="47.30672" lon="4.89987">
        <ele>500</ele>
        <time>2013-01-12T09:34:09Z</time>
      </trkpt>
      <trkpt lat="47.30675" lon="4.89994">
        <ele>499</ele>
        <time>2013-01-12T09:34:12Z</time>
      </trkpt>
      <trkpt lat="47.30678" lon="4.9">
        <ele>495</ele>
        <time>2013-01-12T09:34:15Z</time>
      </trkpt>
      <trkpt lat="47.30683" lon="4.90005">
        <ele>491</ele>
        <time>2013-01-12T09:34:21Z</time>
      </trkpt>
      <trkpt lat="47.30686" lon="4.90013">
        <ele>491</ele>
        <time>2013-01-12T09:34:24Z</time>
      </trkpt>
      <trkpt lat="47.3069" lon="4.90021">
        <ele>492</ele>
        <time>2013-01-12T09:34:27Z</time>
      </trkpt>
      <trkpt lat="47.30693" lon="4.90026">
        <ele>492</ele>
        <time>2013-01-12T09:34:29Z</time>
      </trkpt>
      <trkpt lat="47.30696" lon="4.90034">
        <ele>491</ele>
        <time>2013-01-12T09:34:32Z</time>
      </trkpt>
      <trkpt lat="47.307" lon="4.90042">
        <ele>492</ele>
        <time>2013-01-12T09:34:37Z</time>
      </trkpt>
      <trkpt lat="47.30703" lon="4.90049">
        <ele>492</ele>
        <time>2013-01-12T09:34:40Z</time>
      </trkpt>
      <trkpt lat="47.30706" lon="4.90056">
        <ele>491</ele>
        <time>2013-01-12T09:34:43Z</time>
      </trkpt>
      <trkpt lat="47.30709" lon="4.90062">
        <ele>492</ele>
        <time>2013-01-12T09:34:46Z</time>
      </trkpt>
      <trkpt lat="47.30712" lon="4.9007">
        <ele>491</ele>
        <time>2013-01-12T09:34:49Z</time>
      </trkpt>
      <trkpt lat="47.30714" lon="4.90075">
        <ele>491</ele>
        <time>2013-01-12T09:34:51Z</time>
      </trkpt>
      <trkpt lat="47.30717" lon="4.9008">
        <ele>492</ele>
        <time>2013-01-12T09:34:53Z</time>
      </trkpt>
      <trkpt lat="47.30719" lon="4.90088">
        <ele>492</ele>
        <time>2013-01-12T09:34:56Z</time>
      </trkpt>
      <trkpt lat="47.30721" lon="4.90095">
        <ele>491</ele>
        <time>2013-01-12T09:34:59Z</time>
      </trkpt>
      <trkpt lat="47.30722" lon="4.90102">
        <ele>492</ele>
        <time>2013-01-12T09:35:02Z</time>
      </trkpt>
      <trkpt lat="47.30724" lon="4.90108">
        <ele>492</ele>
        <time>2013-01-12T09:35:05Z</time>
      </trkpt>
      <trkpt lat="47.30726" lon="4.90115">
        <ele>492</ele>
        <time>2013-01-12T09:35:08Z</time>
      </trkpt>
      <trkpt lat="47.30728" lon="4.90123">
        <ele>491</ele>
        <time>2013-01-12T09:35:10Z</time>
      </trkpt>
      <trkpt lat="47.30731" lon="4.90131">
        <ele>493</ele>
        <time>2013-01-12T09:35:13Z</time>
      </trkpt>
      <trkpt lat="47.30733" lon="4.90137">
        <ele>494</ele>
        <time>2013-01-12T09:35:15Z</time>
      </trkpt>
      <trkpt lat="47.30735" lon="4.90143">
        <ele>493</ele>
        <time>2013-01-12T09:35:18Z</time>
      </trkpt>
      <trkpt lat="47.30738" lon="4.90151">
        <ele>493</ele>
        <time>2013-01-12T09:35:21Z</time>
      </trkpt>
      <trkpt lat="47.3074" lon="4.90157">
        <ele>493</ele>
        <time>2013-01-12T09:35:23Z</time>
      </trkpt>
      <trkpt lat="47.30741" lon="4.90165">
        <ele>493</ele>
        <time>2013-01-12T09:35:26Z</time>
      </trkpt>
      <trkpt lat="47.30744" lon="4.90172">
        <ele>491</ele>
        <time>2013-01-12T09:35:29Z</time>
      </trkpt>
      <trkpt lat="47.30747" lon="4.9018">
        <ele>491</ele>
        <time>2013-01-12T09:35:32Z</time>
      </trkpt>
      <trkpt lat="47.30748" lon="4.90186">
        <ele>490</ele>
        <time>2013-01-12T09:35:35Z</time>
      </trkpt>
      <trkpt lat="47.30749" lon="4.90193">
        <ele>488</ele>
        <time>2013-01-12T09:35:37Z</time>
      </trkpt>
      <trkpt lat="47.30751" lon="4.90199">
        <ele>487</ele>
        <time>2013-01-12T09:35:39Z</time>
      </trkpt>
      <trkpt lat="47.30753" lon="4.90206">
        <ele>487</ele>
        <time>2013-01-12T09:35:42Z</time>
      </trkpt>
      <trkpt lat="47.30754" lon="4.90213">
        <ele>485</ele>
        <time>2013-01-12T09:35:45Z</time>
      </trkpt>
      <trkpt lat="47.30753" lon="4.90221">
        <ele>484</ele>
        <time>2013-01-12T09:35:48Z</time>
      </trkpt>
      <trkpt lat="47.30755" lon="4.90227">
        <ele>480</ele>
        <time>2013-01-12T09:35:52Z</time>
      </trkpt>
      <trkpt lat="47.30758" lon="4.90235">
        <ele>479</ele>
        <time>2013-01-12T09:35:54Z</time>
      </trkpt>
      <trkpt lat="47.3076" lon="4.90242">
        <ele>478</ele>
        <time>2013-01-12T09:35:56Z</time>
      </trkpt>
      <trkpt lat="47.30761" lon="4.90248">
        <ele>477</ele>
        <time>2013-01-12T09:35:58Z</time>
      </trkpt>
      <trkpt lat="47.30765" lon="4.90257">
        <ele>477</ele>
        <time>2013-01-12T09:36:01Z</time>
      </trkpt>
      <trkpt lat="47.30767" lon="4.90263">
        <ele>476</ele>
        <time>2013-01-12T09:36:04Z</time>
      </trkpt>
      <trkpt lat="47.30771" lon="4.90271">
        <ele>474</ele>
        <time>2013-01-12T09:36:08Z</time>
      </trkpt>
      <trkpt lat="47.30774" lon="4.90278">
        <ele>470</ele>
        <time>2013-01-12T09:36:12Z</time>
      </trkpt>
      <trkpt lat="47.3078" lon="4.90282">
        <ele>468</ele>
        <time>2013-01-12T09:36:16Z</time>
      </trkpt>
      <trkpt lat="47.30785" lon="4.90286">
        <ele>464</ele>
        <time>2013-01-12T09:36:20Z</time>
      </trkpt>
      <trkpt lat="47.3079" lon="4.90284">
        <ele>461</ele>
        <time>2013-01-12T09:36:23Z</time>
      </trkpt>
      <trkpt lat="47.30796" lon="4.90286">
        <ele>462</ele>
        <time>2013-01-12T09:36:26Z</time>
      </trkpt>
      <trkpt lat="47.30801" lon="4.90286">
        <ele>459</ele>
        <time>2013-01-12T09:36:29Z</time>
      </trkpt>
      <trkpt lat="47.30806" lon="4.90285">
        <ele>458</ele>
        <time>2013-01-12T09:36:32Z</time>
      </trkpt>
      <trkpt lat="47.30812" lon="4.90285">
        <ele>456</ele>
        <time>2013-01-12T09:36:35Z</time>
      </trkpt>
      <trkpt lat="47.30816" lon="4.90285">
        <ele>455</ele>
        <time>2013-01-12T09:36:38Z</time>
      </trkpt>
      <trkpt lat="47.3082" lon="4.90291">
        <ele>454</ele>
        <time>2013-01-12T09:36:42Z</time>
      </trkpt>
      <trkpt lat="47.30824" lon="4.90296">
        <ele>456</ele>
        <time>2013-01-12T09:36:48Z</time>
      </trkpt>
      <trkpt lat="47.30827" lon="4.90302">
        <ele>453</ele>
        <time>2013-01-12T09:37:01Z</time>
      </trkpt>
      <trkpt lat="47.30827" lon="4.90302">
        <ele>453</ele>
        <time>2013-01-12T09:37:01Z</time>
      </trkpt>
      <trkpt lat="47.30827" lon="4.90302">
        <ele>455</ele>
        <time>2013-01-12T09:37:04Z</time>
      </trkpt>
      <trkpt lat="47.30832" lon="4.903">
        <ele>454</ele>
        <time>2013-01-12T09:37:08Z</time>
      </trkpt>
      <trkpt lat="47.30837" lon="4.90298">
        <ele>454</ele>
        <time>2013-01-12T09:37:12Z</time>
      </trkpt>
      <trkpt lat="47.30842" lon="4.90296">
        <ele>453</ele>
        <time>2013-01-12T09:37:17Z</time>
      </trkpt>
      <trkpt lat="47.30848" lon="4.90295">
        <ele>452</ele>
        <time>2013-01-12T09:37:21Z</time>
      </trkpt>
      <trkpt lat="47.30852" lon="4.90295">
        <ele>451</ele>
        <time>2013-01-12T09:37:24Z</time>
      </trkpt>
      <trkpt lat="47.30857" lon="4.90296">
        <ele>451</ele>
        <time>2013-01-12T09:37:26Z</time>
      </trkpt>
      <trkpt lat="47.30862" lon="4.90298">
        <ele>451</ele>
        <time>2013-01-12T09:37:29Z</time>
      </trkpt>
      <trkpt lat="47.30867" lon="4.90296">
        <ele>451</ele>
        <time>2013-01-12T09:37:32Z</time>
      </trkpt>
      <trkpt lat="47.30873" lon="4.90295">
        <ele>450</ele>
        <time>2013-01-12T09:37:36Z</time>
      </trkpt>
      <trkpt lat="47.30878" lon="4.90295">
        <ele>450</ele>
        <time>2013-01-12T09:37:39Z</time>
      </trkpt>
      <trkpt lat="47.30882" lon="4.90295">
        <ele>448</ele>
        <time>2013-01-12T09:37:42Z</time>
      </trkpt>
      <trkpt lat="47.30888" lon="4.90297">
        <ele>448</ele>
        <time>2013-01-12T09:37:45Z</time>
      </trkpt>
      <trkpt lat="47.30894" lon="4.90297">
        <ele>448</ele>
        <time>2013-01-12T09:37:49Z</time>
      </trkpt>
      <trkpt lat="47.30898" lon="4.90297">
        <ele>446</ele>
        <time>2013-01-12T09:37:52Z</time>
      </trkpt>
      <trkpt lat="47.30904" lon="4.90299">
        <ele>446</ele>
        <time>2013-01-12T09:37:55Z</time>
      </trkpt>
      <trkpt lat="47.30909" lon="4.90299">
        <ele>446</ele>
        <time>2013-01-12T09:37:58Z</time>
      </trkpt>
      <trkpt lat="47.30915" lon="4.903">
        <ele>445</ele>
        <time>2013-01-12T09:38:01Z</time>
      </trkpt>
      <trkpt lat="47.3092" lon="4.90302">
        <ele>445</ele>
        <time>2013-01-12T09:38:05Z</time>
      </trkpt>
      <trkpt lat="47.30924" lon="4.90308">
        <ele>444</ele>
        <time>2013-01-12T09:38:09Z</time>
      </trkpt>
      <trkpt lat="47.30926" lon="4.90316">
        <ele>445</ele>
        <time>2013-01-12T09:38:12Z</time>
      </trkpt>
      <trkpt lat="47.30928" lon="4.90322">
        <ele>447</ele>
        <time>2013-01-12T09:38:16Z</time>
      </trkpt>
      <trkpt lat="47.3093" lon="4.9033">
        <ele>447</ele>
        <time>2013-01-12T09:38:19Z</time>
      </trkpt>
      <trkpt lat="47.3093" lon="4.9033">
        <ele>447</ele>
        <time>2013-01-12T09:38:19Z</time>
      </trkpt>
      <trkpt lat="47.3093" lon="4.9033">
        <ele>447</ele>
        <time>2013-01-12T09:38:20Z</time>
      </trkpt>
      <trkpt lat="47.30931" lon="4.90337">
        <ele>447</ele>
        <time>2013-01-12T09:38:23Z</time>
      </trkpt>
      <trkpt lat="47.30934" lon="4.90343">
        <ele>451</ele>
        <time>2013-01-12T09:38:26Z</time>
      </trkpt>
      <trkpt lat="47.30936" lon="4.9035">
        <ele>451</ele>
        <time>2013-01-12T09:38:29Z</time>
      </trkpt>
      <trkpt lat="47.30938" lon="4.90357">
        <ele>450</ele>
        <time>2013-01-12T09:38:32Z</time>
      </trkpt>
      <trkpt lat="47.30939" lon="4.90365">
        <ele>450</ele>
        <time>2013-01-12T09:38:35Z</time>
      </trkpt>
      <trkpt lat="47.30939" lon="4.90372">
        <ele>449</ele>
        <time>2013-01-12T09:38:38Z</time>
      </trkpt>
      <trkpt lat="47.30941" lon="4.9038">
        <ele>448</ele>
        <time>2013-01-12T09:38:42Z</time>
      </trkpt>
      <trkpt lat="47.30943" lon="4.90387">
        <ele>447</ele>
        <time>2013-01-12T09:38:45Z</time>
      </trkpt>
      <trkpt lat="47.30946" lon="4.90395">
        <ele>448</ele>
        <time>2013-01-12T09:38:49Z</time>
      </trkpt>
      <trkpt lat="47.30946" lon="4.90402">
        <ele>447</ele>
        <time>2013-01-12T09:38:52Z</time>
      </trkpt>
      <trkpt lat="47.30948" lon="4.90409">
        <ele>446</ele>
        <time>2013-01-12T09:38:55Z</time>
      </trkpt>
      <trkpt lat="47.3095" lon="4.90414">
        <ele>446</ele>
        <time>2013-01-12T09:38:58Z</time>
      </trkpt>
      <trkpt lat="47.30954" lon="4.9042">
        <ele>447</ele>
        <time>2013-01-12T09:39:01Z</time>
      </trkpt>
      <trkpt lat="47.30958" lon="4.90426">
        <ele>447</ele>
        <time>2013-01-12T09:39:04Z</time>
      </trkpt>
      <trkpt lat="47.30961" lon="4.90432">
        <ele>448</ele>
        <time>2013-01-12T09:39:08Z</time>
      </trkpt>
      <trkpt lat="47.30963" lon="4.90439">
        <ele>447</ele>
        <time>2013-01-12T09:39:10Z</time>
      </trkpt>
      <trkpt lat="47.30967" lon="4.90445">
        <ele>447</ele>
        <time>2013-01-12T09:39:13Z</time>
      </trkpt>
      <trkpt lat="47.30971" lon="4.90449">
        <ele>447</ele>
        <time>2013-01-12T09:39:17Z</time>
      </trkpt>
      <trkpt lat="47.30972" lon="4.90455">
        <ele>446</ele>
        <time>2013-01-12T09:39:19Z</time>
      </trkpt>
      <trkpt lat="47.30976" lon="4.90463">
        <ele>443</ele>
        <time>2013-01-12T09:39:22Z</time>
      </trkpt>
      <trkpt lat="47.30979" lon="4.9047">
        <ele>442</ele>
        <time>2013-01-12T09:39:25Z</time>
      </trkpt>
      <trkpt lat="47.30984" lon="4.90474">
        <ele>444</ele>
        <time>2013-01-12T09:39:29Z</time>
      </trkpt>
      <trkpt lat="47.30988" lon="4.9048">
        <ele>445</ele>
        <time>2013-01-12T09:39:33Z</time>
      </trkpt>
      <trkpt lat="47.3099" lon="4.90486">
        <ele>445</ele>
        <time>2013-01-12T09:39:36Z</time>
      </trkpt>
      <trkpt lat="47.30993" lon="4.90493">
        <ele>445</ele>
        <time>2013-01-12T09:39:39Z</time>
      </trkpt>
      <trkpt lat="47.30996" lon="4.905">
        <ele>443</ele>
        <time>2013-01-12T09:39:42Z</time>
      </trkpt>
      <trkpt lat="47.30999" lon="4.90506">
        <ele>444</ele>
        <time>2013-01-12T09:39:45Z</time>
      </trkpt>
      <trkpt lat="47.31004" lon="4.9051">
        <ele>444</ele>
        <time>2013-01-12T09:39:49Z</time>
      </trkpt>
      <trkpt lat="47.31008" lon="4.90519">
        <ele>442</ele>
        <time>2013-01-12T09:39:52Z</time>
      </trkpt>
      <trkpt lat="47.31011" lon="4.90528">
        <ele>440</ele>
        <time>2013-01-12T09:39:56Z</time>
      </trkpt>
      <trkpt lat="47.31015" lon="4.90535">
        <ele>437</ele>
        <time>2013-01-12T09:39:59Z</time>
      </trkpt>
      <trkpt lat="47.31018" lon="4.90541">
        <ele>437</ele>
        <time>2013-01-12T09:40:02Z</time>
      </trkpt>
      <trkpt lat="47.31022" lon="4.90548">
        <ele>438</ele>
        <time>2013-01-12T09:40:06Z</time>
      </trkpt>
      <trkpt lat="47.31026" lon="4.90553">
        <ele>437</ele>
        <time>2013-01-12T09:40:09Z</time>
      </trkpt>
      <trkpt lat="47.31028" lon="4.90559">
        <ele>437</ele>
        <time>2013-01-12T09:40:12Z</time>
      </trkpt>
      <trkpt lat="47.31032" lon="4.90564">
        <ele>437</ele>
        <time>2013-01-12T09:40:15Z</time>
      </trkpt>
      <trkpt lat="47.31036" lon="4.9057">
        <ele>435</ele>
        <time>2013-01-12T09:40:18Z</time>
      </trkpt>
      <trkpt lat="47.3104" lon="4.90576">
        <ele>435</ele>
        <time>2013-01-12T09:40:21Z</time>
      </trkpt>
      <trkpt lat="47.31043" lon="4.90582">
        <ele>435</ele>
        <time>2013-01-12T09:40:24Z</time>
      </trkpt>
      <trkpt lat="47.31046" lon="4.90592">
        <ele>432</ele>
        <time>2013-01-12T09:40:27Z</time>
      </trkpt>
      <trkpt lat="47.31049" lon="4.90597">
        <ele>433</ele>
        <time>2013-01-12T09:40:30Z</time>
      </trkpt>
      <trkpt lat="47.31053" lon="4.90603">
        <ele>434</ele>
        <time>2013-01-12T09:40:33Z</time>
      </trkpt>
      <trkpt lat="47.31056" lon="4.90608">
        <ele>434</ele>
        <time>2013-01-12T09:40:36Z</time>
      </trkpt>
      <trkpt lat="47.31059" lon="4.90615">
        <ele>433</ele>
        <time>2013-01-12T09:40:39Z</time>
      </trkpt>
      <trkpt lat="47.31063" lon="4.90623">
        <ele>431</ele>
        <time>2013-01-12T09:40:42Z</time>
      </trkpt>
      <trkpt lat="47.31065" lon="4.90628">
        <ele>431</ele>
        <time>2013-01-12T09:40:45Z</time>
      </trkpt>
      <trkpt lat="47.31068" lon="4.90634">
        <ele>431</ele>
        <time>2013-01-12T09:40:48Z</time>
      </trkpt>
      <trkpt lat="47.31072" lon="4.9064">
        <ele>431</ele>
        <time>2013-01-12T09:40:51Z</time>
      </trkpt>
      <trkpt lat="47.31075" lon="4.90645">
        <ele>430</ele>
        <time>2013-01-12T09:40:54Z</time>
      </trkpt>
      <trkpt lat="47.31078" lon="4.90651">
        <ele>429</ele>
        <time>2013-01-12T09:40:56Z</time>
      </trkpt>
      <trkpt lat="47.31081" lon="4.90657">
        <ele>427</ele>
        <time>2013-01-12T09:40:59Z</time>
      </trkpt>
      <trkpt lat="47.31085" lon="4.90661">
        <ele>424</ele>
        <time>2013-01-12T09:41:02Z</time>
      </trkpt>
      <trkpt lat="47.31089" lon="4.90667">
        <ele>424</ele>
        <time>2013-01-12T09:41:05Z</time>
      </trkpt>
      <trkpt lat="47.31092" lon="4.90672">
        <ele>423</ele>
        <time>2013-01-12T09:41:07Z</time>
      </trkpt>
      <trkpt lat="47.31095" lon="4.90679">
        <ele>422</ele>
        <time>2013-01-12T09:41:10Z</time>
      </trkpt>
      <trkpt lat="47.31098" lon="4.90685">
        <ele>421</ele>
        <time>2013-01-12T09:41:13Z</time>
      </trkpt>
      <trkpt lat="47.31103" lon="4.9069">
        <ele>420</ele>
        <time>2013-01-12T09:41:17Z</time>
      </trkpt>
      <trkpt lat="47.31107" lon="4.90695">
        <ele>420</ele>
        <time>2013-01-12T09:41:20Z</time>
      </trkpt>
      <trkpt lat="47.31111" lon="4.907">
        <ele>420</ele>
        <time>2013-01-12T09:41:23Z</time>
      </trkpt>
      <trkpt lat="47.31115" lon="4.90706">
        <ele>420</ele>
        <time>2013-01-12T09:41:26Z</time>
      </trkpt>
      <trkpt lat="47.31117" lon="4.90713">
        <ele>420</ele>
        <time>2013-01-12T09:41:30Z</time>
      </trkpt>
      <trkpt lat="47.31121" lon="4.90717">
        <ele>421</ele>
        <time>2013-01-12T09:41:33Z</time>
      </trkpt>
      <trkpt lat="47.31125" lon="4.90724">
        <ele>420</ele>
        <time>2013-01-12T09:41:36Z</time>
      </trkpt>
      <trkpt lat="47.31126" lon="4.90731">
        <ele>421</ele>
        <time>2013-01-12T09:41:38Z</time>
      </trkpt>
      <trkpt lat="47.31129" lon="4.90738">
        <ele>420</ele>
        <time>2013-01-12T09:41:41Z</time>
      </trkpt>
      <trkpt lat="47.31131" lon="4.90746">
        <ele>418</ele>
        <time>2013-01-12T09:41:44Z</time>
      </trkpt>
      <trkpt lat="47.31133" lon="4.90752">
        <ele>417</ele>
        <time>2013-01-12T09:41:47Z</time>
      </trkpt>
      <trkpt lat="47.31135" lon="4.9076">
        <ele>416</ele>
        <time>2013-01-12T09:41:50Z</time>
      </trkpt>
      <trkpt lat="47.31138" lon="4.90771">
        <ele>414</ele>
        <time>2013-01-12T09:41:54Z</time>
      </trkpt>
      <trkpt lat="47.31142" lon="4.90777">
        <ele>412</ele>
        <time>2013-01-12T09:41:57Z</time>
      </trkpt>
      <trkpt lat="47.31143" lon="4.90784">
        <ele>413</ele>
        <time>2013-01-12T09:42:00Z</time>
      </trkpt>
      <trkpt lat="47.31146" lon="4.9079">
        <ele>413</ele>
        <time>2013-01-12T09:42:04Z</time>
      </trkpt>
      <trkpt lat="47.3115" lon="4.90795">
        <ele>413</ele>
        <time>2013-01-12T09:42:08Z</time>
      </trkpt>
      <trkpt lat="47.31155" lon="4.90795">
        <ele>411</ele>
        <time>2013-01-12T09:42:10Z</time>
      </trkpt>
      <trkpt lat="47.3116" lon="4.90796">
        <ele>410</ele>
        <time>2013-01-12T09:42:13Z</time>
      </trkpt>
      <trkpt lat="47.31165" lon="4.90796">
        <ele>409</ele>
        <time>2013-01-12T09:42:16Z</time>
      </trkpt>
      <trkpt lat="47.31171" lon="4.90798">
        <ele>408</ele>
        <time>2013-01-12T09:42:19Z</time>
      </trkpt>
      <trkpt lat="47.31175" lon="4.908">
        <ele>407</ele>
        <time>2013-01-12T09:42:22Z</time>
      </trkpt>
      <trkpt lat="47.3118" lon="4.90801">
        <ele>408</ele>
        <time>2013-01-12T09:42:25Z</time>
      </trkpt>
      <trkpt lat="47.31185" lon="4.90802">
        <ele>408</ele>
        <time>2013-01-12T09:42:28Z</time>
      </trkpt>
      <trkpt lat="47.3119" lon="4.90804">
        <ele>408</ele>
        <time>2013-01-12T09:42:31Z</time>
      </trkpt>
      <trkpt lat="47.31195" lon="4.90805">
        <ele>407</ele>
        <time>2013-01-12T09:42:34Z</time>
      </trkpt>
      <trkpt lat="47.312" lon="4.90803">
        <ele>407</ele>
        <time>2013-01-12T09:42:37Z</time>
      </trkpt>
      <trkpt lat="47.31205" lon="4.90801">
        <ele>404</ele>
        <time>2013-01-12T09:42:40Z</time>
      </trkpt>
      <trkpt lat="47.3121" lon="4.90803">
        <ele>402</ele>
        <time>2013-01-12T09:42:43Z</time>
      </trkpt>
      <trkpt lat="47.31216" lon="4.90802">
        <ele>402</ele>
        <time>2013-01-12T09:42:46Z</time>
      </trkpt>
      <trkpt lat="47.31221" lon="4.90803">
        <ele>401</ele>
        <time>2013-01-12T09:42:49Z</time>
      </trkpt>
      <trkpt lat="47.31227" lon="4.90803">
        <ele>400</ele>
        <time>2013-01-12T09:42:52Z</time>
      </trkpt>
      <trkpt lat="47.31232" lon="4.90801">
        <ele>400</ele>
        <time>2013-01-12T09:42:56Z</time>
      </trkpt>
      <trkpt lat="47.31238" lon="4.90803">
        <ele>400</ele>
        <time>2013-01-12T09:42:58Z</time>
      </trkpt>
      <trkpt lat="47.31242" lon="4.90803">
        <ele>401</ele>
        <time>2013-01-12T09:43:01Z</time>
      </trkpt>
      <trkpt lat="47.31248" lon="4.90803">
        <ele>400</ele>
        <time>2013-01-12T09:43:04Z</time>
      </trkpt>
      <trkpt lat="47.31254" lon="4.90806">
        <ele>400</ele>
        <time>2013-01-12T09:43:08Z</time>
      </trkpt>
      <trkpt lat="47.3126" lon="4.90808">
        <ele>399</ele>
        <time>2013-01-12T09:43:12Z</time>
      </trkpt>
      <trkpt lat="47.31265" lon="4.90811">
        <ele>398</ele>
        <time>2013-01-12T09:43:15Z</time>
      </trkpt>
      <trkpt lat="47.31271" lon="4.90808">
        <ele>395</ele>
        <time>2013-01-12T09:43:18Z</time>
      </trkpt>
      <trkpt lat="47.31276" lon="4.90808">
        <ele>394</ele>
        <time>2013-01-12T09:43:21Z</time>
      </trkpt>
      <trkpt lat="47.31282" lon="4.90809">
        <ele>394</ele>
        <time>2013-01-12T09:43:24Z</time>
      </trkpt>
      <trkpt lat="47.31287" lon="4.9081">
        <ele>392</ele>
        <time>2013-01-12T09:43:29Z</time>
      </trkpt>
      <trkpt lat="47.31293" lon="4.90815">
        <ele>389</ele>
        <time>2013-01-12T09:43:32Z</time>
      </trkpt>
      <trkpt lat="47.31298" lon="4.90821">
        <ele>389</ele>
        <time>2013-01-12T09:43:35Z</time>
      </trkpt>
      <trkpt lat="47.31301" lon="4.90825">
        <ele>389</ele>
        <time>2013-01-12T09:43:38Z</time>
      </trkpt>
      <trkpt lat="47.31304" lon="4.9083">
        <ele>389</ele>
        <time>2013-01-12T09:43:41Z</time>
      </trkpt>
      <trkpt lat="47.31308" lon="4.90834">
        <ele>387</ele>
        <time>2013-01-12T09:43:44Z</time>
      </trkpt>
      <trkpt lat="47.31312" lon="4.90838">
        <ele>387</ele>
        <time>2013-01-12T09:43:47Z</time>
      </trkpt>
      <trkpt lat="47.31317" lon="4.90842">
        <ele>386</ele>
        <time>2013-01-12T09:43:50Z</time>
      </trkpt>
      <trkpt lat="47.31321" lon="4.90847">
        <ele>385</ele>
        <time>2013-01-12T09:43:54Z</time>
      </trkpt>
      <trkpt lat="47.31326" lon="4.90853">
        <ele>384</ele>
        <time>2013-01-12T09:43:57Z</time>
      </trkpt>
      <trkpt lat="47.31328" lon="4.90859">
        <ele>383</ele>
        <time>2013-01-12T09:44:00Z</time>
      </trkpt>
      <trkpt lat="47.3133" lon="4.90865">
        <ele>384</ele>
        <time>2013-01-12T09:44:02Z</time>
      </trkpt>
      <trkpt lat="47.31335" lon="4.90868">
        <ele>384</ele>
        <time>2013-01-12T09:44:05Z</time>
      </trkpt>
      <trkpt lat="47.31339" lon="4.90874">
        <ele>383</ele>
        <time>2013-01-12T09:44:08Z</time>
      </trkpt>
      <trkpt lat="47.31342" lon="4.90879">
        <ele>383</ele>
        <time>2013-01-12T09:44:10Z</time>
      </trkpt>
      <trkpt lat="47.31344" lon="4.90884">
        <ele>382</ele>
        <time>2013-01-12T09:44:13Z</time>
      </trkpt>
      <trkpt lat="47.31347" lon="4.9089">
        <ele>381</ele>
        <time>2013-01-12T09:44:15Z</time>
      </trkpt>
      <trkpt lat="47.3135" lon="4.90897">
        <ele>379</ele>
        <time>2013-01-12T09:44:18Z</time>
      </trkpt>
      <trkpt lat="47.31353" lon="4.90905">
        <ele>379</ele>
        <time>2013-01-12T09:44:21Z</time>
      </trkpt>
      <trkpt lat="47.31357" lon="4.90912">
        <ele>379</ele>
        <time>2013-01-12T09:44:24Z</time>
      </trkpt>
      <trkpt lat="47.31359" lon="4.9092">
        <ele>379</ele>
        <time>2013-01-12T09:44:27Z</time>
      </trkpt>
      <trkpt lat="47.31361" lon="4.90928">
        <ele>380</ele>
        <time>2013-01-12T09:44:30Z</time>
      </trkpt>
      <trkpt lat="47.31361" lon="4.90935">
        <ele>380</ele>
        <time>2013-01-12T09:44:33Z</time>
      </trkpt>
      <trkpt lat="47.31364" lon="4.90943">
        <ele>379</ele>
        <time>2013-01-12T09:44:36Z</time>
      </trkpt>
      <trkpt lat="47.31367" lon="4.90948">
        <ele>379</ele>
        <time>2013-01-12T09:44:38Z</time>
      </trkpt>
      <trkpt lat="47.31369" lon="4.90954">
        <ele>379</ele>
        <time>2013-01-12T09:44:41Z</time>
      </trkpt>
      <trkpt lat="47.31372" lon="4.9096">
        <ele>378</ele>
        <time>2013-01-12T09:44:44Z</time>
      </trkpt>
      <trkpt lat="47.31374" lon="4.90967">
        <ele>378</ele>
        <time>2013-01-12T09:44:47Z</time>
      </trkpt>
      <trkpt lat="47.31378" lon="4.90975">
        <ele>376</ele>
        <time>2013-01-12T09:44:51Z</time>
      </trkpt>
      <trkpt lat="47.31381" lon="4.9098">
        <ele>376</ele>
        <time>2013-01-12T09:44:55Z</time>
      </trkpt>
      <trkpt lat="47.31384" lon="4.90985">
        <ele>375</ele>
        <time>2013-01-12T09:44:57Z</time>
      </trkpt>
      <trkpt lat="47.31388" lon="4.9099">
        <ele>373</ele>
        <time>2013-01-12T09:45:00Z</time>
      </trkpt>
      <trkpt lat="47.3139" lon="4.90996">
        <ele>372</ele>
        <time>2013-01-12T09:45:02Z</time>
      </trkpt>
      <trkpt lat="47.31395" lon="4.91001">
        <ele>373</ele>
        <time>2013-01-12T09:45:05Z</time>
      </trkpt>
      <trkpt lat="47.31399" lon="4.91008">
        <ele>370</ele>
        <time>2013-01-12T09:45:07Z</time>
      </trkpt>
      <trkpt lat="47.31403" lon="4.91013">
        <ele>368</ele>
        <time>2013-01-12T09:45:09Z</time>
      </trkpt>
      <trkpt lat="47.31406" lon="4.91017">
        <ele>366</ele>
        <time>2013-01-12T09:45:11Z</time>
      </trkpt>
      <trkpt lat="47.31413" lon="4.91022">
        <ele>363</ele>
        <time>2013-01-12T09:45:14Z</time>
      </trkpt>
      <trkpt lat="47.31417" lon="4.91026">
        <ele>362</ele>
        <time>2013-01-12T09:45:16Z</time>
      </trkpt>
      <trkpt lat="47.31423" lon="4.91028">
        <ele>360</ele>
        <time>2013-01-12T09:45:20Z</time>
      </trkpt>
      <trkpt lat="47.31429" lon="4.91031">
        <ele>358</ele>
        <time>2013-01-12T09:45:23Z</time>
      </trkpt>
      <trkpt lat="47.31433" lon="4.91035">
        <ele>357</ele>
        <time>2013-01-12T09:45:26Z</time>
      </trkpt>
      <trkpt lat="47.31439" lon="4.91035">
        <ele>355</ele>
        <time>2013-01-12T09:45:29Z</time>
      </trkpt>
      <trkpt lat="47.31444" lon="4.91036">
        <ele>352</ele>
        <time>2013-01-12T09:45:32Z</time>
      </trkpt>
      <trkpt lat="47.3145" lon="4.91036">
        <ele>350</ele>
        <time>2013-01-12T09:45:35Z</time>
      </trkpt>
      <trkpt lat="47.31455" lon="4.91038">
        <ele>349</ele>
        <time>2013-01-12T09:45:38Z</time>
      </trkpt>
      <trkpt lat="47.3146" lon="4.91041">
        <ele>349</ele>
        <time>2013-01-12T09:45:41Z</time>
      </trkpt>
      <trkpt lat="47.31465" lon="4.91042">
        <ele>348</ele>
        <time>2013-01-12T09:45:43Z</time>
      </trkpt>
      <trkpt lat="47.3147" lon="4.91044">
        <ele>348</ele>
        <time>2013-01-12T09:45:46Z</time>
      </trkpt>
      <trkpt lat="47.31475" lon="4.91047">
        <ele>347</ele>
        <time>2013-01-12T09:45:49Z</time>
      </trkpt>
      <trkpt lat="47.31479" lon="4.91049">
        <ele>346</ele>
        <time>2013-01-12T09:45:52Z</time>
      </trkpt>
      <trkpt lat="47.31484" lon="4.91052">
        <ele>348</ele>
        <time>2013-01-12T09:45:55Z</time>
      </trkpt>
      <trkpt lat="47.3149" lon="4.91056">
        <ele>348</ele>
        <time>2013-01-12T09:45:58Z</time>
      </trkpt>
      <trkpt lat="47.31496" lon="4.9106">
        <ele>347</ele>
        <time>2013-01-12T09:46:01Z</time>
      </trkpt>
      <trkpt lat="47.31501" lon="4.91064">
        <ele>346</ele>
        <time>2013-01-12T09:46:04Z</time>
      </trkpt>
      <trkpt lat="47.31505" lon="4.91069">
        <ele>346</ele>
        <time>2013-01-12T09:46:07Z</time>
      </trkpt>
      <trkpt lat="47.3151" lon="4.91073">
        <ele>344</ele>
        <time>2013-01-12T09:46:10Z</time>
      </trkpt>
      <trkpt lat="47.31515" lon="4.91078">
        <ele>344</ele>
        <time>2013-01-12T09:46:13Z</time>
      </trkpt>
      <trkpt lat="47.31519" lon="4.91084">
        <ele>342</ele>
        <time>2013-01-12T09:46:17Z</time>
      </trkpt>
      <trkpt lat="47.31522" lon="4.91089">
        <ele>342</ele>
        <time>2013-01-12T09:46:19Z</time>
      </trkpt>
      <trkpt lat="47.31526" lon="4.91094">
        <ele>341</ele>
        <time>2013-01-12T09:46:21Z</time>
      </trkpt>
      <trkpt lat="47.31529" lon="4.911">
        <ele>340</ele>
        <time>2013-01-12T09:46:24Z</time>
      </trkpt>
      <trkpt lat="47.31532" lon="4.91105">
        <ele>340</ele>
        <time>2013-01-12T09:46:27Z</time>
      </trkpt>
      <trkpt lat="47.31536" lon="4.9111">
        <ele>337</ele>
        <time>2013-01-12T09:46:30Z</time>
      </trkpt>
      <trkpt lat="47.3154" lon="4.91116">
        <ele>336</ele>
        <time>2013-01-12T09:46:33Z</time>
      </trkpt>
      <trkpt lat="47.31543" lon="4.91123">
        <ele>336</ele>
        <time>2013-01-12T09:46:37Z</time>
      </trkpt>
      <trkpt lat="47.31546" lon="4.91128">
        <ele>335</ele>
        <time>2013-01-12T09:46:40Z</time>
      </trkpt>
      <trkpt lat="47.31549" lon="4.91134">
        <ele>335</ele>
        <time>2013-01-12T09:46:43Z</time>
      </trkpt>
      <trkpt lat="47.31551" lon="4.91141">
        <ele>335</ele>
        <time>2013-01-12T09:46:46Z</time>
      </trkpt>
      <trkpt lat="47.31555" lon="4.91147">
        <ele>334</ele>
        <time>2013-01-12T09:46:49Z</time>
      </trkpt>
      <trkpt lat="47.31559" lon="4.91153">
        <ele>333</ele>
        <time>2013-01-12T09:46:52Z</time>
      </trkpt>
      <trkpt lat="47.31563" lon="4.91161">
        <ele>331</ele>
        <time>2013-01-12T09:46:55Z</time>
      </trkpt>
      <trkpt lat="47.31566" lon="4.91166">
        <ele>330</ele>
        <time>2013-01-12T09:46:58Z</time>
      </trkpt>
      <trkpt lat="47.31569" lon="4.91172">
        <ele>330</ele>
        <time>2013-01-12T09:47:02Z</time>
      </trkpt>
      <trkpt lat="47.31573" lon="4.91177">
        <ele>330</ele>
        <time>2013-01-12T09:47:05Z</time>
      </trkpt>
      <trkpt lat="47.31577" lon="4.91183">
        <ele>330</ele>
        <time>2013-01-12T09:47:08Z</time>
      </trkpt>
      <trkpt lat="47.31582" lon="4.91187">
        <ele>330</ele>
        <time>2013-01-12T09:47:12Z</time>
      </trkpt>
      <trkpt lat="47.31586" lon="4.91192">
        <ele>329</ele>
        <time>2013-01-12T09:47:15Z</time>
      </trkpt>
      <trkpt lat="47.3159" lon="4.91197">
        <ele>328</ele>
        <time>2013-01-12T09:47:18Z</time>
      </trkpt>
      <trkpt lat="47.31595" lon="4.91202">
        <ele>327</ele>
        <time>2013-01-12T09:47:21Z</time>
      </trkpt>
      <trkpt lat="47.31601" lon="4.91207">
        <ele>327</ele>
        <time>2013-01-12T09:47:25Z</time>
      </trkpt>
      <trkpt lat="47.31605" lon="4.91211">
        <ele>327</ele>
        <time>2013-01-12T09:47:28Z</time>
      </trkpt>
      <trkpt lat="47.3161" lon="4.91213">
        <ele>326</ele>
        <time>2013-01-12T09:47:31Z</time>
      </trkpt>
      <trkpt lat="47.31615" lon="4.91215">
        <ele>326</ele>
        <time>2013-01-12T09:47:34Z</time>
      </trkpt>
      <trkpt lat="47.3162" lon="4.91217">
        <ele>325</ele>
        <time>2013-01-12T09:47:37Z</time>
      </trkpt>
      <trkpt lat="47.31625" lon="4.91218">
        <ele>325</ele>
        <time>2013-01-12T09:47:40Z</time>
      </trkpt>
      <trkpt lat="47.3163" lon="4.91221">
        <ele>326</ele>
        <time>2013-01-12T09:47:44Z</time>
      </trkpt>
      <trkpt lat="47.31634" lon="4.91224">
        <ele>325</ele>
        <time>2013-01-12T09:47:47Z</time>
      </trkpt>
      <trkpt lat="47.31639" lon="4.91228">
        <ele>325</ele>
        <time>2013-01-12T09:47:51Z</time>
      </trkpt>
      <trkpt lat="47.31645" lon="4.91233">
        <ele>323</ele>
        <time>2013-01-12T09:47:54Z</time>
      </trkpt>
      <trkpt lat="47.31649" lon="4.91236">
        <ele>322</ele>
        <time>2013-01-12T09:47:56Z</time>
      </trkpt>
      <trkpt lat="47.31655" lon="4.91238">
        <ele>322</ele>
        <time>2013-01-12T09:47:59Z</time>
      </trkpt>
      <trkpt lat="47.31659" lon="4.91242">
        <ele>322</ele>
        <time>2013-01-12T09:48:02Z</time>
      </trkpt>
      <trkpt lat="47.31664" lon="4.91243">
        <ele>321</ele>
        <time>2013-01-12T09:48:06Z</time>
      </trkpt>
      <trkpt lat="47.31669" lon="4.91243">
        <ele>322</ele>
        <time>2013-01-12T09:48:09Z</time>
      </trkpt>
      <trkpt lat="47.31675" lon="4.91244">
        <ele>323</ele>
        <time>2013-01-12T09:48:12Z</time>
      </trkpt>
      <trkpt lat="47.3168" lon="4.91246">
        <ele>322</ele>
        <time>2013-01-12T09:48:15Z</time>
      </trkpt>
      <trkpt lat="47.31685" lon="4.91248">
        <ele>323</ele>
        <time>2013-01-12T09:48:18Z</time>
      </trkpt>
      <trkpt lat="47.3169" lon="4.91251">
        <ele>323</ele>
        <time>2013-01-12T09:48:22Z</time>
      </trkpt>
      <trkpt lat="47.31694" lon="4.91252">
        <ele>323</ele>
        <time>2013-01-12T09:48:25Z</time>
      </trkpt>
      <trkpt lat="47.31699" lon="4.91255">
        <ele>322</ele>
        <time>2013-01-12T09:48:28Z</time>
      </trkpt>
      <trkpt lat="47.31703" lon="4.9126">
        <ele>322</ele>
        <time>2013-01-12T09:48:31Z</time>
      </trkpt>
      <trkpt lat="47.31708" lon="4.91264">
        <ele>320</ele>
        <time>2013-01-12T09:48:36Z</time>
      </trkpt>
      <trkpt lat="47.31713" lon="4.91268">
        <ele>319</ele>
        <time>2013-01-12T09:48:39Z</time>
      </trkpt>
      <trkpt lat="47.31718" lon="4.91272">
        <ele>319</ele>
        <time>2013-01-12T09:48:42Z</time>
      </trkpt>
      <trkpt lat="47.31722" lon="4.91277">
        <ele>319</ele>
        <time>2013-01-12T09:48:46Z</time>
      </trkpt>
      <trkpt lat="47.31725" lon="4.91282">
        <ele>319</ele>
        <time>2013-01-12T09:48:49Z</time>
      </trkpt>
      <trkpt lat="47.31728" lon="4.91288">
        <ele>320</ele>
        <time>2013-01-12T09:48:53Z</time>
      </trkpt>
      <trkpt lat="47.31733" lon="4.91297">
        <ele>319</ele>
        <time>2013-01-12T09:48:57Z</time>
      </trkpt>
      <trkpt lat="47.31734" lon="4.91305">
        <ele>320</ele>
        <time>2013-01-12T09:49:01Z</time>
      </trkpt>
      <trkpt lat="47.31736" lon="4.91312">
        <ele>320</ele>
        <time>2013-01-12T09:49:04Z</time>
      </trkpt>
      <trkpt lat="47.31738" lon="4.9132">
        <ele>320</ele>
        <time>2013-01-12T09:49:07Z</time>
      </trkpt>
      <trkpt lat="47.31738" lon="4.91328">
        <ele>320</ele>
        <time>2013-01-12T09:49:10Z</time>
      </trkpt>
      <trkpt lat="47.3174" lon="4.91335">
        <ele>322</ele>
        <time>2013-01-12T09:49:14Z</time>
      </trkpt>
      <trkpt lat="47.31741" lon="4.91343">
        <ele>323</ele>
        <time>2013-01-12T09:49:17Z</time>
      </trkpt>
      <trkpt lat="47.31742" lon="4.9135">
        <ele>324</ele>
        <time>2013-01-12T09:49:20Z</time>
      </trkpt>
      <trkpt lat="47.31742" lon="4.91358">
        <ele>324</ele>
        <time>2013-01-12T09:49:23Z</time>
      </trkpt>
      <trkpt lat="47.31743" lon="4.91365">
        <ele>326</ele>
        <time>2013-01-12T09:49:27Z</time>
      </trkpt>
      <trkpt lat="47.31746" lon="4.91375">
        <ele>327</ele>
        <time>2013-01-12T09:49:31Z</time>
      </trkpt>
      <trkpt lat="47.31748" lon="4.91383">
        <ele>328</ele>
        <time>2013-01-12T09:49:34Z</time>
      </trkpt>
      <trkpt lat="47.31749" lon="4.91391">
        <ele>327</ele>
        <time>2013-01-12T09:49:37Z</time>
      </trkpt>
      <trkpt lat="47.3175" lon="4.91398">
        <ele>327</ele>
        <time>2013-01-12T09:49:42Z</time>
      </trkpt>
      <trkpt lat="47.31752" lon="4.91405">
        <ele>327</ele>
        <time>2013-01-12T09:49:46Z</time>
      </trkpt>
      <trkpt lat="47.31754" lon="4.91412">
        <ele>326</ele>
        <time>2013-01-12T09:49:49Z</time>
      </trkpt>
      <trkpt lat="47.31754" lon="4.91419">
        <ele>327</ele>
        <time>2013-01-12T09:49:53Z</time>
      </trkpt>
      <trkpt lat="47.31755" lon="4.91426">
        <ele>327</ele>
        <time>2013-01-12T09:49:57Z</time>
      </trkpt>
      <trkpt lat="47.31753" lon="4.91433">
        <ele>328</ele>
        <time>2013-01-12T09:50:01Z</time>
      </trkpt>
      <trkpt lat="47.31754" lon="4.91441">
        <ele>329</ele>
        <time>2013-01-12T09:50:04Z</time>
      </trkpt>
      <trkpt lat="47.31754" lon="4.91448">
        <ele>330</ele>
        <time>2013-01-12T09:50:07Z</time>
      </trkpt>
      <trkpt lat="47.31756" lon="4.91457">
        <ele>330</ele>
        <time>2013-01-12T09:50:10Z</time>
      </trkpt>
      <trkpt lat="47.31757" lon="4.91464">
        <ele>329</ele>
        <time>2013-01-12T09:50:12Z</time>
      </trkpt>
      <trkpt lat="47.31758" lon="4.91471">
        <ele>330</ele>
        <time>2013-01-12T09:50:16Z</time>
      </trkpt>
      <trkpt lat="47.31759" lon="4.91478">
        <ele>329</ele>
        <time>2013-01-12T09:50:19Z</time>
      </trkpt>
      <trkpt lat="47.31761" lon="4.91485">
        <ele>328</ele>
        <time>2013-01-12T09:50:21Z</time>
      </trkpt>
      <trkpt lat="47.31762" lon="4.91492">
        <ele>330</ele>
        <time>2013-01-12T09:50:25Z</time>
      </trkpt>
      <trkpt lat="47.31763" lon="4.91502">
        <ele>329</ele>
        <time>2013-01-12T09:50:29Z</time>
      </trkpt>
      <trkpt lat="47.31764" lon="4.91508">
        <ele>329</ele>
        <time>2013-01-12T09:50:31Z</time>
      </trkpt>
      <trkpt lat="47.31766" lon="4.91515">
        <ele>328</ele>
        <time>2013-01-12T09:50:34Z</time>
      </trkpt>
      <trkpt lat="47.31767" lon="4.91524">
        <ele>328</ele>
        <time>2013-01-12T09:50:37Z</time>
      </trkpt>
      <trkpt lat="47.3177" lon="4.91533">
        <ele>328</ele>
        <time>2013-01-12T09:50:41Z</time>
      </trkpt>
      <trkpt lat="47.31771" lon="4.9154">
        <ele>328</ele>
        <time>2013-01-12T09:50:44Z</time>
      </trkpt>
      <trkpt lat="47.31773" lon="4.91547">
        <ele>328</ele>
        <time>2013-01-12T09:50:46Z</time>
      </trkpt>
      <trkpt lat="47.31775" lon="4.91553">
        <ele>327</ele>
        <time>2013-01-12T09:50:49Z</time>
      </trkpt>
      <trkpt lat="47.31773" lon="4.9156">
        <ele>324</ele>
        <time>2013-01-12T09:50:53Z</time>
      </trkpt>
      <trkpt lat="47.31772" lon="4.91567">
        <ele>325</ele>
        <time>2013-01-12T09:50:56Z</time>
      </trkpt>
      <trkpt lat="47.31774" lon="4.91574">
        <ele>328</ele>
        <time>2013-01-12T09:51:00Z</time>
      </trkpt>
      <trkpt lat="47.31773" lon="4.91581">
        <ele>329</ele>
        <time>2013-01-12T09:51:03Z</time>
      </trkpt>
      <trkpt lat="47.31773" lon="4.9159">
        <ele>330</ele>
        <time>2013-01-12T09:51:07Z</time>
      </trkpt>
      <trkpt lat="47.31776" lon="4.916">
        <ele>328</ele>
        <time>2013-01-12T09:51:11Z</time>
      </trkpt>
      <trkpt lat="47.31778" lon="4.91609">
        <ele>329</ele>
        <time>2013-01-12T09:51:13Z</time>
      </trkpt>
      <trkpt lat="47.31778" lon="4.91616">
        <ele>331</ele>
        <time>2013-01-12T09:51:16Z</time>
      </trkpt>
      <trkpt lat="47.31779" lon="4.91625">
        <ele>331</ele>
        <time>2013-01-12T09:51:20Z</time>
      </trkpt>
      <trkpt lat="47.3178" lon="4.91634">
        <ele>331</ele>
        <time>2013-01-12T09:51:24Z</time>
      </trkpt>
      <trkpt lat="47.31779" lon="4.91641">
        <ele>332</ele>
        <time>2013-01-12T09:51:28Z</time>
      </trkpt>
      <trkpt lat="47.31778" lon="4.91648">
        <ele>332</ele>
        <time>2013-01-12T09:51:31Z</time>
      </trkpt>
      <trkpt lat="47.31779" lon="4.91655">
        <ele>334</ele>
        <time>2013-01-12T09:51:34Z</time>
      </trkpt>
      <trkpt lat="47.31779" lon="4.91662">
        <ele>334</ele>
        <time>2013-01-12T09:51:37Z</time>
      </trkpt>
      <trkpt lat="47.3178" lon="4.9167">
        <ele>334</ele>
        <time>2013-01-12T09:51:41Z</time>
      </trkpt>
      <trkpt lat="47.31781" lon="4.91676">
        <ele>333</ele>
        <time>2013-01-12T09:51:43Z</time>
      </trkpt>
      <trkpt lat="47.31781" lon="4.91685">
        <ele>334</ele>
        <time>2013-01-12T09:51:46Z</time>
      </trkpt>
      <trkpt lat="47.31783" lon="4.91693">
        <ele>331</ele>
        <time>2013-01-12T09:51:51Z</time>
      </trkpt>
      <trkpt lat="47.31785" lon="4.91699">
        <ele>332</ele>
        <time>2013-01-12T09:51:54Z</time>
      </trkpt>
      <trkpt lat="47.31785" lon="4.91707">
        <ele>333</ele>
        <time>2013-01-12T09:51:58Z</time>
      </trkpt>
      <trkpt lat="47.31788" lon="4.91718">
        <ele>332</ele>
        <time>2013-01-12T09:52:00Z</time>
      </trkpt>
      <trkpt lat="47.3179" lon="4.91726">
        <ele>333</ele>
        <time>2013-01-12T09:52:03Z</time>
      </trkpt>
      <trkpt lat="47.31789" lon="4.91734">
        <ele>333</ele>
        <time>2013-01-12T09:52:07Z</time>
      </trkpt>
      <trkpt lat="47.31789" lon="4.91743">
        <ele>332</ele>
        <time>2013-01-12T09:52:13Z</time>
      </trkpt>
      <trkpt lat="47.31791" lon="4.9175">
        <ele>333</ele>
        <time>2013-01-12T09:52:16Z</time>
      </trkpt>
      <trkpt lat="47.31792" lon="4.91759">
        <ele>335</ele>
        <time>2013-01-12T09:52:19Z</time>
      </trkpt>
      <trkpt lat="47.31794" lon="4.91767">
        <ele>333</ele>
        <time>2013-01-12T09:52:22Z</time>
      </trkpt>
      <trkpt lat="47.31794" lon="4.91776">
        <ele>332</ele>
        <time>2013-01-12T09:52:25Z</time>
      </trkpt>
      <trkpt lat="47.31796" lon="4.91784">
        <ele>331</ele>
        <time>2013-01-12T09:52:28Z</time>
      </trkpt>
      <trkpt lat="47.31798" lon="4.91793">
        <ele>331</ele>
        <time>2013-01-12T09:52:31Z</time>
      </trkpt>
      <trkpt lat="47.31798" lon="4.91801">
        <ele>333</ele>
        <time>2013-01-12T09:52:35Z</time>
      </trkpt>
      <trkpt lat="47.318" lon="4.91808">
        <ele>333</ele>
        <time>2013-01-12T09:52:37Z</time>
      </trkpt>
      <trkpt lat="47.318" lon="4.91815">
        <ele>334</ele>
        <time>2013-01-12T09:52:40Z</time>
      </trkpt>
      <trkpt lat="47.318" lon="4.91822">
        <ele>333</ele>
        <time>2013-01-12T09:52:43Z</time>
      </trkpt>
      <trkpt lat="47.31801" lon="4.91831">
        <ele>333</ele>
        <time>2013-01-12T09:52:47Z</time>
      </trkpt>
      <trkpt lat="47.31802" lon="4.9184">
        <ele>334</ele>
        <time>2013-01-12T09:52:51Z</time>
      </trkpt>
      <trkpt lat="47.31802" lon="4.91847">
        <ele>333</ele>
        <time>2013-01-12T09:52:54Z</time>
      </trkpt>
      <trkpt lat="47.31803" lon="4.91854">
        <ele>332</ele>
        <time>2013-01-12T09:52:57Z</time>
      </trkpt>
      <trkpt lat="47.31802" lon="4.91862">
        <ele>332</ele>
        <time>2013-01-12T09:53:02Z</time>
      </trkpt>
      <trkpt lat="47.31802" lon="4.9187">
        <ele>330</ele>
        <time>2013-01-12T09:53:06Z</time>
      </trkpt>
      <trkpt lat="47.31803" lon="4.91876">
        <ele>330</ele>
        <time>2013-01-12T09:53:09Z</time>
      </trkpt>
      <trkpt lat="47.31803" lon="4.91885">
        <ele>329</ele>
        <time>2013-01-12T09:53:13Z</time>
      </trkpt>
      <trkpt lat="47.31804" lon="4.91892">
        <ele>329</ele>
        <time>2013-01-12T09:53:16Z</time>
      </trkpt>
      <trkpt lat="47.31807" lon="4.91899">
        <ele>330</ele>
        <time>2013-01-12T09:53:18Z</time>
      </trkpt>
      <trkpt lat="47.31809" lon="4.91906">
        <ele>330</ele>
        <time>2013-01-12T09:53:20Z</time>
      </trkpt>
      <trkpt lat="47.3181" lon="4.91915">
        <ele>329</ele>
        <time>2013-01-12T09:53:23Z</time>
      </trkpt>
      <trkpt lat="47.31811" lon="4.91924">
        <ele>331</ele>
        <time>2013-01-12T09:53:27Z</time>
      </trkpt>
      <trkpt lat="47.31812" lon="4.91931">
        <ele>331</ele>
        <time>2013-01-12T09:53:30Z</time>
      </trkpt>
      <trkpt lat="47.31812" lon="4.91939">
        <ele>331</ele>
        <time>2013-01-12T09:53:35Z</time>
      </trkpt>
      <trkpt lat="47.31812" lon="4.91946">
        <ele>331</ele>
        <time>2013-01-12T09:53:38Z</time>
      </trkpt>
      <trkpt lat="47.31813" lon="4.91955">
        <ele>331</ele>
        <time>2013-01-12T09:53:40Z</time>
      </trkpt>
      <trkpt lat="47.31811" lon="4.9196">
        <ele>330</ele>
        <time>2013-01-12T09:53:43Z</time>
      </trkpt>
      <trkpt lat="47.31811" lon="4.91968">
        <ele>330</ele>
        <time>2013-01-12T09:53:46Z</time>
      </trkpt>
      <trkpt lat="47.31813" lon="4.91975">
        <ele>333</ele>
        <time>2013-01-12T09:53:49Z</time>
      </trkpt>
      <trkpt lat="47.31815" lon="4.91982">
        <ele>333</ele>
        <time>2013-01-12T09:53:52Z</time>
      </trkpt>
      <trkpt lat="47.31817" lon="4.9199">
        <ele>333</ele>
        <time>2013-01-12T09:53:56Z</time>
      </trkpt>
      <trkpt lat="47.31817" lon="4.91998">
        <ele>332</ele>
        <time>2013-01-12T09:53:59Z</time>
      </trkpt>
      <trkpt lat="47.31816" lon="4.92004">
        <ele>330</ele>
        <time>2013-01-12T09:54:03Z</time>
      </trkpt>
      <trkpt lat="47.31817" lon="4.92012">
        <ele>331</ele>
        <time>2013-01-12T09:54:07Z</time>
      </trkpt>
      <trkpt lat="47.31819" lon="4.9202">
        <ele>331</ele>
        <time>2013-01-12T09:54:11Z</time>
      </trkpt>
      <trkpt lat="47.31818" lon="4.92027">
        <ele>331</ele>
        <time>2013-01-12T09:54:14Z</time>
      </trkpt>
      <trkpt lat="47.31819" lon="4.92035">
        <ele>328</ele>
        <time>2013-01-12T09:54:17Z</time>
      </trkpt>
      <trkpt lat="47.31819" lon="4.92044">
        <ele>329</ele>
        <time>2013-01-12T09:54:20Z</time>
      </trkpt>
      <trkpt lat="47.31821" lon="4.92051">
        <ele>328</ele>
        <time>2013-01-12T09:54:23Z</time>
      </trkpt>
      <trkpt lat="47.31823" lon="4.92059">
        <ele>329</ele>
        <time>2013-01-12T09:54:27Z</time>
      </trkpt>
      <trkpt lat="47.31823" lon="4.92067">
        <ele>329</ele>
        <time>2013-01-12T09:54:30Z</time>
      </trkpt>
      <trkpt lat="47.31824" lon="4.92076">
        <ele>332</ele>
        <time>2013-01-12T09:54:33Z</time>
      </trkpt>
      <trkpt lat="47.31824" lon="4.92084">
        <ele>330</ele>
        <time>2013-01-12T09:54:36Z</time>
      </trkpt>
      <trkpt lat="47.31825" lon="4.92094">
        <ele>329</ele>
        <time>2013-01-12T09:54:40Z</time>
      </trkpt>
      <trkpt lat="47.31825" lon="4.92101">
        <ele>330</ele>
        <time>2013-01-12T09:54:43Z</time>
      </trkpt>
      <trkpt lat="47.31826" lon="4.92109">
        <ele>328</ele>
        <time>2013-01-12T09:54:46Z</time>
      </trkpt>
      <trkpt lat="47.31827" lon="4.92117">
        <ele>326</ele>
        <time>2013-01-12T09:54:50Z</time>
      </trkpt>
      <trkpt lat="47.31827" lon="4.92127">
        <ele>325</ele>
        <time>2013-01-12T09:54:54Z</time>
      </trkpt>
      <trkpt lat="47.31829" lon="4.92135">
        <ele>326</ele>
        <time>2013-01-12T09:54:58Z</time>
      </trkpt>
      <trkpt lat="47.3183" lon="4.92144">
        <ele>327</ele>
        <time>2013-01-12T09:55:01Z</time>
      </trkpt>
      <trkpt lat="47.31832" lon="4.92152">
        <ele>328</ele>
        <time>2013-01-12T09:55:04Z</time>
      </trkpt>
      <trkpt lat="47.31833" lon="4.9216">
        <ele>329</ele>
        <time>2013-01-12T09:55:07Z</time>
      </trkpt>
      <trkpt lat="47.31835" lon="4.92169">
        <ele>330</ele>
        <time>2013-01-12T09:55:11Z</time>
      </trkpt>
      <trkpt lat="47.31836" lon="4.92178">
        <ele>331</ele>
        <time>2013-01-12T09:55:14Z</time>
      </trkpt>
      <trkpt lat="47.31837" lon="4.92186">
        <ele>331</ele>
        <time>2013-01-12T09:55:17Z</time>
      </trkpt>
      <trkpt lat="47.31839" lon="4.92195">
        <ele>330</ele>
        <time>2013-01-12T09:55:20Z</time>
      </trkpt>
      <trkpt lat="47.3184" lon="4.92204">
        <ele>330</ele>
        <time>2013-01-12T09:55:23Z</time>
      </trkpt>
      <trkpt lat="47.31841" lon="4.92211">
        <ele>330</ele>
        <time>2013-01-12T09:55:26Z</time>
      </trkpt>
      <trkpt lat="47.31843" lon="4.92219">
        <ele>329</ele>
        <time>2013-01-12T09:55:29Z</time>
      </trkpt>
      <trkpt lat="47.31843" lon="4.92227">
        <ele>331</ele>
        <time>2013-01-12T09:55:32Z</time>
      </trkpt>
      <trkpt lat="47.31843" lon="4.92236">
        <ele>331</ele>
        <time>2013-01-12T09:55:36Z</time>
      </trkpt>
      <trkpt lat="47.31844" lon="4.92245">
        <ele>332</ele>
        <time>2013-01-12T09:55:39Z</time>
      </trkpt>
      <trkpt lat="47.31846" lon="4.92253">
        <ele>332</ele>
        <time>2013-01-12T09:55:42Z</time>
      </trkpt>
      <trkpt lat="47.31847" lon="4.92262">
        <ele>331</ele>
        <time>2013-01-12T09:55:45Z</time>
      </trkpt>
      <trkpt lat="47.31848" lon="4.9227">
        <ele>331</ele>
        <time>2013-01-12T09:55:48Z</time>
      </trkpt>
      <trkpt lat="47.31848" lon="4.92279">
        <ele>331</ele>
        <time>2013-01-12T09:55:52Z</time>
      </trkpt>
      <trkpt lat="47.31849" lon="4.92286">
        <ele>330</ele>
        <time>2013-01-12T09:55:55Z</time>
      </trkpt>
      <trkpt lat="47.31851" lon="4.92293">
        <ele>330</ele>
        <time>2013-01-12T09:55:58Z</time>
      </trkpt>
      <trkpt lat="47.31852" lon="4.92301">
        <ele>330</ele>
        <time>2013-01-12T09:56:01Z</time>
      </trkpt>
      <trkpt lat="47.31852" lon="4.92309">
        <ele>327</ele>
        <time>2013-01-12T09:56:04Z</time>
      </trkpt>
      <trkpt lat="47.31853" lon="4.92317">
        <ele>327</ele>
        <time>2013-01-12T09:56:07Z</time>
      </trkpt>
      <trkpt lat="47.31855" lon="4.92324">
        <ele>329</ele>
        <time>2013-01-12T09:56:10Z</time>
      </trkpt>
      <trkpt lat="47.31855" lon="4.92332">
        <ele>328</ele>
        <time>2013-01-12T09:56:13Z</time>
      </trkpt>
      <trkpt lat="47.31855" lon="4.92339">
        <ele>326</ele>
        <time>2013-01-12T09:56:16Z</time>
      </trkpt>
      <trkpt lat="47.31856" lon="4.92348">
        <ele>327</ele>
        <time>2013-01-12T09:56:20Z</time>
      </trkpt>
      <trkpt lat="47.31856" lon="4.92355">
        <ele>324</ele>
        <time>2013-01-12T09:56:23Z</time>
      </trkpt>
      <trkpt lat="47.31856" lon="4.92364">
        <ele>324</ele>
        <time>2013-01-12T09:56:26Z</time>
      </trkpt>
      <trkpt lat="47.31858" lon="4.92372">
        <ele>324</ele>
        <time>2013-01-12T09:56:29Z</time>
      </trkpt>
      <trkpt lat="47.31856" lon="4.92378">
        <ele>322</ele>
        <time>2013-01-12T09:56:32Z</time>
      </trkpt>
      <trkpt lat="47.31858" lon="4.92386">
        <ele>321</ele>
        <time>2013-01-12T09:56:35Z</time>
      </trkpt>
      <trkpt lat="47.31856" lon="4.92393">
        <ele>321</ele>
        <time>2013-01-12T09:56:37Z</time>
      </trkpt>
      <trkpt lat="47.31857" lon="4.924">
        <ele>322</ele>
        <time>2013-01-12T09:56:40Z</time>
      </trkpt>
      <trkpt lat="47.31856" lon="4.92408">
        <ele>324</ele>
        <time>2013-01-12T09:56:43Z</time>
      </trkpt>
      <trkpt lat="47.31858" lon="4.92417">
        <ele>323</ele>
        <time>2013-01-12T09:56:46Z</time>
      </trkpt>
      <trkpt lat="47.31857" lon="4.92425">
        <ele>324</ele>
        <time>2013-01-12T09:56:49Z</time>
      </trkpt>
      <trkpt lat="47.31858" lon="4.92432">
        <ele>326</ele>
        <time>2013-01-12T09:56:52Z</time>
      </trkpt>
      <trkpt lat="47.31857" lon="4.9244">
        <ele>325</ele>
        <time>2013-01-12T09:56:55Z</time>
      </trkpt>
      <trkpt lat="47.31856" lon="4.92448">
        <ele>323</ele>
        <time>2013-01-12T09:56:58Z</time>
      </trkpt>
      <trkpt lat="47.31856" lon="4.92455">
        <ele>320</ele>
        <time>2013-01-12T09:57:01Z</time>
      </trkpt>
      <trkpt lat="47.31856" lon="4.92463">
        <ele>320</ele>
        <time>2013-01-12T09:57:05Z</time>
      </trkpt>
      <trkpt lat="47.31856" lon="4.9247">
        <ele>321</ele>
        <time>2013-01-12T09:57:08Z</time>
      </trkpt>
      <trkpt lat="47.31853" lon="4.92478">
        <ele>321</ele>
        <time>2013-01-12T09:57:11Z</time>
      </trkpt>
      <trkpt lat="47.31853" lon="4.92486">
        <ele>322</ele>
        <time>2013-01-12T09:57:14Z</time>
      </trkpt>
      <trkpt lat="47.31854" lon="4.92493">
        <ele>321</ele>
        <time>2013-01-12T09:57:17Z</time>
      </trkpt>
      <trkpt lat="47.31853" lon="4.92501">
        <ele>321</ele>
        <time>2013-01-12T09:57:21Z</time>
      </trkpt>
      <trkpt lat="47.31854" lon="4.9251">
        <ele>321</ele>
        <time>2013-01-12T09:57:24Z</time>
      </trkpt>
      <trkpt lat="47.31852" lon="4.92517">
        <ele>320</ele>
        <time>2013-01-12T09:57:28Z</time>
      </trkpt>
      <trkpt lat="47.31851" lon="4.92525">
        <ele>319</ele>
        <time>2013-01-12T09:57:31Z</time>
      </trkpt>
      <trkpt lat="47.31853" lon="4.92534">
        <ele>320</ele>
        <time>2013-01-12T09:57:34Z</time>
      </trkpt>
      <trkpt lat="47.31854" lon="4.92543">
        <ele>320</ele>
        <time>2013-01-12T09:57:38Z</time>
      </trkpt>
      <trkpt lat="47.31856" lon="4.9255">
        <ele>321</ele>
        <time>2013-01-12T09:57:40Z</time>
      </trkpt>
      <trkpt lat="47.31858" lon="4.92556">
        <ele>323</ele>
        <time>2013-01-12T09:57:42Z</time>
      </trkpt>
      <trkpt lat="47.3186" lon="4.92562">
        <ele>325</ele>
        <time>2013-01-12T09:57:44Z</time>
      </trkpt>
      <trkpt lat="47.31859" lon="4.9257">
        <ele>325</ele>
        <time>2013-01-12T09:57:48Z</time>
      </trkpt>
      <trkpt lat="47.3186" lon="4.92577">
        <ele>326</ele>
        <time>2013-01-12T09:57:51Z</time>
      </trkpt>
      <trkpt lat="47.3186" lon="4.92585">
        <ele>325</ele>
        <time>2013-01-12T09:57:54Z</time>
      </trkpt>
      <trkpt lat="47.31859" lon="4.92592">
        <ele>323</ele>
        <time>2013-01-12T09:57:57Z</time>
      </trkpt>
      <trkpt lat="47.31858" lon="4.926">
        <ele>322</ele>
        <time>2013-01-12T09:58:00Z</time>
      </trkpt>
      <trkpt lat="47.31859" lon="4.92609">
        <ele>320</ele>
        <time>2013-01-12T09:58:05Z</time>
      </trkpt>
      <trkpt lat="47.3186" lon="4.92618">
        <ele>321</ele>
        <time>2013-01-12T09:58:08Z</time>
      </trkpt>
      <trkpt lat="47.3186" lon="4.92625">
        <ele>320</ele>
        <time>2013-01-12T09:58:11Z</time>
      </trkpt>
      <trkpt lat="47.31861" lon="4.92632">
        <ele>318</ele>
        <time>2013-01-12T09:58:14Z</time>
      </trkpt>
      <trkpt lat="47.31861" lon="4.92641">
        <ele>315</ele>
        <time>2013-01-12T09:58:19Z</time>
      </trkpt>
      <trkpt lat="47.3186" lon="4.92648">
        <ele>313</ele>
        <time>2013-01-12T09:58:23Z</time>
      </trkpt>
      <trkpt lat="47.31864" lon="4.92652">
        <ele>318</ele>
        <time>2013-01-12T09:58:51Z</time>
      </trkpt>
    </trkseg>
  </trk>
</gpx>